<?xml version="1.0" encoding="UTF-8" standalone="no" ?>
<gpx xmlns="http://www.topografix.com/GPX/1/1" xmlns:xsi="http://www.w3.org/2001/XMLSchema-instance" xsi:schemaLocation="http://www.topografix.com/GPX/1/1 http://www.topografix.com/GPX/1/1/gpx.xsd" version="1.1" creator="VisuGPX - https://www.visugpx.com">
  <metadata>
    <name>col du mont</name>
    <desc><![CDATA[col du mont au depart de la masure]]></desc>
  </metadata>
  <trk>
    <name><![CDATA[col du mont]]></name>
    <trkseg>
      <trkpt lat="45.60079" lon="6.89213">
        <ele>1278.77</ele>
        <time>2016-02-21T07:33:53Z</time>
      </trkpt>
      <trkpt lat="45.60079" lon="6.89213">
        <ele>1278.77</ele>
        <time>2016-02-21T07:33:54Z</time>
      </trkpt>
      <trkpt lat="45.60079" lon="6.89206">
        <ele>1282.39</ele>
        <time>2016-02-21T07:33:58Z</time>
      </trkpt>
      <trkpt lat="45.60079" lon="6.89206">
        <ele>1283.78</ele>
        <time>2016-02-21T07:34:00Z</time>
      </trkpt>
      <trkpt lat="45.60081" lon="6.89208">
        <ele>1287.23</ele>
        <time>2016-02-21T07:34:04Z</time>
      </trkpt>
      <trkpt lat="45.60081" lon="6.89217">
        <ele>1289.78</ele>
        <time>2016-02-21T07:34:29Z</time>
      </trkpt>
      <trkpt lat="45.60079" lon="6.89219">
        <ele>1289.71</ele>
        <time>2016-02-21T07:34:46Z</time>
      </trkpt>
      <trkpt lat="45.6008" lon="6.89225">
        <ele>1289.66</ele>
        <time>2016-02-21T07:35:04Z</time>
      </trkpt>
      <trkpt lat="45.6008" lon="6.89222">
        <ele>1289.62</ele>
        <time>2016-02-21T07:35:23Z</time>
      </trkpt>
      <trkpt lat="45.60076" lon="6.89218">
        <ele>1289.12</ele>
        <time>2016-02-21T07:35:43Z</time>
      </trkpt>
      <trkpt lat="45.60079" lon="6.89215">
        <ele>1289.09</ele>
        <time>2016-02-21T07:36:01Z</time>
      </trkpt>
      <trkpt lat="45.60079" lon="6.89218">
        <ele>1289.27</ele>
        <time>2016-02-21T07:36:24Z</time>
      </trkpt>
      <trkpt lat="45.6008" lon="6.89218">
        <ele>1288.94</ele>
        <time>2016-02-21T07:36:45Z</time>
      </trkpt>
      <trkpt lat="45.60079" lon="6.89218">
        <ele>1288.53</ele>
        <time>2016-02-21T07:37:02Z</time>
      </trkpt>
      <trkpt lat="45.60077" lon="6.89212">
        <ele>1288.8</ele>
        <time>2016-02-21T07:37:20Z</time>
      </trkpt>
      <trkpt lat="45.60077" lon="6.89213">
        <ele>1288.55</ele>
        <time>2016-02-21T07:37:42Z</time>
      </trkpt>
      <trkpt lat="45.60078" lon="6.89214">
        <ele>1288.36</ele>
        <time>2016-02-21T07:38:22Z</time>
      </trkpt>
      <trkpt lat="45.60074" lon="6.89207">
        <ele>1288.9</ele>
        <time>2016-02-21T07:38:37Z</time>
      </trkpt>
      <trkpt lat="45.6007" lon="6.89208">
        <ele>1289.05</ele>
        <time>2016-02-21T07:38:59Z</time>
      </trkpt>
      <trkpt lat="45.6007" lon="6.89206">
        <ele>1289.29</ele>
        <time>2016-02-21T07:39:17Z</time>
      </trkpt>
      <trkpt lat="45.60069" lon="6.89203">
        <ele>1289.03</ele>
        <time>2016-02-21T07:39:34Z</time>
      </trkpt>
      <trkpt lat="45.60068" lon="6.89196">
        <ele>1288.95</ele>
        <time>2016-02-21T07:39:52Z</time>
      </trkpt>
      <trkpt lat="45.60066" lon="6.89192">
        <ele>1289.52</ele>
        <time>2016-02-21T07:39:58Z</time>
      </trkpt>
      <trkpt lat="45.6006" lon="6.89181">
        <ele>1290.63</ele>
        <time>2016-02-21T07:40:09Z</time>
      </trkpt>
      <trkpt lat="45.60059" lon="6.89178">
        <ele>1290.92</ele>
        <time>2016-02-21T07:40:12Z</time>
      </trkpt>
      <trkpt lat="45.60052" lon="6.89165">
        <ele>1291.92</ele>
        <time>2016-02-21T07:40:26Z</time>
      </trkpt>
      <trkpt lat="45.60046" lon="6.89155">
        <ele>1293</ele>
        <time>2016-02-21T07:40:37Z</time>
      </trkpt>
      <trkpt lat="45.6004" lon="6.89144">
        <ele>1294.15</ele>
        <time>2016-02-21T07:40:49Z</time>
      </trkpt>
      <trkpt lat="45.60038" lon="6.89129">
        <ele>1295.99</ele>
        <time>2016-02-21T07:41:02Z</time>
      </trkpt>
      <trkpt lat="45.60033" lon="6.8911">
        <ele>1297.65</ele>
        <time>2016-02-21T07:41:17Z</time>
      </trkpt>
      <trkpt lat="45.60027" lon="6.89096">
        <ele>1298.7</ele>
        <time>2016-02-21T07:41:28Z</time>
      </trkpt>
      <trkpt lat="45.60022" lon="6.89088">
        <ele>1299.9</ele>
        <time>2016-02-21T07:41:38Z</time>
      </trkpt>
      <trkpt lat="45.60017" lon="6.891">
        <ele>1301.12</ele>
        <time>2016-02-21T07:41:51Z</time>
      </trkpt>
      <trkpt lat="45.60023" lon="6.89114">
        <ele>1303.27</ele>
        <time>2016-02-21T07:42:07Z</time>
      </trkpt>
      <trkpt lat="45.60025" lon="6.89121">
        <ele>1303.91</ele>
        <time>2016-02-21T07:42:19Z</time>
      </trkpt>
      <trkpt lat="45.60024" lon="6.89126">
        <ele>1304.21</ele>
        <time>2016-02-21T07:42:23Z</time>
      </trkpt>
      <trkpt lat="45.60022" lon="6.8914">
        <ele>1305.18</ele>
        <time>2016-02-21T07:42:34Z</time>
      </trkpt>
      <trkpt lat="45.6002" lon="6.89161">
        <ele>1306.91</ele>
        <time>2016-02-21T07:42:50Z</time>
      </trkpt>
      <trkpt lat="45.60024" lon="6.89185">
        <ele>1308.13</ele>
        <time>2016-02-21T07:43:06Z</time>
      </trkpt>
      <trkpt lat="45.60029" lon="6.89205">
        <ele>1309.46</ele>
        <time>2016-02-21T07:43:20Z</time>
      </trkpt>
      <trkpt lat="45.60034" lon="6.89222">
        <ele>1310.85</ele>
        <time>2016-02-21T07:43:34Z</time>
      </trkpt>
      <trkpt lat="45.6004" lon="6.89236">
        <ele>1312.1</ele>
        <time>2016-02-21T07:43:48Z</time>
      </trkpt>
      <trkpt lat="45.60044" lon="6.89254">
        <ele>1313.08</ele>
        <time>2016-02-21T07:44:03Z</time>
      </trkpt>
      <trkpt lat="45.60049" lon="6.89267">
        <ele>1313.75</ele>
        <time>2016-02-21T07:44:18Z</time>
      </trkpt>
      <trkpt lat="45.60048" lon="6.89282">
        <ele>1314.94</ele>
        <time>2016-02-21T07:44:35Z</time>
      </trkpt>
      <trkpt lat="45.60048" lon="6.89297">
        <ele>1315.75</ele>
        <time>2016-02-21T07:44:49Z</time>
      </trkpt>
      <trkpt lat="45.6005" lon="6.89313">
        <ele>1316.72</ele>
        <time>2016-02-21T07:45:03Z</time>
      </trkpt>
      <trkpt lat="45.60052" lon="6.89332">
        <ele>1317.6</ele>
        <time>2016-02-21T07:45:20Z</time>
      </trkpt>
      <trkpt lat="45.60055" lon="6.89348">
        <ele>1318.29</ele>
        <time>2016-02-21T07:45:34Z</time>
      </trkpt>
      <trkpt lat="45.6006" lon="6.89363">
        <ele>1319.72</ele>
        <time>2016-02-21T07:45:48Z</time>
      </trkpt>
      <trkpt lat="45.60066" lon="6.89381">
        <ele>1320.31</ele>
        <time>2016-02-21T07:46:04Z</time>
      </trkpt>
      <trkpt lat="45.60076" lon="6.89396">
        <ele>1321.25</ele>
        <time>2016-02-21T07:46:20Z</time>
      </trkpt>
      <trkpt lat="45.60085" lon="6.8941">
        <ele>1322.36</ele>
        <time>2016-02-21T07:46:36Z</time>
      </trkpt>
      <trkpt lat="45.6009" lon="6.89426">
        <ele>1323.54</ele>
        <time>2016-02-21T07:46:50Z</time>
      </trkpt>
      <trkpt lat="45.60092" lon="6.89436">
        <ele>1324.35</ele>
        <time>2016-02-21T07:47:00Z</time>
      </trkpt>
      <trkpt lat="45.60094" lon="6.89446">
        <ele>1325.04</ele>
        <time>2016-02-21T07:47:09Z</time>
      </trkpt>
      <trkpt lat="45.60097" lon="6.89459">
        <ele>1326.41</ele>
        <time>2016-02-21T07:47:22Z</time>
      </trkpt>
      <trkpt lat="45.60103" lon="6.89472">
        <ele>1327.65</ele>
        <time>2016-02-21T07:47:36Z</time>
      </trkpt>
      <trkpt lat="45.60112" lon="6.89487">
        <ele>1329.02</ele>
        <time>2016-02-21T07:47:50Z</time>
      </trkpt>
      <trkpt lat="45.60119" lon="6.895">
        <ele>1330.23</ele>
        <time>2016-02-21T07:48:04Z</time>
      </trkpt>
      <trkpt lat="45.60124" lon="6.89514">
        <ele>1331.71</ele>
        <time>2016-02-21T07:48:18Z</time>
      </trkpt>
      <trkpt lat="45.6013" lon="6.89529">
        <ele>1333.68</ele>
        <time>2016-02-21T07:48:34Z</time>
      </trkpt>
      <trkpt lat="45.60136" lon="6.89545">
        <ele>1335.01</ele>
        <time>2016-02-21T07:48:51Z</time>
      </trkpt>
      <trkpt lat="45.60139" lon="6.89558">
        <ele>1336.42</ele>
        <time>2016-02-21T07:49:04Z</time>
      </trkpt>
      <trkpt lat="45.60143" lon="6.89573">
        <ele>1338.08</ele>
        <time>2016-02-21T07:49:20Z</time>
      </trkpt>
      <trkpt lat="45.60151" lon="6.89589">
        <ele>1339.85</ele>
        <time>2016-02-21T07:49:35Z</time>
      </trkpt>
      <trkpt lat="45.60161" lon="6.89601">
        <ele>1341.06</ele>
        <time>2016-02-21T07:49:49Z</time>
      </trkpt>
      <trkpt lat="45.6017" lon="6.89608">
        <ele>1342.4</ele>
        <time>2016-02-21T07:50:03Z</time>
      </trkpt>
      <trkpt lat="45.60186" lon="6.89615">
        <ele>1343.67</ele>
        <time>2016-02-21T07:50:21Z</time>
      </trkpt>
      <trkpt lat="45.60199" lon="6.89618">
        <ele>1345.71</ele>
        <time>2016-02-21T07:50:39Z</time>
      </trkpt>
      <trkpt lat="45.60212" lon="6.89626">
        <ele>1347.34</ele>
        <time>2016-02-21T07:50:55Z</time>
      </trkpt>
      <trkpt lat="45.6022" lon="6.89631">
        <ele>1348.82</ele>
        <time>2016-02-21T07:51:09Z</time>
      </trkpt>
      <trkpt lat="45.60229" lon="6.89642">
        <ele>1350.58</ele>
        <time>2016-02-21T07:51:26Z</time>
      </trkpt>
      <trkpt lat="45.60237" lon="6.89647">
        <ele>1352.16</ele>
        <time>2016-02-21T07:51:43Z</time>
      </trkpt>
      <trkpt lat="45.6025" lon="6.89652">
        <ele>1353.8</ele>
        <time>2016-02-21T07:51:58Z</time>
      </trkpt>
      <trkpt lat="45.60267" lon="6.89657">
        <ele>1355.77</ele>
        <time>2016-02-21T07:52:15Z</time>
      </trkpt>
      <trkpt lat="45.60277" lon="6.89661">
        <ele>1357.45</ele>
        <time>2016-02-21T07:52:28Z</time>
      </trkpt>
      <trkpt lat="45.60286" lon="6.89667">
        <ele>1358.72</ele>
        <time>2016-02-21T07:52:41Z</time>
      </trkpt>
      <trkpt lat="45.60295" lon="6.89673">
        <ele>1359.97</ele>
        <time>2016-02-21T07:52:53Z</time>
      </trkpt>
      <trkpt lat="45.60302" lon="6.89686">
        <ele>1361.7</ele>
        <time>2016-02-21T07:53:08Z</time>
      </trkpt>
      <trkpt lat="45.60305" lon="6.89703">
        <ele>1363.12</ele>
        <time>2016-02-21T07:53:23Z</time>
      </trkpt>
      <trkpt lat="45.60309" lon="6.89717">
        <ele>1364.37</ele>
        <time>2016-02-21T07:53:36Z</time>
      </trkpt>
      <trkpt lat="45.60311" lon="6.89732">
        <ele>1365.8</ele>
        <time>2016-02-21T07:53:50Z</time>
      </trkpt>
      <trkpt lat="45.60318" lon="6.89746">
        <ele>1367.59</ele>
        <time>2016-02-21T07:54:05Z</time>
      </trkpt>
      <trkpt lat="45.60326" lon="6.89758">
        <ele>1369.48</ele>
        <time>2016-02-21T07:54:19Z</time>
      </trkpt>
      <trkpt lat="45.60329" lon="6.8977">
        <ele>1370.69</ele>
        <time>2016-02-21T07:54:32Z</time>
      </trkpt>
      <trkpt lat="45.60331" lon="6.89783">
        <ele>1372.44</ele>
        <time>2016-02-21T07:54:45Z</time>
      </trkpt>
      <trkpt lat="45.60331" lon="6.89792">
        <ele>1373.85</ele>
        <time>2016-02-21T07:55:00Z</time>
      </trkpt>
      <trkpt lat="45.60323" lon="6.89789">
        <ele>1375.13</ele>
        <time>2016-02-21T07:55:10Z</time>
      </trkpt>
      <trkpt lat="45.60311" lon="6.89775">
        <ele>1376.63</ele>
        <time>2016-02-21T07:55:26Z</time>
      </trkpt>
      <trkpt lat="45.60307" lon="6.89776">
        <ele>1377.08</ele>
        <time>2016-02-21T07:55:41Z</time>
      </trkpt>
      <trkpt lat="45.603" lon="6.89769">
        <ele>1377.6</ele>
        <time>2016-02-21T07:55:55Z</time>
      </trkpt>
      <trkpt lat="45.60291" lon="6.89759">
        <ele>1378.93</ele>
        <time>2016-02-21T07:56:10Z</time>
      </trkpt>
      <trkpt lat="45.60282" lon="6.89753">
        <ele>1379.92</ele>
        <time>2016-02-21T07:56:24Z</time>
      </trkpt>
      <trkpt lat="45.60269" lon="6.8975">
        <ele>1381.16</ele>
        <time>2016-02-21T07:56:38Z</time>
      </trkpt>
      <trkpt lat="45.60258" lon="6.89748">
        <ele>1383.09</ele>
        <time>2016-02-21T07:56:53Z</time>
      </trkpt>
      <trkpt lat="45.60251" lon="6.89755">
        <ele>1384.28</ele>
        <time>2016-02-21T07:57:06Z</time>
      </trkpt>
      <trkpt lat="45.60257" lon="6.89762">
        <ele>1386.44</ele>
        <time>2016-02-21T07:57:19Z</time>
      </trkpt>
      <trkpt lat="45.60267" lon="6.89764">
        <ele>1387.71</ele>
        <time>2016-02-21T07:57:33Z</time>
      </trkpt>
      <trkpt lat="45.60277" lon="6.89766">
        <ele>1389.64</ele>
        <time>2016-02-21T07:57:48Z</time>
      </trkpt>
      <trkpt lat="45.60286" lon="6.89774">
        <ele>1390.77</ele>
        <time>2016-02-21T07:58:01Z</time>
      </trkpt>
      <trkpt lat="45.60293" lon="6.89786">
        <ele>1391.99</ele>
        <time>2016-02-21T07:58:14Z</time>
      </trkpt>
      <trkpt lat="45.60297" lon="6.89799">
        <ele>1393.44</ele>
        <time>2016-02-21T07:58:26Z</time>
      </trkpt>
      <trkpt lat="45.60302" lon="6.89814">
        <ele>1395.13</ele>
        <time>2016-02-21T07:58:41Z</time>
      </trkpt>
      <trkpt lat="45.60305" lon="6.89829">
        <ele>1396.31</ele>
        <time>2016-02-21T07:58:52Z</time>
      </trkpt>
      <trkpt lat="45.6031" lon="6.89839">
        <ele>1397.71</ele>
        <time>2016-02-21T07:59:04Z</time>
      </trkpt>
      <trkpt lat="45.60315" lon="6.8985">
        <ele>1398.59</ele>
        <time>2016-02-21T07:59:14Z</time>
      </trkpt>
      <trkpt lat="45.60321" lon="6.89864">
        <ele>1399.88</ele>
        <time>2016-02-21T07:59:28Z</time>
      </trkpt>
      <trkpt lat="45.60327" lon="6.89877">
        <ele>1401.4</ele>
        <time>2016-02-21T07:59:41Z</time>
      </trkpt>
      <trkpt lat="45.60332" lon="6.89891">
        <ele>1403</ele>
        <time>2016-02-21T07:59:54Z</time>
      </trkpt>
      <trkpt lat="45.60337" lon="6.89901">
        <ele>1404.03</ele>
        <time>2016-02-21T08:00:05Z</time>
      </trkpt>
      <trkpt lat="45.60343" lon="6.89912">
        <ele>1406.12</ele>
        <time>2016-02-21T08:00:17Z</time>
      </trkpt>
      <trkpt lat="45.60346" lon="6.89922">
        <ele>1406.98</ele>
        <time>2016-02-21T08:00:27Z</time>
      </trkpt>
      <trkpt lat="45.60351" lon="6.89932">
        <ele>1408.32</ele>
        <time>2016-02-21T08:00:38Z</time>
      </trkpt>
      <trkpt lat="45.60356" lon="6.89947">
        <ele>1409.64</ele>
        <time>2016-02-21T08:00:51Z</time>
      </trkpt>
      <trkpt lat="45.60359" lon="6.89964">
        <ele>1411.54</ele>
        <time>2016-02-21T08:01:05Z</time>
      </trkpt>
      <trkpt lat="45.60362" lon="6.89975">
        <ele>1412.63</ele>
        <time>2016-02-21T08:01:15Z</time>
      </trkpt>
      <trkpt lat="45.60365" lon="6.89983">
        <ele>1413.55</ele>
        <time>2016-02-21T08:01:22Z</time>
      </trkpt>
      <trkpt lat="45.60365" lon="6.89986">
        <ele>1413.82</ele>
        <time>2016-02-21T08:01:24Z</time>
      </trkpt>
      <trkpt lat="45.60366" lon="6.8999">
        <ele>1414.17</ele>
        <time>2016-02-21T08:01:27Z</time>
      </trkpt>
      <trkpt lat="45.60371" lon="6.9">
        <ele>1415.74</ele>
        <time>2016-02-21T08:01:36Z</time>
      </trkpt>
      <trkpt lat="45.60372" lon="6.9001">
        <ele>1416.64</ele>
        <time>2016-02-21T08:01:45Z</time>
      </trkpt>
      <trkpt lat="45.60374" lon="6.90025">
        <ele>1417.78</ele>
        <time>2016-02-21T08:01:58Z</time>
      </trkpt>
      <trkpt lat="45.60377" lon="6.90038">
        <ele>1418.62</ele>
        <time>2016-02-21T08:02:08Z</time>
      </trkpt>
      <trkpt lat="45.6038" lon="6.90046">
        <ele>1419.5</ele>
        <time>2016-02-21T08:02:15Z</time>
      </trkpt>
      <trkpt lat="45.6038" lon="6.90055">
        <ele>1420.28</ele>
        <time>2016-02-21T08:02:23Z</time>
      </trkpt>
      <trkpt lat="45.60383" lon="6.90067">
        <ele>1420.83</ele>
        <time>2016-02-21T08:02:32Z</time>
      </trkpt>
      <trkpt lat="45.60387" lon="6.90082">
        <ele>1421.75</ele>
        <time>2016-02-21T08:02:45Z</time>
      </trkpt>
      <trkpt lat="45.60389" lon="6.90098">
        <ele>1423.09</ele>
        <time>2016-02-21T08:02:57Z</time>
      </trkpt>
      <trkpt lat="45.60393" lon="6.90115">
        <ele>1424.22</ele>
        <time>2016-02-21T08:03:09Z</time>
      </trkpt>
      <trkpt lat="45.60393" lon="6.90119">
        <ele>1424.56</ele>
        <time>2016-02-21T08:03:12Z</time>
      </trkpt>
      <trkpt lat="45.60398" lon="6.90131">
        <ele>1425.5</ele>
        <time>2016-02-21T08:03:21Z</time>
      </trkpt>
      <trkpt lat="45.60399" lon="6.90136">
        <ele>1425.65</ele>
        <time>2016-02-21T08:03:25Z</time>
      </trkpt>
      <trkpt lat="45.60398" lon="6.90144">
        <ele>1426.46</ele>
        <time>2016-02-21T08:03:33Z</time>
      </trkpt>
      <trkpt lat="45.60403" lon="6.90159">
        <ele>1427.68</ele>
        <time>2016-02-21T08:03:45Z</time>
      </trkpt>
      <trkpt lat="45.60404" lon="6.90162">
        <ele>1427.87</ele>
        <time>2016-02-21T08:03:47Z</time>
      </trkpt>
      <trkpt lat="45.60407" lon="6.90178">
        <ele>1428.84</ele>
        <time>2016-02-21T08:04:00Z</time>
      </trkpt>
      <trkpt lat="45.6041" lon="6.90188">
        <ele>1429.53</ele>
        <time>2016-02-21T08:04:08Z</time>
      </trkpt>
      <trkpt lat="45.60413" lon="6.90206">
        <ele>1430.6</ele>
        <time>2016-02-21T08:04:23Z</time>
      </trkpt>
      <trkpt lat="45.60416" lon="6.90219">
        <ele>1431.63</ele>
        <time>2016-02-21T08:04:35Z</time>
      </trkpt>
      <trkpt lat="45.60416" lon="6.90238">
        <ele>1432.69</ele>
        <time>2016-02-21T08:04:48Z</time>
      </trkpt>
      <trkpt lat="45.60416" lon="6.90243">
        <ele>1432.97</ele>
        <time>2016-02-21T08:04:51Z</time>
      </trkpt>
      <trkpt lat="45.60417" lon="6.90256">
        <ele>1433.5</ele>
        <time>2016-02-21T08:04:59Z</time>
      </trkpt>
      <trkpt lat="45.60415" lon="6.90263">
        <ele>1433.57</ele>
        <time>2016-02-21T08:05:04Z</time>
      </trkpt>
      <trkpt lat="45.60417" lon="6.90273">
        <ele>1433.7</ele>
        <time>2016-02-21T08:05:11Z</time>
      </trkpt>
      <trkpt lat="45.60416" lon="6.90277">
        <ele>1433.87</ele>
        <time>2016-02-21T08:05:14Z</time>
      </trkpt>
      <trkpt lat="45.60413" lon="6.9029">
        <ele>1434.52</ele>
        <time>2016-02-21T08:05:24Z</time>
      </trkpt>
      <trkpt lat="45.60411" lon="6.90306">
        <ele>1435.06</ele>
        <time>2016-02-21T08:05:37Z</time>
      </trkpt>
      <trkpt lat="45.6041" lon="6.90311">
        <ele>1435.15</ele>
        <time>2016-02-21T08:05:40Z</time>
      </trkpt>
      <trkpt lat="45.6041" lon="6.90314">
        <ele>1435.2</ele>
        <time>2016-02-21T08:05:42Z</time>
      </trkpt>
      <trkpt lat="45.60411" lon="6.9032">
        <ele>1435.38</ele>
        <time>2016-02-21T08:05:46Z</time>
      </trkpt>
      <trkpt lat="45.60411" lon="6.90324">
        <ele>1435.57</ele>
        <time>2016-02-21T08:05:49Z</time>
      </trkpt>
      <trkpt lat="45.60411" lon="6.90338">
        <ele>1436.1</ele>
        <time>2016-02-21T08:06:00Z</time>
      </trkpt>
      <trkpt lat="45.60413" lon="6.90344">
        <ele>1436.41</ele>
        <time>2016-02-21T08:06:05Z</time>
      </trkpt>
      <trkpt lat="45.60412" lon="6.90359">
        <ele>1437.05</ele>
        <time>2016-02-21T08:06:17Z</time>
      </trkpt>
      <trkpt lat="45.60412" lon="6.90361">
        <ele>1437.07</ele>
        <time>2016-02-21T08:06:18Z</time>
      </trkpt>
      <trkpt lat="45.60412" lon="6.90363">
        <ele>1437.16</ele>
        <time>2016-02-21T08:06:20Z</time>
      </trkpt>
      <trkpt lat="45.60411" lon="6.9037">
        <ele>1437.59</ele>
        <time>2016-02-21T08:06:25Z</time>
      </trkpt>
      <trkpt lat="45.60411" lon="6.90375">
        <ele>1437.85</ele>
        <time>2016-02-21T08:06:28Z</time>
      </trkpt>
      <trkpt lat="45.60409" lon="6.90379">
        <ele>1437.96</ele>
        <time>2016-02-21T08:06:31Z</time>
      </trkpt>
      <trkpt lat="45.6041" lon="6.90383">
        <ele>1437.97</ele>
        <time>2016-02-21T08:06:33Z</time>
      </trkpt>
      <trkpt lat="45.60412" lon="6.90395">
        <ele>1438.39</ele>
        <time>2016-02-21T08:06:42Z</time>
      </trkpt>
      <trkpt lat="45.60412" lon="6.90407">
        <ele>1438.68</ele>
        <time>2016-02-21T08:06:51Z</time>
      </trkpt>
      <trkpt lat="45.60411" lon="6.9042">
        <ele>1439.34</ele>
        <time>2016-02-21T08:07:00Z</time>
      </trkpt>
      <trkpt lat="45.60412" lon="6.90433">
        <ele>1439.79</ele>
        <time>2016-02-21T08:07:08Z</time>
      </trkpt>
      <trkpt lat="45.60414" lon="6.90439">
        <ele>1440.11</ele>
        <time>2016-02-21T08:07:13Z</time>
      </trkpt>
      <trkpt lat="45.60416" lon="6.90451">
        <ele>1440.59</ele>
        <time>2016-02-21T08:07:23Z</time>
      </trkpt>
      <trkpt lat="45.60418" lon="6.90457">
        <ele>1441.2</ele>
        <time>2016-02-21T08:07:28Z</time>
      </trkpt>
      <trkpt lat="45.60423" lon="6.90468">
        <ele>1442.48</ele>
        <time>2016-02-21T08:07:38Z</time>
      </trkpt>
      <trkpt lat="45.60423" lon="6.90473">
        <ele>1442.75</ele>
        <time>2016-02-21T08:07:42Z</time>
      </trkpt>
      <trkpt lat="45.60424" lon="6.90477">
        <ele>1442.98</ele>
        <time>2016-02-21T08:07:45Z</time>
      </trkpt>
      <trkpt lat="45.60425" lon="6.90486">
        <ele>1443.5</ele>
        <time>2016-02-21T08:07:53Z</time>
      </trkpt>
      <trkpt lat="45.60426" lon="6.90492">
        <ele>1443.66</ele>
        <time>2016-02-21T08:07:58Z</time>
      </trkpt>
      <trkpt lat="45.60426" lon="6.90496">
        <ele>1443.84</ele>
        <time>2016-02-21T08:08:01Z</time>
      </trkpt>
      <trkpt lat="45.60427" lon="6.90507">
        <ele>1444.55</ele>
        <time>2016-02-21T08:08:10Z</time>
      </trkpt>
      <trkpt lat="45.60427" lon="6.90511">
        <ele>1444.73</ele>
        <time>2016-02-21T08:08:13Z</time>
      </trkpt>
      <trkpt lat="45.60427" lon="6.90517">
        <ele>1444.97</ele>
        <time>2016-02-21T08:08:18Z</time>
      </trkpt>
      <trkpt lat="45.60426" lon="6.90523">
        <ele>1445.29</ele>
        <time>2016-02-21T08:08:23Z</time>
      </trkpt>
      <trkpt lat="45.60427" lon="6.90533">
        <ele>1445.81</ele>
        <time>2016-02-21T08:08:33Z</time>
      </trkpt>
      <trkpt lat="45.60427" lon="6.9054">
        <ele>1445.93</ele>
        <time>2016-02-21T08:08:39Z</time>
      </trkpt>
      <trkpt lat="45.6043" lon="6.90549">
        <ele>1446.37</ele>
        <time>2016-02-21T08:08:47Z</time>
      </trkpt>
      <trkpt lat="45.60432" lon="6.90557">
        <ele>1446.68</ele>
        <time>2016-02-21T08:08:53Z</time>
      </trkpt>
      <trkpt lat="45.60433" lon="6.90562">
        <ele>1446.64</ele>
        <time>2016-02-21T08:08:57Z</time>
      </trkpt>
      <trkpt lat="45.60434" lon="6.90569">
        <ele>1446.92</ele>
        <time>2016-02-21T08:09:02Z</time>
      </trkpt>
      <trkpt lat="45.60437" lon="6.90579">
        <ele>1446.88</ele>
        <time>2016-02-21T08:09:09Z</time>
      </trkpt>
      <trkpt lat="45.60437" lon="6.90583">
        <ele>1446.99</ele>
        <time>2016-02-21T08:09:12Z</time>
      </trkpt>
      <trkpt lat="45.6044" lon="6.90596">
        <ele>1446.84</ele>
        <time>2016-02-21T08:09:22Z</time>
      </trkpt>
      <trkpt lat="45.60438" lon="6.90606">
        <ele>1447.1</ele>
        <time>2016-02-21T08:09:29Z</time>
      </trkpt>
      <trkpt lat="45.60437" lon="6.90619">
        <ele>1447.61</ele>
        <time>2016-02-21T08:09:37Z</time>
      </trkpt>
      <trkpt lat="45.60438" lon="6.90623">
        <ele>1447.77</ele>
        <time>2016-02-21T08:09:39Z</time>
      </trkpt>
      <trkpt lat="45.60438" lon="6.90627">
        <ele>1447.92</ele>
        <time>2016-02-21T08:09:42Z</time>
      </trkpt>
      <trkpt lat="45.60438" lon="6.9063">
        <ele>1447.96</ele>
        <time>2016-02-21T08:09:44Z</time>
      </trkpt>
      <trkpt lat="45.60436" lon="6.9064">
        <ele>1447.97</ele>
        <time>2016-02-21T08:09:54Z</time>
      </trkpt>
      <trkpt lat="45.60434" lon="6.90655">
        <ele>1448.58</ele>
        <time>2016-02-21T08:10:07Z</time>
      </trkpt>
      <trkpt lat="45.60434" lon="6.90677">
        <ele>1449.28</ele>
        <time>2016-02-21T08:10:22Z</time>
      </trkpt>
      <trkpt lat="45.60441" lon="6.90699">
        <ele>1450.05</ele>
        <time>2016-02-21T08:10:36Z</time>
      </trkpt>
      <trkpt lat="45.60442" lon="6.90702">
        <ele>1450.16</ele>
        <time>2016-02-21T08:10:38Z</time>
      </trkpt>
      <trkpt lat="45.60443" lon="6.90706">
        <ele>1450.64</ele>
        <time>2016-02-21T08:10:41Z</time>
      </trkpt>
      <trkpt lat="45.60444" lon="6.90711">
        <ele>1450.83</ele>
        <time>2016-02-21T08:10:45Z</time>
      </trkpt>
      <trkpt lat="45.60445" lon="6.90715">
        <ele>1450.93</ele>
        <time>2016-02-21T08:10:48Z</time>
      </trkpt>
      <trkpt lat="45.60447" lon="6.90727">
        <ele>1451.36</ele>
        <time>2016-02-21T08:10:57Z</time>
      </trkpt>
      <trkpt lat="45.60448" lon="6.9073">
        <ele>1451.5</ele>
        <time>2016-02-21T08:10:59Z</time>
      </trkpt>
      <trkpt lat="45.60449" lon="6.90733">
        <ele>1451.58</ele>
        <time>2016-02-21T08:11:01Z</time>
      </trkpt>
      <trkpt lat="45.6045" lon="6.90737">
        <ele>1451.64</ele>
        <time>2016-02-21T08:11:04Z</time>
      </trkpt>
      <trkpt lat="45.60452" lon="6.90741">
        <ele>1451.75</ele>
        <time>2016-02-21T08:11:07Z</time>
      </trkpt>
      <trkpt lat="45.60453" lon="6.90746">
        <ele>1451.89</ele>
        <time>2016-02-21T08:11:10Z</time>
      </trkpt>
      <trkpt lat="45.60456" lon="6.90753">
        <ele>1452.23</ele>
        <time>2016-02-21T08:11:16Z</time>
      </trkpt>
      <trkpt lat="45.60458" lon="6.90758">
        <ele>1452.47</ele>
        <time>2016-02-21T08:11:20Z</time>
      </trkpt>
      <trkpt lat="45.60462" lon="6.90768">
        <ele>1452.78</ele>
        <time>2016-02-21T08:11:28Z</time>
      </trkpt>
      <trkpt lat="45.60466" lon="6.90778">
        <ele>1453.27</ele>
        <time>2016-02-21T08:11:37Z</time>
      </trkpt>
      <trkpt lat="45.60467" lon="6.90781">
        <ele>1453.33</ele>
        <time>2016-02-21T08:11:39Z</time>
      </trkpt>
      <trkpt lat="45.60473" lon="6.90788">
        <ele>1453.95</ele>
        <time>2016-02-21T08:11:47Z</time>
      </trkpt>
      <trkpt lat="45.60478" lon="6.90797">
        <ele>1454.21</ele>
        <time>2016-02-21T08:11:56Z</time>
      </trkpt>
      <trkpt lat="45.60482" lon="6.90806">
        <ele>1454.68</ele>
        <time>2016-02-21T08:12:05Z</time>
      </trkpt>
      <trkpt lat="45.60489" lon="6.90815">
        <ele>1456.02</ele>
        <time>2016-02-21T08:12:16Z</time>
      </trkpt>
      <trkpt lat="45.60495" lon="6.90823">
        <ele>1456.95</ele>
        <time>2016-02-21T08:12:26Z</time>
      </trkpt>
      <trkpt lat="45.60502" lon="6.90833">
        <ele>1458.09</ele>
        <time>2016-02-21T08:12:39Z</time>
      </trkpt>
      <trkpt lat="45.60511" lon="6.90842">
        <ele>1458.96</ele>
        <time>2016-02-21T08:12:49Z</time>
      </trkpt>
      <trkpt lat="45.60519" lon="6.9085">
        <ele>1459.59</ele>
        <time>2016-02-21T08:12:59Z</time>
      </trkpt>
      <trkpt lat="45.60527" lon="6.90859">
        <ele>1459.77</ele>
        <time>2016-02-21T08:13:12Z</time>
      </trkpt>
      <trkpt lat="45.60535" lon="6.90868">
        <ele>1460.66</ele>
        <time>2016-02-21T08:13:23Z</time>
      </trkpt>
      <trkpt lat="45.60543" lon="6.90878">
        <ele>1461.22</ele>
        <time>2016-02-21T08:13:34Z</time>
      </trkpt>
      <trkpt lat="45.6055" lon="6.90886">
        <ele>1462.07</ele>
        <time>2016-02-21T08:13:44Z</time>
      </trkpt>
      <trkpt lat="45.6056" lon="6.90896">
        <ele>1463.05</ele>
        <time>2016-02-21T08:13:57Z</time>
      </trkpt>
      <trkpt lat="45.6057" lon="6.90905">
        <ele>1464.81</ele>
        <time>2016-02-21T08:14:11Z</time>
      </trkpt>
      <trkpt lat="45.60578" lon="6.90914">
        <ele>1466.44</ele>
        <time>2016-02-21T08:14:24Z</time>
      </trkpt>
      <trkpt lat="45.60587" lon="6.90925">
        <ele>1468.32</ele>
        <time>2016-02-21T08:14:37Z</time>
      </trkpt>
      <trkpt lat="45.60594" lon="6.90937">
        <ele>1469.94</ele>
        <time>2016-02-21T08:14:50Z</time>
      </trkpt>
      <trkpt lat="45.60599" lon="6.90946">
        <ele>1471.63</ele>
        <time>2016-02-21T08:15:01Z</time>
      </trkpt>
      <trkpt lat="45.60606" lon="6.90957">
        <ele>1473.35</ele>
        <time>2016-02-21T08:15:14Z</time>
      </trkpt>
      <trkpt lat="45.60607" lon="6.90959">
        <ele>1473.66</ele>
        <time>2016-02-21T08:15:16Z</time>
      </trkpt>
      <trkpt lat="45.60609" lon="6.90965">
        <ele>1474.17</ele>
        <time>2016-02-21T08:15:21Z</time>
      </trkpt>
      <trkpt lat="45.60614" lon="6.90974">
        <ele>1475.2</ele>
        <time>2016-02-21T08:15:30Z</time>
      </trkpt>
      <trkpt lat="45.60614" lon="6.90975">
        <ele>1475.3</ele>
        <time>2016-02-21T08:15:31Z</time>
      </trkpt>
      <trkpt lat="45.60619" lon="6.90984">
        <ele>1476.45</ele>
        <time>2016-02-21T08:15:41Z</time>
      </trkpt>
      <trkpt lat="45.60624" lon="6.90997">
        <ele>1477.8</ele>
        <time>2016-02-21T08:15:53Z</time>
      </trkpt>
      <trkpt lat="45.60629" lon="6.91008">
        <ele>1479.41</ele>
        <time>2016-02-21T08:16:06Z</time>
      </trkpt>
      <trkpt lat="45.60633" lon="6.91018">
        <ele>1480.57</ele>
        <time>2016-02-21T08:16:16Z</time>
      </trkpt>
      <trkpt lat="45.60633" lon="6.91024">
        <ele>1481.27</ele>
        <time>2016-02-21T08:16:22Z</time>
      </trkpt>
      <trkpt lat="45.60635" lon="6.91037">
        <ele>1482.84</ele>
        <time>2016-02-21T08:16:35Z</time>
      </trkpt>
      <trkpt lat="45.60639" lon="6.91049">
        <ele>1484.3</ele>
        <time>2016-02-21T08:16:46Z</time>
      </trkpt>
      <trkpt lat="45.60642" lon="6.91061">
        <ele>1485.81</ele>
        <time>2016-02-21T08:16:57Z</time>
      </trkpt>
      <trkpt lat="45.60645" lon="6.91069">
        <ele>1486.64</ele>
        <time>2016-02-21T08:17:05Z</time>
      </trkpt>
      <trkpt lat="45.6065" lon="6.9108">
        <ele>1487.72</ele>
        <time>2016-02-21T08:17:16Z</time>
      </trkpt>
      <trkpt lat="45.60652" lon="6.91087">
        <ele>1488.79</ele>
        <time>2016-02-21T08:17:23Z</time>
      </trkpt>
      <trkpt lat="45.60656" lon="6.91099">
        <ele>1490.06</ele>
        <time>2016-02-21T08:17:33Z</time>
      </trkpt>
      <trkpt lat="45.60659" lon="6.91108">
        <ele>1490.86</ele>
        <time>2016-02-21T08:17:41Z</time>
      </trkpt>
      <trkpt lat="45.60663" lon="6.91123">
        <ele>1492.08</ele>
        <time>2016-02-21T08:17:53Z</time>
      </trkpt>
      <trkpt lat="45.60667" lon="6.91132">
        <ele>1492.94</ele>
        <time>2016-02-21T08:18:02Z</time>
      </trkpt>
      <trkpt lat="45.60671" lon="6.91143">
        <ele>1494.44</ele>
        <time>2016-02-21T08:18:13Z</time>
      </trkpt>
      <trkpt lat="45.60673" lon="6.9115">
        <ele>1495.19</ele>
        <time>2016-02-21T08:18:19Z</time>
      </trkpt>
      <trkpt lat="45.60677" lon="6.91161">
        <ele>1496.54</ele>
        <time>2016-02-21T08:18:31Z</time>
      </trkpt>
      <trkpt lat="45.60681" lon="6.91172">
        <ele>1497.8</ele>
        <time>2016-02-21T08:18:42Z</time>
      </trkpt>
      <trkpt lat="45.60685" lon="6.91183">
        <ele>1499.08</ele>
        <time>2016-02-21T08:18:54Z</time>
      </trkpt>
      <trkpt lat="45.60689" lon="6.91193">
        <ele>1500.27</ele>
        <time>2016-02-21T08:19:04Z</time>
      </trkpt>
      <trkpt lat="45.60693" lon="6.91205">
        <ele>1501.71</ele>
        <time>2016-02-21T08:19:15Z</time>
      </trkpt>
      <trkpt lat="45.60696" lon="6.91215">
        <ele>1503.09</ele>
        <time>2016-02-21T08:19:26Z</time>
      </trkpt>
      <trkpt lat="45.60701" lon="6.91225">
        <ele>1504.42</ele>
        <time>2016-02-21T08:19:36Z</time>
      </trkpt>
      <trkpt lat="45.60701" lon="6.91227">
        <ele>1504.63</ele>
        <time>2016-02-21T08:19:38Z</time>
      </trkpt>
      <trkpt lat="45.60706" lon="6.91235">
        <ele>1505.46</ele>
        <time>2016-02-21T08:19:47Z</time>
      </trkpt>
      <trkpt lat="45.60711" lon="6.91249">
        <ele>1507.32</ele>
        <time>2016-02-21T08:20:00Z</time>
      </trkpt>
      <trkpt lat="45.60713" lon="6.91265">
        <ele>1508.14</ele>
        <time>2016-02-21T08:20:12Z</time>
      </trkpt>
      <trkpt lat="45.60714" lon="6.91282">
        <ele>1509.08</ele>
        <time>2016-02-21T08:20:26Z</time>
      </trkpt>
      <trkpt lat="45.60715" lon="6.91294">
        <ele>1510.01</ele>
        <time>2016-02-21T08:20:34Z</time>
      </trkpt>
      <trkpt lat="45.60714" lon="6.91308">
        <ele>1510.78</ele>
        <time>2016-02-21T08:20:45Z</time>
      </trkpt>
      <trkpt lat="45.60714" lon="6.9132">
        <ele>1511.3</ele>
        <time>2016-02-21T08:20:54Z</time>
      </trkpt>
      <trkpt lat="45.60715" lon="6.91323">
        <ele>1511.44</ele>
        <time>2016-02-21T08:20:56Z</time>
      </trkpt>
      <trkpt lat="45.60717" lon="6.91333">
        <ele>1511.74</ele>
        <time>2016-02-21T08:21:03Z</time>
      </trkpt>
      <trkpt lat="45.60719" lon="6.91343">
        <ele>1512.25</ele>
        <time>2016-02-21T08:21:11Z</time>
      </trkpt>
      <trkpt lat="45.60719" lon="6.91345">
        <ele>1512.31</ele>
        <time>2016-02-21T08:21:12Z</time>
      </trkpt>
      <trkpt lat="45.60719" lon="6.91347">
        <ele>1512.43</ele>
        <time>2016-02-21T08:21:14Z</time>
      </trkpt>
      <trkpt lat="45.60721" lon="6.91356">
        <ele>1512.66</ele>
        <time>2016-02-21T08:21:21Z</time>
      </trkpt>
      <trkpt lat="45.60721" lon="6.91367">
        <ele>1512.66</ele>
        <time>2016-02-21T08:21:30Z</time>
      </trkpt>
      <trkpt lat="45.60725" lon="6.91381">
        <ele>1512.99</ele>
        <time>2016-02-21T08:21:42Z</time>
      </trkpt>
      <trkpt lat="45.60727" lon="6.91395">
        <ele>1513.44</ele>
        <time>2016-02-21T08:21:58Z</time>
      </trkpt>
      <trkpt lat="45.60726" lon="6.91407">
        <ele>1513.92</ele>
        <time>2016-02-21T08:22:11Z</time>
      </trkpt>
      <trkpt lat="45.60729" lon="6.91407">
        <ele>1514.31</ele>
        <time>2016-02-21T08:22:29Z</time>
      </trkpt>
      <trkpt lat="45.60731" lon="6.91409">
        <ele>1513.85</ele>
        <time>2016-02-21T08:22:51Z</time>
      </trkpt>
      <trkpt lat="45.60726" lon="6.91413">
        <ele>1513.66</ele>
        <time>2016-02-21T08:23:15Z</time>
      </trkpt>
      <trkpt lat="45.60725" lon="6.91414">
        <ele>1513.91</ele>
        <time>2016-02-21T08:23:42Z</time>
      </trkpt>
      <trkpt lat="45.60726" lon="6.91413">
        <ele>1513.43</ele>
        <time>2016-02-21T08:24:10Z</time>
      </trkpt>
      <trkpt lat="45.60725" lon="6.91412">
        <ele>1513.28</ele>
        <time>2016-02-21T08:24:41Z</time>
      </trkpt>
      <trkpt lat="45.60724" lon="6.91415">
        <ele>1513.51</ele>
        <time>2016-02-21T08:25:02Z</time>
      </trkpt>
      <trkpt lat="45.60723" lon="6.91418">
        <ele>1513.72</ele>
        <time>2016-02-21T08:25:06Z</time>
      </trkpt>
      <trkpt lat="45.60722" lon="6.91419">
        <ele>1513.73</ele>
        <time>2016-02-21T08:25:07Z</time>
      </trkpt>
      <trkpt lat="45.60721" lon="6.91426">
        <ele>1514.73</ele>
        <time>2016-02-21T08:25:16Z</time>
      </trkpt>
      <trkpt lat="45.60723" lon="6.91436">
        <ele>1516.94</ele>
        <time>2016-02-21T08:25:32Z</time>
      </trkpt>
      <trkpt lat="45.60723" lon="6.91444">
        <ele>1517.8</ele>
        <time>2016-02-21T08:25:48Z</time>
      </trkpt>
      <trkpt lat="45.60722" lon="6.91452">
        <ele>1519.08</ele>
        <time>2016-02-21T08:25:57Z</time>
      </trkpt>
      <trkpt lat="45.6072" lon="6.91466">
        <ele>1521.19</ele>
        <time>2016-02-21T08:26:11Z</time>
      </trkpt>
      <trkpt lat="45.60718" lon="6.91479">
        <ele>1522.21</ele>
        <time>2016-02-21T08:26:22Z</time>
      </trkpt>
      <trkpt lat="45.60718" lon="6.91491">
        <ele>1523.58</ele>
        <time>2016-02-21T08:26:33Z</time>
      </trkpt>
      <trkpt lat="45.60722" lon="6.91504">
        <ele>1525.12</ele>
        <time>2016-02-21T08:26:46Z</time>
      </trkpt>
      <trkpt lat="45.60724" lon="6.91515">
        <ele>1527.37</ele>
        <time>2016-02-21T08:26:59Z</time>
      </trkpt>
      <trkpt lat="45.60727" lon="6.91526">
        <ele>1530.09</ele>
        <time>2016-02-21T08:27:13Z</time>
      </trkpt>
      <trkpt lat="45.60729" lon="6.91534">
        <ele>1531.63</ele>
        <time>2016-02-21T08:27:20Z</time>
      </trkpt>
      <trkpt lat="45.6073" lon="6.91542">
        <ele>1532.74</ele>
        <time>2016-02-21T08:27:28Z</time>
      </trkpt>
      <trkpt lat="45.60728" lon="6.91553">
        <ele>1533.68</ele>
        <time>2016-02-21T08:27:37Z</time>
      </trkpt>
      <trkpt lat="45.60727" lon="6.9157">
        <ele>1534.63</ele>
        <time>2016-02-21T08:27:51Z</time>
      </trkpt>
      <trkpt lat="45.60728" lon="6.91581">
        <ele>1535.58</ele>
        <time>2016-02-21T08:28:01Z</time>
      </trkpt>
      <trkpt lat="45.6073" lon="6.91593">
        <ele>1536.93</ele>
        <time>2016-02-21T08:28:12Z</time>
      </trkpt>
      <trkpt lat="45.6073" lon="6.91594">
        <ele>1537.11</ele>
        <time>2016-02-21T08:28:13Z</time>
      </trkpt>
      <trkpt lat="45.60731" lon="6.91605">
        <ele>1538.15</ele>
        <time>2016-02-21T08:28:22Z</time>
      </trkpt>
      <trkpt lat="45.6073" lon="6.91615">
        <ele>1539.11</ele>
        <time>2016-02-21T08:28:32Z</time>
      </trkpt>
      <trkpt lat="45.60733" lon="6.91626">
        <ele>1541.17</ele>
        <time>2016-02-21T08:28:45Z</time>
      </trkpt>
      <trkpt lat="45.60726" lon="6.91634">
        <ele>1543.17</ele>
        <time>2016-02-21T08:28:59Z</time>
      </trkpt>
      <trkpt lat="45.60718" lon="6.91643">
        <ele>1546.07</ele>
        <time>2016-02-21T08:29:15Z</time>
      </trkpt>
      <trkpt lat="45.6071" lon="6.91649">
        <ele>1548.25</ele>
        <time>2016-02-21T08:29:28Z</time>
      </trkpt>
      <trkpt lat="45.60704" lon="6.91657">
        <ele>1549.65</ele>
        <time>2016-02-21T08:29:42Z</time>
      </trkpt>
      <trkpt lat="45.607" lon="6.9166">
        <ele>1550.66</ele>
        <time>2016-02-21T08:29:50Z</time>
      </trkpt>
      <trkpt lat="45.60691" lon="6.91668">
        <ele>1552.65</ele>
        <time>2016-02-21T08:30:06Z</time>
      </trkpt>
      <trkpt lat="45.60683" lon="6.91678">
        <ele>1555.13</ele>
        <time>2016-02-21T08:30:20Z</time>
      </trkpt>
      <trkpt lat="45.60677" lon="6.91683">
        <ele>1557.29</ele>
        <time>2016-02-21T08:30:34Z</time>
      </trkpt>
      <trkpt lat="45.60674" lon="6.91691">
        <ele>1559.56</ele>
        <time>2016-02-21T08:30:48Z</time>
      </trkpt>
      <trkpt lat="45.60665" lon="6.91698">
        <ele>1561.66</ele>
        <time>2016-02-21T08:31:03Z</time>
      </trkpt>
      <trkpt lat="45.60659" lon="6.91706">
        <ele>1563.23</ele>
        <time>2016-02-21T08:31:16Z</time>
      </trkpt>
      <trkpt lat="45.60656" lon="6.91719">
        <ele>1565.06</ele>
        <time>2016-02-21T08:31:30Z</time>
      </trkpt>
      <trkpt lat="45.60653" lon="6.91729">
        <ele>1566.81</ele>
        <time>2016-02-21T08:31:41Z</time>
      </trkpt>
      <trkpt lat="45.60655" lon="6.91742">
        <ele>1568.22</ele>
        <time>2016-02-21T08:31:53Z</time>
      </trkpt>
      <trkpt lat="45.60655" lon="6.91754">
        <ele>1568.87</ele>
        <time>2016-02-21T08:32:03Z</time>
      </trkpt>
      <trkpt lat="45.60649" lon="6.91769">
        <ele>1569.73</ele>
        <time>2016-02-21T08:32:18Z</time>
      </trkpt>
      <trkpt lat="45.60645" lon="6.91779">
        <ele>1570.4</ele>
        <time>2016-02-21T08:32:27Z</time>
      </trkpt>
      <trkpt lat="45.60639" lon="6.91784">
        <ele>1572.01</ele>
        <time>2016-02-21T08:32:41Z</time>
      </trkpt>
      <trkpt lat="45.60632" lon="6.91796">
        <ele>1573.54</ele>
        <time>2016-02-21T08:32:55Z</time>
      </trkpt>
      <trkpt lat="45.6063" lon="6.91807">
        <ele>1575.73</ele>
        <time>2016-02-21T08:33:09Z</time>
      </trkpt>
      <trkpt lat="45.60626" lon="6.91812">
        <ele>1576.52</ele>
        <time>2016-02-21T08:33:14Z</time>
      </trkpt>
      <trkpt lat="45.60625" lon="6.91813">
        <ele>1576.64</ele>
        <time>2016-02-21T08:33:15Z</time>
      </trkpt>
      <trkpt lat="45.60624" lon="6.91814">
        <ele>1576.75</ele>
        <time>2016-02-21T08:33:16Z</time>
      </trkpt>
      <trkpt lat="45.60617" lon="6.91823">
        <ele>1578.33</ele>
        <time>2016-02-21T08:33:29Z</time>
      </trkpt>
      <trkpt lat="45.6061" lon="6.91832">
        <ele>1580.59</ele>
        <time>2016-02-21T08:33:43Z</time>
      </trkpt>
      <trkpt lat="45.60605" lon="6.9184">
        <ele>1582.47</ele>
        <time>2016-02-21T08:33:56Z</time>
      </trkpt>
      <trkpt lat="45.60598" lon="6.91849">
        <ele>1584.22</ele>
        <time>2016-02-21T08:34:09Z</time>
      </trkpt>
      <trkpt lat="45.60592" lon="6.91858">
        <ele>1585.86</ele>
        <time>2016-02-21T08:34:20Z</time>
      </trkpt>
      <trkpt lat="45.60587" lon="6.91863">
        <ele>1587.35</ele>
        <time>2016-02-21T08:34:30Z</time>
      </trkpt>
      <trkpt lat="45.60587" lon="6.91867">
        <ele>1589.12</ele>
        <time>2016-02-21T08:34:44Z</time>
      </trkpt>
      <trkpt lat="45.60581" lon="6.91876">
        <ele>1590.98</ele>
        <time>2016-02-21T08:34:56Z</time>
      </trkpt>
      <trkpt lat="45.6057" lon="6.91889">
        <ele>1592.23</ele>
        <time>2016-02-21T08:35:10Z</time>
      </trkpt>
      <trkpt lat="45.60569" lon="6.91898">
        <ele>1593.48</ele>
        <time>2016-02-21T08:35:22Z</time>
      </trkpt>
      <trkpt lat="45.60568" lon="6.91911">
        <ele>1595.05</ele>
        <time>2016-02-21T08:35:34Z</time>
      </trkpt>
      <trkpt lat="45.60564" lon="6.91919">
        <ele>1595.73</ele>
        <time>2016-02-21T08:35:40Z</time>
      </trkpt>
      <trkpt lat="45.60561" lon="6.91929">
        <ele>1596.48</ele>
        <time>2016-02-21T08:35:49Z</time>
      </trkpt>
      <trkpt lat="45.60558" lon="6.91937">
        <ele>1598.13</ele>
        <time>2016-02-21T08:36:01Z</time>
      </trkpt>
      <trkpt lat="45.60553" lon="6.91951">
        <ele>1599.81</ele>
        <time>2016-02-21T08:36:14Z</time>
      </trkpt>
      <trkpt lat="45.60549" lon="6.91958">
        <ele>1601.57</ele>
        <time>2016-02-21T08:36:25Z</time>
      </trkpt>
      <trkpt lat="45.60545" lon="6.91963">
        <ele>1603.41</ele>
        <time>2016-02-21T08:36:37Z</time>
      </trkpt>
      <trkpt lat="45.60547" lon="6.91966">
        <ele>1604.07</ele>
        <time>2016-02-21T08:36:45Z</time>
      </trkpt>
      <trkpt lat="45.60544" lon="6.91973">
        <ele>1606.34</ele>
        <time>2016-02-21T08:37:01Z</time>
      </trkpt>
      <trkpt lat="45.60537" lon="6.91981">
        <ele>1608.99</ele>
        <time>2016-02-21T08:37:18Z</time>
      </trkpt>
      <trkpt lat="45.60534" lon="6.91989">
        <ele>1610.78</ele>
        <time>2016-02-21T08:37:30Z</time>
      </trkpt>
      <trkpt lat="45.60533" lon="6.91994">
        <ele>1611.51</ele>
        <time>2016-02-21T08:37:37Z</time>
      </trkpt>
      <trkpt lat="45.60522" lon="6.92003">
        <ele>1613.32</ele>
        <time>2016-02-21T08:37:52Z</time>
      </trkpt>
      <trkpt lat="45.60521" lon="6.92013">
        <ele>1615.12</ele>
        <time>2016-02-21T08:38:08Z</time>
      </trkpt>
      <trkpt lat="45.60514" lon="6.92026">
        <ele>1616.43</ele>
        <time>2016-02-21T08:38:24Z</time>
      </trkpt>
      <trkpt lat="45.60509" lon="6.92037">
        <ele>1617.41</ele>
        <time>2016-02-21T08:38:34Z</time>
      </trkpt>
      <trkpt lat="45.60506" lon="6.92044">
        <ele>1619.11</ele>
        <time>2016-02-21T08:38:49Z</time>
      </trkpt>
      <trkpt lat="45.60509" lon="6.92054">
        <ele>1620.49</ele>
        <time>2016-02-21T08:39:04Z</time>
      </trkpt>
      <trkpt lat="45.60505" lon="6.92072">
        <ele>1622.77</ele>
        <time>2016-02-21T08:39:23Z</time>
      </trkpt>
      <trkpt lat="45.60507" lon="6.92096">
        <ele>1624.69</ele>
        <time>2016-02-21T08:39:39Z</time>
      </trkpt>
      <trkpt lat="45.60502" lon="6.92112">
        <ele>1625.76</ele>
        <time>2016-02-21T08:39:55Z</time>
      </trkpt>
      <trkpt lat="45.60501" lon="6.92113">
        <ele>1625.9</ele>
        <time>2016-02-21T08:39:56Z</time>
      </trkpt>
      <trkpt lat="45.605" lon="6.92113">
        <ele>1626.05</ele>
        <time>2016-02-21T08:39:57Z</time>
      </trkpt>
      <trkpt lat="45.60499" lon="6.92114">
        <ele>1626.2</ele>
        <time>2016-02-21T08:39:58Z</time>
      </trkpt>
      <trkpt lat="45.60499" lon="6.92128">
        <ele>1628.4</ele>
        <time>2016-02-21T08:40:12Z</time>
      </trkpt>
      <trkpt lat="45.60497" lon="6.92143">
        <ele>1629.96</ele>
        <time>2016-02-21T08:40:26Z</time>
      </trkpt>
      <trkpt lat="45.60494" lon="6.92153">
        <ele>1631.6</ele>
        <time>2016-02-21T08:40:42Z</time>
      </trkpt>
      <trkpt lat="45.60491" lon="6.92162">
        <ele>1633.58</ele>
        <time>2016-02-21T08:40:56Z</time>
      </trkpt>
      <trkpt lat="45.60487" lon="6.92175">
        <ele>1635.61</ele>
        <time>2016-02-21T08:41:09Z</time>
      </trkpt>
      <trkpt lat="45.60486" lon="6.92185">
        <ele>1636.83</ele>
        <time>2016-02-21T08:41:21Z</time>
      </trkpt>
      <trkpt lat="45.60479" lon="6.92194">
        <ele>1638.39</ele>
        <time>2016-02-21T08:41:34Z</time>
      </trkpt>
      <trkpt lat="45.60478" lon="6.92206">
        <ele>1640.5</ele>
        <time>2016-02-21T08:41:48Z</time>
      </trkpt>
      <trkpt lat="45.60473" lon="6.92218">
        <ele>1642.26</ele>
        <time>2016-02-21T08:42:03Z</time>
      </trkpt>
      <trkpt lat="45.6047" lon="6.92231">
        <ele>1643.65</ele>
        <time>2016-02-21T08:42:17Z</time>
      </trkpt>
      <trkpt lat="45.60469" lon="6.92231">
        <ele>1643.74</ele>
        <time>2016-02-21T08:42:18Z</time>
      </trkpt>
      <trkpt lat="45.60468" lon="6.92232">
        <ele>1643.8</ele>
        <time>2016-02-21T08:42:19Z</time>
      </trkpt>
      <trkpt lat="45.60467" lon="6.92249">
        <ele>1645.79</ele>
        <time>2016-02-21T08:42:35Z</time>
      </trkpt>
      <trkpt lat="45.60469" lon="6.92269">
        <ele>1647.98</ele>
        <time>2016-02-21T08:42:53Z</time>
      </trkpt>
      <trkpt lat="45.60471" lon="6.92283">
        <ele>1650.08</ele>
        <time>2016-02-21T08:43:06Z</time>
      </trkpt>
      <trkpt lat="45.6047" lon="6.92299">
        <ele>1652.5</ele>
        <time>2016-02-21T08:43:21Z</time>
      </trkpt>
      <trkpt lat="45.60466" lon="6.92314">
        <ele>1654.55</ele>
        <time>2016-02-21T08:43:35Z</time>
      </trkpt>
      <trkpt lat="45.60459" lon="6.9233">
        <ele>1657.64</ele>
        <time>2016-02-21T08:43:50Z</time>
      </trkpt>
      <trkpt lat="45.60458" lon="6.92348">
        <ele>1659.78</ele>
        <time>2016-02-21T08:44:04Z</time>
      </trkpt>
      <trkpt lat="45.60455" lon="6.92362">
        <ele>1661.14</ele>
        <time>2016-02-21T08:44:16Z</time>
      </trkpt>
      <trkpt lat="45.60452" lon="6.92378">
        <ele>1662.89</ele>
        <time>2016-02-21T08:44:30Z</time>
      </trkpt>
      <trkpt lat="45.60448" lon="6.92394">
        <ele>1664.32</ele>
        <time>2016-02-21T08:44:43Z</time>
      </trkpt>
      <trkpt lat="45.60447" lon="6.92412">
        <ele>1666.58</ele>
        <time>2016-02-21T08:44:57Z</time>
      </trkpt>
      <trkpt lat="45.60443" lon="6.92428">
        <ele>1668.27</ele>
        <time>2016-02-21T08:45:11Z</time>
      </trkpt>
      <trkpt lat="45.60438" lon="6.92443">
        <ele>1670.58</ele>
        <time>2016-02-21T08:45:25Z</time>
      </trkpt>
      <trkpt lat="45.60434" lon="6.92458">
        <ele>1672.05</ele>
        <time>2016-02-21T08:45:37Z</time>
      </trkpt>
      <trkpt lat="45.60432" lon="6.92468">
        <ele>1673.43</ele>
        <time>2016-02-21T08:45:46Z</time>
      </trkpt>
      <trkpt lat="45.60435" lon="6.9248">
        <ele>1675.15</ele>
        <time>2016-02-21T08:45:58Z</time>
      </trkpt>
      <trkpt lat="45.60444" lon="6.92492">
        <ele>1677.74</ele>
        <time>2016-02-21T08:46:13Z</time>
      </trkpt>
      <trkpt lat="45.60444" lon="6.92506">
        <ele>1679.57</ele>
        <time>2016-02-21T08:46:25Z</time>
      </trkpt>
      <trkpt lat="45.60445" lon="6.92522">
        <ele>1682.02</ele>
        <time>2016-02-21T08:46:39Z</time>
      </trkpt>
      <trkpt lat="45.60448" lon="6.92537">
        <ele>1684.81</ele>
        <time>2016-02-21T08:46:54Z</time>
      </trkpt>
      <trkpt lat="45.60453" lon="6.92551">
        <ele>1687.12</ele>
        <time>2016-02-21T08:47:09Z</time>
      </trkpt>
      <trkpt lat="45.6046" lon="6.92564">
        <ele>1689.27</ele>
        <time>2016-02-21T08:47:24Z</time>
      </trkpt>
      <trkpt lat="45.60467" lon="6.92577">
        <ele>1691.02</ele>
        <time>2016-02-21T08:47:38Z</time>
      </trkpt>
      <trkpt lat="45.60471" lon="6.92593">
        <ele>1693.23</ele>
        <time>2016-02-21T08:47:53Z</time>
      </trkpt>
      <trkpt lat="45.60477" lon="6.92613">
        <ele>1696.08</ele>
        <time>2016-02-21T08:48:13Z</time>
      </trkpt>
      <trkpt lat="45.60481" lon="6.92632">
        <ele>1698.22</ele>
        <time>2016-02-21T08:48:31Z</time>
      </trkpt>
      <trkpt lat="45.60483" lon="6.92651">
        <ele>1700.05</ele>
        <time>2016-02-21T08:48:45Z</time>
      </trkpt>
      <trkpt lat="45.60483" lon="6.92664">
        <ele>1701.2</ele>
        <time>2016-02-21T08:48:56Z</time>
      </trkpt>
      <trkpt lat="45.60485" lon="6.9268">
        <ele>1703.73</ele>
        <time>2016-02-21T08:49:10Z</time>
      </trkpt>
      <trkpt lat="45.60484" lon="6.92686">
        <ele>1704.71</ele>
        <time>2016-02-21T08:49:16Z</time>
      </trkpt>
      <trkpt lat="45.6048" lon="6.92692">
        <ele>1705.72</ele>
        <time>2016-02-21T08:49:22Z</time>
      </trkpt>
      <trkpt lat="45.60473" lon="6.92703">
        <ele>1708.49</ele>
        <time>2016-02-21T08:49:36Z</time>
      </trkpt>
      <trkpt lat="45.60474" lon="6.92718">
        <ele>1710.53</ele>
        <time>2016-02-21T08:49:49Z</time>
      </trkpt>
      <trkpt lat="45.60471" lon="6.92728">
        <ele>1712.21</ele>
        <time>2016-02-21T08:50:00Z</time>
      </trkpt>
      <trkpt lat="45.60473" lon="6.92736">
        <ele>1713.8</ele>
        <time>2016-02-21T08:50:11Z</time>
      </trkpt>
      <trkpt lat="45.6047" lon="6.92735">
        <ele>1713.91</ele>
        <time>2016-02-21T08:50:25Z</time>
      </trkpt>
      <trkpt lat="45.60474" lon="6.92736">
        <ele>1714.42</ele>
        <time>2016-02-21T08:50:49Z</time>
      </trkpt>
      <trkpt lat="45.60472" lon="6.92746">
        <ele>1715.46</ele>
        <time>2016-02-21T08:51:01Z</time>
      </trkpt>
      <trkpt lat="45.60475" lon="6.92763">
        <ele>1718.02</ele>
        <time>2016-02-21T08:51:16Z</time>
      </trkpt>
      <trkpt lat="45.60477" lon="6.9278">
        <ele>1720.15</ele>
        <time>2016-02-21T08:51:30Z</time>
      </trkpt>
      <trkpt lat="45.60479" lon="6.92796">
        <ele>1721.78</ele>
        <time>2016-02-21T08:51:44Z</time>
      </trkpt>
      <trkpt lat="45.60479" lon="6.92811">
        <ele>1723.54</ele>
        <time>2016-02-21T08:51:56Z</time>
      </trkpt>
      <trkpt lat="45.60478" lon="6.92813">
        <ele>1723.75</ele>
        <time>2016-02-21T08:51:58Z</time>
      </trkpt>
      <trkpt lat="45.60478" lon="6.92822">
        <ele>1724.44</ele>
        <time>2016-02-21T08:52:05Z</time>
      </trkpt>
      <trkpt lat="45.60482" lon="6.92831">
        <ele>1725.59</ele>
        <time>2016-02-21T08:52:13Z</time>
      </trkpt>
      <trkpt lat="45.60481" lon="6.92841">
        <ele>1726.75</ele>
        <time>2016-02-21T08:52:22Z</time>
      </trkpt>
      <trkpt lat="45.60479" lon="6.92854">
        <ele>1728.98</ele>
        <time>2016-02-21T08:52:36Z</time>
      </trkpt>
      <trkpt lat="45.60476" lon="6.92869">
        <ele>1731.04</ele>
        <time>2016-02-21T08:52:50Z</time>
      </trkpt>
      <trkpt lat="45.60474" lon="6.92871">
        <ele>1731.32</ele>
        <time>2016-02-21T08:52:52Z</time>
      </trkpt>
      <trkpt lat="45.6047" lon="6.9288">
        <ele>1732.51</ele>
        <time>2016-02-21T08:53:01Z</time>
      </trkpt>
      <trkpt lat="45.60468" lon="6.92881">
        <ele>1732.69</ele>
        <time>2016-02-21T08:53:02Z</time>
      </trkpt>
      <trkpt lat="45.60465" lon="6.9289">
        <ele>1734.07</ele>
        <time>2016-02-21T08:53:12Z</time>
      </trkpt>
      <trkpt lat="45.60463" lon="6.92904">
        <ele>1735.6</ele>
        <time>2016-02-21T08:53:26Z</time>
      </trkpt>
      <trkpt lat="45.60461" lon="6.92906">
        <ele>1735.7</ele>
        <time>2016-02-21T08:53:28Z</time>
      </trkpt>
      <trkpt lat="45.60461" lon="6.92908">
        <ele>1735.8</ele>
        <time>2016-02-21T08:53:29Z</time>
      </trkpt>
      <trkpt lat="45.6046" lon="6.92915">
        <ele>1736.32</ele>
        <time>2016-02-21T08:53:35Z</time>
      </trkpt>
      <trkpt lat="45.60461" lon="6.92925">
        <ele>1737.3</ele>
        <time>2016-02-21T08:53:45Z</time>
      </trkpt>
      <trkpt lat="45.60457" lon="6.92941">
        <ele>1739.18</ele>
        <time>2016-02-21T08:54:00Z</time>
      </trkpt>
      <trkpt lat="45.60452" lon="6.92953">
        <ele>1741.41</ele>
        <time>2016-02-21T08:54:15Z</time>
      </trkpt>
      <trkpt lat="45.60451" lon="6.92955">
        <ele>1741.58</ele>
        <time>2016-02-21T08:54:16Z</time>
      </trkpt>
      <trkpt lat="45.60446" lon="6.92961">
        <ele>1742.94</ele>
        <time>2016-02-21T08:54:23Z</time>
      </trkpt>
      <trkpt lat="45.60445" lon="6.92962">
        <ele>1743.13</ele>
        <time>2016-02-21T08:54:24Z</time>
      </trkpt>
      <trkpt lat="45.60439" lon="6.92973">
        <ele>1745.61</ele>
        <time>2016-02-21T08:54:38Z</time>
      </trkpt>
      <trkpt lat="45.60438" lon="6.92987">
        <ele>1748.61</ele>
        <time>2016-02-21T08:54:53Z</time>
      </trkpt>
      <trkpt lat="45.60439" lon="6.92987">
        <ele>1750.23</ele>
        <time>2016-02-21T08:55:11Z</time>
      </trkpt>
      <trkpt lat="45.60437" lon="6.92991">
        <ele>1750.23</ele>
        <time>2016-02-21T08:55:32Z</time>
      </trkpt>
      <trkpt lat="45.60428" lon="6.93007">
        <ele>1750.14</ele>
        <time>2016-02-21T08:55:56Z</time>
      </trkpt>
      <trkpt lat="45.60428" lon="6.93007">
        <ele>1748.94</ele>
        <time>2016-02-21T09:09:35Z</time>
      </trkpt>
      <trkpt lat="45.60425" lon="6.93011">
        <ele>1749.4</ele>
        <time>2016-02-21T09:09:40Z</time>
      </trkpt>
      <trkpt lat="45.60423" lon="6.93012">
        <ele>1749.51</ele>
        <time>2016-02-21T09:09:41Z</time>
      </trkpt>
      <trkpt lat="45.60419" lon="6.93017">
        <ele>1750.78</ele>
        <time>2016-02-21T09:09:53Z</time>
      </trkpt>
      <trkpt lat="45.60412" lon="6.93026">
        <ele>1752.8</ele>
        <time>2016-02-21T09:10:05Z</time>
      </trkpt>
      <trkpt lat="45.60411" lon="6.93027">
        <ele>1752.95</ele>
        <time>2016-02-21T09:10:06Z</time>
      </trkpt>
      <trkpt lat="45.6041" lon="6.93037">
        <ele>1754.28</ele>
        <time>2016-02-21T09:10:16Z</time>
      </trkpt>
      <trkpt lat="45.60406" lon="6.93041">
        <ele>1754.9</ele>
        <time>2016-02-21T09:10:20Z</time>
      </trkpt>
      <trkpt lat="45.60405" lon="6.93049">
        <ele>1757.01</ele>
        <time>2016-02-21T09:10:31Z</time>
      </trkpt>
      <trkpt lat="45.604" lon="6.9306">
        <ele>1758.63</ele>
        <time>2016-02-21T09:10:43Z</time>
      </trkpt>
      <trkpt lat="45.60401" lon="6.93068">
        <ele>1759.62</ele>
        <time>2016-02-21T09:10:50Z</time>
      </trkpt>
      <trkpt lat="45.60402" lon="6.9307">
        <ele>1759.71</ele>
        <time>2016-02-21T09:10:51Z</time>
      </trkpt>
      <trkpt lat="45.60402" lon="6.93079">
        <ele>1760.8</ele>
        <time>2016-02-21T09:11:00Z</time>
      </trkpt>
      <trkpt lat="45.60401" lon="6.93089">
        <ele>1762.11</ele>
        <time>2016-02-21T09:11:11Z</time>
      </trkpt>
      <trkpt lat="45.60402" lon="6.93102">
        <ele>1763.93</ele>
        <time>2016-02-21T09:11:23Z</time>
      </trkpt>
      <trkpt lat="45.60401" lon="6.93112">
        <ele>1765.3</ele>
        <time>2016-02-21T09:11:33Z</time>
      </trkpt>
      <trkpt lat="45.604" lon="6.93122">
        <ele>1766.15</ele>
        <time>2016-02-21T09:11:42Z</time>
      </trkpt>
      <trkpt lat="45.60401" lon="6.93124">
        <ele>1766.24</ele>
        <time>2016-02-21T09:11:43Z</time>
      </trkpt>
      <trkpt lat="45.60401" lon="6.93125">
        <ele>1766.33</ele>
        <time>2016-02-21T09:11:44Z</time>
      </trkpt>
      <trkpt lat="45.60402" lon="6.93133">
        <ele>1766.94</ele>
        <time>2016-02-21T09:11:51Z</time>
      </trkpt>
      <trkpt lat="45.60403" lon="6.93144">
        <ele>1767.84</ele>
        <time>2016-02-21T09:12:00Z</time>
      </trkpt>
      <trkpt lat="45.60404" lon="6.93148">
        <ele>1768.22</ele>
        <time>2016-02-21T09:12:03Z</time>
      </trkpt>
      <trkpt lat="45.60404" lon="6.93149">
        <ele>1768.35</ele>
        <time>2016-02-21T09:12:04Z</time>
      </trkpt>
      <trkpt lat="45.60403" lon="6.93159">
        <ele>1769.19</ele>
        <time>2016-02-21T09:12:14Z</time>
      </trkpt>
      <trkpt lat="45.60403" lon="6.93168">
        <ele>1770.33</ele>
        <time>2016-02-21T09:12:24Z</time>
      </trkpt>
      <trkpt lat="45.60406" lon="6.93177">
        <ele>1771.54</ele>
        <time>2016-02-21T09:12:35Z</time>
      </trkpt>
      <trkpt lat="45.6041" lon="6.93187">
        <ele>1772.87</ele>
        <time>2016-02-21T09:12:46Z</time>
      </trkpt>
      <trkpt lat="45.60417" lon="6.93196">
        <ele>1773.64</ele>
        <time>2016-02-21T09:12:56Z</time>
      </trkpt>
      <trkpt lat="45.60424" lon="6.93206">
        <ele>1774.46</ele>
        <time>2016-02-21T09:13:06Z</time>
      </trkpt>
      <trkpt lat="45.6043" lon="6.93218">
        <ele>1775.75</ele>
        <time>2016-02-21T09:13:18Z</time>
      </trkpt>
      <trkpt lat="45.60438" lon="6.93231">
        <ele>1777.47</ele>
        <time>2016-02-21T09:13:34Z</time>
      </trkpt>
      <trkpt lat="45.60445" lon="6.93244">
        <ele>1779.51</ele>
        <time>2016-02-21T09:13:50Z</time>
      </trkpt>
      <trkpt lat="45.60449" lon="6.93258">
        <ele>1781.42</ele>
        <time>2016-02-21T09:14:05Z</time>
      </trkpt>
      <trkpt lat="45.6045" lon="6.93277">
        <ele>1783.99</ele>
        <time>2016-02-21T09:14:23Z</time>
      </trkpt>
      <trkpt lat="45.60451" lon="6.9329">
        <ele>1785.51</ele>
        <time>2016-02-21T09:14:36Z</time>
      </trkpt>
      <trkpt lat="45.60449" lon="6.93304">
        <ele>1786.78</ele>
        <time>2016-02-21T09:14:47Z</time>
      </trkpt>
      <trkpt lat="45.60453" lon="6.9332">
        <ele>1788.4</ele>
        <time>2016-02-21T09:15:01Z</time>
      </trkpt>
      <trkpt lat="45.60461" lon="6.93338">
        <ele>1789.84</ele>
        <time>2016-02-21T09:15:18Z</time>
      </trkpt>
      <trkpt lat="45.60471" lon="6.93348">
        <ele>1791.91</ele>
        <time>2016-02-21T09:15:34Z</time>
      </trkpt>
      <trkpt lat="45.60477" lon="6.93361">
        <ele>1794.03</ele>
        <time>2016-02-21T09:15:49Z</time>
      </trkpt>
      <trkpt lat="45.60486" lon="6.93376">
        <ele>1795.7</ele>
        <time>2016-02-21T09:16:04Z</time>
      </trkpt>
      <trkpt lat="45.60491" lon="6.93392">
        <ele>1797.25</ele>
        <time>2016-02-21T09:16:18Z</time>
      </trkpt>
      <trkpt lat="45.60493" lon="6.93407">
        <ele>1798.35</ele>
        <time>2016-02-21T09:16:31Z</time>
      </trkpt>
      <trkpt lat="45.60488" lon="6.93419">
        <ele>1799.72</ele>
        <time>2016-02-21T09:16:42Z</time>
      </trkpt>
      <trkpt lat="45.60477" lon="6.9343">
        <ele>1801.02</ele>
        <time>2016-02-21T09:16:54Z</time>
      </trkpt>
      <trkpt lat="45.60476" lon="6.93432">
        <ele>1801.25</ele>
        <time>2016-02-21T09:16:56Z</time>
      </trkpt>
      <trkpt lat="45.60475" lon="6.93433">
        <ele>1801.34</ele>
        <time>2016-02-21T09:16:57Z</time>
      </trkpt>
      <trkpt lat="45.60474" lon="6.93434">
        <ele>1801.44</ele>
        <time>2016-02-21T09:16:58Z</time>
      </trkpt>
      <trkpt lat="45.6047" lon="6.93449">
        <ele>1802.83</ele>
        <time>2016-02-21T09:17:12Z</time>
      </trkpt>
      <trkpt lat="45.6047" lon="6.93453">
        <ele>1803.04</ele>
        <time>2016-02-21T09:17:14Z</time>
      </trkpt>
      <trkpt lat="45.60472" lon="6.93466">
        <ele>1803.67</ele>
        <time>2016-02-21T09:17:23Z</time>
      </trkpt>
      <trkpt lat="45.60477" lon="6.93473">
        <ele>1804.22</ele>
        <time>2016-02-21T09:17:28Z</time>
      </trkpt>
      <trkpt lat="45.60479" lon="6.93484">
        <ele>1805.54</ele>
        <time>2016-02-21T09:17:37Z</time>
      </trkpt>
      <trkpt lat="45.60482" lon="6.93497">
        <ele>1806.62</ele>
        <time>2016-02-21T09:17:47Z</time>
      </trkpt>
      <trkpt lat="45.60483" lon="6.93498">
        <ele>1806.73</ele>
        <time>2016-02-21T09:17:48Z</time>
      </trkpt>
      <trkpt lat="45.60484" lon="6.935">
        <ele>1806.84</ele>
        <time>2016-02-21T09:17:49Z</time>
      </trkpt>
      <trkpt lat="45.60485" lon="6.93501">
        <ele>1806.97</ele>
        <time>2016-02-21T09:17:50Z</time>
      </trkpt>
      <trkpt lat="45.60485" lon="6.93507">
        <ele>1807.46</ele>
        <time>2016-02-21T09:17:54Z</time>
      </trkpt>
      <trkpt lat="45.60483" lon="6.93514">
        <ele>1808.51</ele>
        <time>2016-02-21T09:18:01Z</time>
      </trkpt>
      <trkpt lat="45.60484" lon="6.93519">
        <ele>1808.83</ele>
        <time>2016-02-21T09:18:05Z</time>
      </trkpt>
      <trkpt lat="45.60484" lon="6.93521">
        <ele>1808.9</ele>
        <time>2016-02-21T09:18:06Z</time>
      </trkpt>
      <trkpt lat="45.60484" lon="6.93523">
        <ele>1808.96</ele>
        <time>2016-02-21T09:18:07Z</time>
      </trkpt>
      <trkpt lat="45.60485" lon="6.93524">
        <ele>1809.07</ele>
        <time>2016-02-21T09:18:08Z</time>
      </trkpt>
      <trkpt lat="45.60483" lon="6.93527">
        <ele>1809.41</ele>
        <time>2016-02-21T09:18:11Z</time>
      </trkpt>
      <trkpt lat="45.60482" lon="6.93528">
        <ele>1809.49</ele>
        <time>2016-02-21T09:18:12Z</time>
      </trkpt>
      <trkpt lat="45.6048" lon="6.9354">
        <ele>1810.25</ele>
        <time>2016-02-21T09:18:21Z</time>
      </trkpt>
      <trkpt lat="45.6048" lon="6.93541">
        <ele>1810.36</ele>
        <time>2016-02-21T09:18:22Z</time>
      </trkpt>
      <trkpt lat="45.6048" lon="6.93545">
        <ele>1810.56</ele>
        <time>2016-02-21T09:18:24Z</time>
      </trkpt>
      <trkpt lat="45.60479" lon="6.93555">
        <ele>1811.64</ele>
        <time>2016-02-21T09:18:33Z</time>
      </trkpt>
      <trkpt lat="45.60471" lon="6.93566">
        <ele>1813.29</ele>
        <time>2016-02-21T09:18:45Z</time>
      </trkpt>
      <trkpt lat="45.60468" lon="6.93577">
        <ele>1814.6</ele>
        <time>2016-02-21T09:18:56Z</time>
      </trkpt>
      <trkpt lat="45.60469" lon="6.93579">
        <ele>1814.76</ele>
        <time>2016-02-21T09:18:57Z</time>
      </trkpt>
      <trkpt lat="45.6047" lon="6.93586">
        <ele>1815.48</ele>
        <time>2016-02-21T09:19:03Z</time>
      </trkpt>
      <trkpt lat="45.6047" lon="6.93589">
        <ele>1815.76</ele>
        <time>2016-02-21T09:19:06Z</time>
      </trkpt>
      <trkpt lat="45.6047" lon="6.93594">
        <ele>1816.29</ele>
        <time>2016-02-21T09:19:11Z</time>
      </trkpt>
      <trkpt lat="45.6047" lon="6.93595">
        <ele>1816.41</ele>
        <time>2016-02-21T09:19:12Z</time>
      </trkpt>
      <trkpt lat="45.60468" lon="6.93603">
        <ele>1817.32</ele>
        <time>2016-02-21T09:19:21Z</time>
      </trkpt>
      <trkpt lat="45.60463" lon="6.93611">
        <ele>1818.5</ele>
        <time>2016-02-21T09:19:30Z</time>
      </trkpt>
      <trkpt lat="45.6046" lon="6.93619">
        <ele>1819.57</ele>
        <time>2016-02-21T09:19:39Z</time>
      </trkpt>
      <trkpt lat="45.60455" lon="6.93629">
        <ele>1821.2</ele>
        <time>2016-02-21T09:19:50Z</time>
      </trkpt>
      <trkpt lat="45.60452" lon="6.93637">
        <ele>1822.37</ele>
        <time>2016-02-21T09:20:00Z</time>
      </trkpt>
      <trkpt lat="45.60448" lon="6.93641">
        <ele>1823.59</ele>
        <time>2016-02-21T09:20:06Z</time>
      </trkpt>
      <trkpt lat="45.60445" lon="6.93642">
        <ele>1823.87</ele>
        <time>2016-02-21T09:20:08Z</time>
      </trkpt>
      <trkpt lat="45.60444" lon="6.93643">
        <ele>1824</ele>
        <time>2016-02-21T09:20:09Z</time>
      </trkpt>
      <trkpt lat="45.60442" lon="6.93649">
        <ele>1825.44</ele>
        <time>2016-02-21T09:20:19Z</time>
      </trkpt>
      <trkpt lat="45.60437" lon="6.93657">
        <ele>1826.96</ele>
        <time>2016-02-21T09:20:33Z</time>
      </trkpt>
      <trkpt lat="45.60432" lon="6.93659">
        <ele>1827.48</ele>
        <time>2016-02-21T09:20:38Z</time>
      </trkpt>
      <trkpt lat="45.60427" lon="6.93665">
        <ele>1829</ele>
        <time>2016-02-21T09:20:49Z</time>
      </trkpt>
      <trkpt lat="45.6042" lon="6.93675">
        <ele>1830.87</ele>
        <time>2016-02-21T09:21:03Z</time>
      </trkpt>
      <trkpt lat="45.60417" lon="6.9368">
        <ele>1832.16</ele>
        <time>2016-02-21T09:21:15Z</time>
      </trkpt>
      <trkpt lat="45.60409" lon="6.93688">
        <ele>1833.85</ele>
        <time>2016-02-21T09:21:28Z</time>
      </trkpt>
      <trkpt lat="45.60407" lon="6.93695">
        <ele>1834.8</ele>
        <time>2016-02-21T09:21:37Z</time>
      </trkpt>
      <trkpt lat="45.60399" lon="6.93701">
        <ele>1836.26</ele>
        <time>2016-02-21T09:21:48Z</time>
      </trkpt>
      <trkpt lat="45.60395" lon="6.93713">
        <ele>1838.23</ele>
        <time>2016-02-21T09:22:02Z</time>
      </trkpt>
      <trkpt lat="45.60394" lon="6.93721">
        <ele>1839.26</ele>
        <time>2016-02-21T09:22:09Z</time>
      </trkpt>
      <trkpt lat="45.60394" lon="6.93724">
        <ele>1839.8</ele>
        <time>2016-02-21T09:22:12Z</time>
      </trkpt>
      <trkpt lat="45.60396" lon="6.93729">
        <ele>1840.77</ele>
        <time>2016-02-21T09:22:20Z</time>
      </trkpt>
      <trkpt lat="45.60396" lon="6.93739">
        <ele>1842.58</ele>
        <time>2016-02-21T09:22:33Z</time>
      </trkpt>
      <trkpt lat="45.60394" lon="6.93748">
        <ele>1844.26</ele>
        <time>2016-02-21T09:22:45Z</time>
      </trkpt>
      <trkpt lat="45.60395" lon="6.93756">
        <ele>1845.61</ele>
        <time>2016-02-21T09:22:54Z</time>
      </trkpt>
      <trkpt lat="45.60391" lon="6.93764">
        <ele>1847.28</ele>
        <time>2016-02-21T09:23:05Z</time>
      </trkpt>
      <trkpt lat="45.6039" lon="6.93773">
        <ele>1848.95</ele>
        <time>2016-02-21T09:23:18Z</time>
      </trkpt>
      <trkpt lat="45.60392" lon="6.93776">
        <ele>1849.76</ele>
        <time>2016-02-21T09:23:23Z</time>
      </trkpt>
      <trkpt lat="45.60393" lon="6.93786">
        <ele>1851.31</ele>
        <time>2016-02-21T09:23:32Z</time>
      </trkpt>
      <trkpt lat="45.60393" lon="6.93787">
        <ele>1851.44</ele>
        <time>2016-02-21T09:23:33Z</time>
      </trkpt>
      <trkpt lat="45.60392" lon="6.93792">
        <ele>1852.74</ele>
        <time>2016-02-21T09:23:44Z</time>
      </trkpt>
      <trkpt lat="45.60391" lon="6.938">
        <ele>1854.26</ele>
        <time>2016-02-21T09:23:56Z</time>
      </trkpt>
      <trkpt lat="45.60393" lon="6.93808">
        <ele>1855.83</ele>
        <time>2016-02-21T09:24:08Z</time>
      </trkpt>
      <trkpt lat="45.60391" lon="6.93815">
        <ele>1858.2</ele>
        <time>2016-02-21T09:24:21Z</time>
      </trkpt>
      <trkpt lat="45.60394" lon="6.93824">
        <ele>1859.87</ele>
        <time>2016-02-21T09:24:32Z</time>
      </trkpt>
      <trkpt lat="45.60394" lon="6.93825">
        <ele>1860.06</ele>
        <time>2016-02-21T09:24:33Z</time>
      </trkpt>
      <trkpt lat="45.60395" lon="6.93826">
        <ele>1860.23</ele>
        <time>2016-02-21T09:24:34Z</time>
      </trkpt>
      <trkpt lat="45.60392" lon="6.93833">
        <ele>1862.23</ele>
        <time>2016-02-21T09:24:44Z</time>
      </trkpt>
      <trkpt lat="45.60391" lon="6.93844">
        <ele>1864.38</ele>
        <time>2016-02-21T09:24:56Z</time>
      </trkpt>
      <trkpt lat="45.60391" lon="6.93853">
        <ele>1866.64</ele>
        <time>2016-02-21T09:25:09Z</time>
      </trkpt>
      <trkpt lat="45.6039" lon="6.93861">
        <ele>1868.33</ele>
        <time>2016-02-21T09:25:20Z</time>
      </trkpt>
      <trkpt lat="45.60386" lon="6.9387">
        <ele>1870.07</ele>
        <time>2016-02-21T09:25:32Z</time>
      </trkpt>
      <trkpt lat="45.60379" lon="6.93878">
        <ele>1871.89</ele>
        <time>2016-02-21T09:25:44Z</time>
      </trkpt>
      <trkpt lat="45.60376" lon="6.93887">
        <ele>1873.66</ele>
        <time>2016-02-21T09:25:54Z</time>
      </trkpt>
      <trkpt lat="45.60373" lon="6.93895">
        <ele>1875.03</ele>
        <time>2016-02-21T09:26:03Z</time>
      </trkpt>
      <trkpt lat="45.60371" lon="6.93901">
        <ele>1876.21</ele>
        <time>2016-02-21T09:26:12Z</time>
      </trkpt>
      <trkpt lat="45.60369" lon="6.9391">
        <ele>1877.41</ele>
        <time>2016-02-21T09:26:22Z</time>
      </trkpt>
      <trkpt lat="45.60368" lon="6.93921">
        <ele>1878.57</ele>
        <time>2016-02-21T09:26:33Z</time>
      </trkpt>
      <trkpt lat="45.60367" lon="6.93923">
        <ele>1878.72</ele>
        <time>2016-02-21T09:26:35Z</time>
      </trkpt>
      <trkpt lat="45.60366" lon="6.93931">
        <ele>1879.52</ele>
        <time>2016-02-21T09:26:44Z</time>
      </trkpt>
      <trkpt lat="45.60364" lon="6.9394">
        <ele>1880.57</ele>
        <time>2016-02-21T09:26:53Z</time>
      </trkpt>
      <trkpt lat="45.60364" lon="6.93941">
        <ele>1880.76</ele>
        <time>2016-02-21T09:26:54Z</time>
      </trkpt>
      <trkpt lat="45.60361" lon="6.93948">
        <ele>1882.09</ele>
        <time>2016-02-21T09:27:04Z</time>
      </trkpt>
      <trkpt lat="45.60359" lon="6.9396">
        <ele>1884.22</ele>
        <time>2016-02-21T09:27:16Z</time>
      </trkpt>
      <trkpt lat="45.60358" lon="6.93971">
        <ele>1885.82</ele>
        <time>2016-02-21T09:27:28Z</time>
      </trkpt>
      <trkpt lat="45.60356" lon="6.93982">
        <ele>1887.44</ele>
        <time>2016-02-21T09:27:39Z</time>
      </trkpt>
      <trkpt lat="45.60359" lon="6.93988">
        <ele>1888.76</ele>
        <time>2016-02-21T09:27:48Z</time>
      </trkpt>
      <trkpt lat="45.60365" lon="6.9399">
        <ele>1890.82</ele>
        <time>2016-02-21T09:27:59Z</time>
      </trkpt>
      <trkpt lat="45.60368" lon="6.93995">
        <ele>1893.41</ele>
        <time>2016-02-21T09:28:15Z</time>
      </trkpt>
      <trkpt lat="45.60372" lon="6.94005">
        <ele>1895.97</ele>
        <time>2016-02-21T09:28:31Z</time>
      </trkpt>
      <trkpt lat="45.60378" lon="6.94016">
        <ele>1897.75</ele>
        <time>2016-02-21T09:28:45Z</time>
      </trkpt>
      <trkpt lat="45.60383" lon="6.94026">
        <ele>1899.37</ele>
        <time>2016-02-21T09:28:58Z</time>
      </trkpt>
      <trkpt lat="45.60382" lon="6.94036">
        <ele>1901.14</ele>
        <time>2016-02-21T09:29:12Z</time>
      </trkpt>
      <trkpt lat="45.60385" lon="6.94042">
        <ele>1901.99</ele>
        <time>2016-02-21T09:29:24Z</time>
      </trkpt>
      <trkpt lat="45.6039" lon="6.94053">
        <ele>1902.77</ele>
        <time>2016-02-21T09:29:36Z</time>
      </trkpt>
      <trkpt lat="45.60395" lon="6.94067">
        <ele>1903.87</ele>
        <time>2016-02-21T09:29:48Z</time>
      </trkpt>
      <trkpt lat="45.60399" lon="6.94075">
        <ele>1905.05</ele>
        <time>2016-02-21T09:29:58Z</time>
      </trkpt>
      <trkpt lat="45.60402" lon="6.94086">
        <ele>1906.16</ele>
        <time>2016-02-21T09:30:08Z</time>
      </trkpt>
      <trkpt lat="45.60405" lon="6.94096">
        <ele>1907.48</ele>
        <time>2016-02-21T09:30:19Z</time>
      </trkpt>
      <trkpt lat="45.60407" lon="6.94109">
        <ele>1908.86</ele>
        <time>2016-02-21T09:30:31Z</time>
      </trkpt>
      <trkpt lat="45.60407" lon="6.94111">
        <ele>1908.97</ele>
        <time>2016-02-21T09:30:33Z</time>
      </trkpt>
      <trkpt lat="45.60407" lon="6.94114">
        <ele>1909.06</ele>
        <time>2016-02-21T09:30:34Z</time>
      </trkpt>
      <trkpt lat="45.60402" lon="6.94139">
        <ele>1908.54</ele>
        <time>2016-02-21T09:30:42Z</time>
      </trkpt>
      <trkpt lat="45.60402" lon="6.94155">
        <ele>1906.55</ele>
        <time>2016-02-21T09:30:53Z</time>
      </trkpt>
      <trkpt lat="45.60404" lon="6.9417">
        <ele>1906.56</ele>
        <time>2016-02-21T09:31:03Z</time>
      </trkpt>
      <trkpt lat="45.60404" lon="6.94185">
        <ele>1906.85</ele>
        <time>2016-02-21T09:31:14Z</time>
      </trkpt>
      <trkpt lat="45.60403" lon="6.94187">
        <ele>1906.82</ele>
        <time>2016-02-21T09:31:16Z</time>
      </trkpt>
      <trkpt lat="45.60403" lon="6.94189">
        <ele>1906.8</ele>
        <time>2016-02-21T09:31:17Z</time>
      </trkpt>
      <trkpt lat="45.60404" lon="6.94197">
        <ele>1906.62</ele>
        <time>2016-02-21T09:31:23Z</time>
      </trkpt>
      <trkpt lat="45.60405" lon="6.94199">
        <ele>1906.61</ele>
        <time>2016-02-21T09:31:24Z</time>
      </trkpt>
      <trkpt lat="45.60406" lon="6.942">
        <ele>1906.6</ele>
        <time>2016-02-21T09:31:25Z</time>
      </trkpt>
      <trkpt lat="45.60407" lon="6.94206">
        <ele>1906.8</ele>
        <time>2016-02-21T09:31:29Z</time>
      </trkpt>
      <trkpt lat="45.60407" lon="6.94207">
        <ele>1906.87</ele>
        <time>2016-02-21T09:31:30Z</time>
      </trkpt>
      <trkpt lat="45.60407" lon="6.9422">
        <ele>1907.34</ele>
        <time>2016-02-21T09:31:40Z</time>
      </trkpt>
      <trkpt lat="45.60407" lon="6.94222">
        <ele>1907.43</ele>
        <time>2016-02-21T09:31:41Z</time>
      </trkpt>
      <trkpt lat="45.60405" lon="6.94237">
        <ele>1907.71</ele>
        <time>2016-02-21T09:31:52Z</time>
      </trkpt>
      <trkpt lat="45.60405" lon="6.94246">
        <ele>1908.13</ele>
        <time>2016-02-21T09:31:58Z</time>
      </trkpt>
      <trkpt lat="45.60405" lon="6.94248">
        <ele>1908.18</ele>
        <time>2016-02-21T09:31:59Z</time>
      </trkpt>
      <trkpt lat="45.60405" lon="6.94249">
        <ele>1908.21</ele>
        <time>2016-02-21T09:32:00Z</time>
      </trkpt>
      <trkpt lat="45.60405" lon="6.94255">
        <ele>1908.38</ele>
        <time>2016-02-21T09:32:04Z</time>
      </trkpt>
      <trkpt lat="45.60405" lon="6.94256">
        <ele>1908.42</ele>
        <time>2016-02-21T09:32:05Z</time>
      </trkpt>
      <trkpt lat="45.60405" lon="6.94258">
        <ele>1908.47</ele>
        <time>2016-02-21T09:32:06Z</time>
      </trkpt>
      <trkpt lat="45.60405" lon="6.94261">
        <ele>1908.57</ele>
        <time>2016-02-21T09:32:08Z</time>
      </trkpt>
      <trkpt lat="45.60404" lon="6.94272">
        <ele>1909.02</ele>
        <time>2016-02-21T09:32:16Z</time>
      </trkpt>
      <trkpt lat="45.60403" lon="6.94274">
        <ele>1909.05</ele>
        <time>2016-02-21T09:32:17Z</time>
      </trkpt>
      <trkpt lat="45.60403" lon="6.94275">
        <ele>1909.09</ele>
        <time>2016-02-21T09:32:18Z</time>
      </trkpt>
      <trkpt lat="45.60402" lon="6.94277">
        <ele>1909.12</ele>
        <time>2016-02-21T09:32:19Z</time>
      </trkpt>
      <trkpt lat="45.60402" lon="6.94279">
        <ele>1909.14</ele>
        <time>2016-02-21T09:32:20Z</time>
      </trkpt>
      <trkpt lat="45.60401" lon="6.94282">
        <ele>1909.21</ele>
        <time>2016-02-21T09:32:23Z</time>
      </trkpt>
      <trkpt lat="45.60402" lon="6.94297">
        <ele>1909.56</ele>
        <time>2016-02-21T09:32:33Z</time>
      </trkpt>
      <trkpt lat="45.60402" lon="6.94302">
        <ele>1909.67</ele>
        <time>2016-02-21T09:32:38Z</time>
      </trkpt>
      <trkpt lat="45.604" lon="6.94315">
        <ele>1910.42</ele>
        <time>2016-02-21T09:32:50Z</time>
      </trkpt>
      <trkpt lat="45.60397" lon="6.94323">
        <ele>1910.94</ele>
        <time>2016-02-21T09:32:57Z</time>
      </trkpt>
      <trkpt lat="45.60394" lon="6.9433">
        <ele>1911.4</ele>
        <time>2016-02-21T09:33:03Z</time>
      </trkpt>
      <trkpt lat="45.60394" lon="6.94331">
        <ele>1911.44</ele>
        <time>2016-02-21T09:33:04Z</time>
      </trkpt>
      <trkpt lat="45.60392" lon="6.94339">
        <ele>1911.67</ele>
        <time>2016-02-21T09:33:10Z</time>
      </trkpt>
      <trkpt lat="45.60393" lon="6.9434">
        <ele>1911.69</ele>
        <time>2016-02-21T09:33:11Z</time>
      </trkpt>
      <trkpt lat="45.60391" lon="6.94342">
        <ele>1911.73</ele>
        <time>2016-02-21T09:33:13Z</time>
      </trkpt>
      <trkpt lat="45.60384" lon="6.94356">
        <ele>1912.23</ele>
        <time>2016-02-21T09:33:26Z</time>
      </trkpt>
      <trkpt lat="45.60381" lon="6.94369">
        <ele>1912.75</ele>
        <time>2016-02-21T09:33:37Z</time>
      </trkpt>
      <trkpt lat="45.60379" lon="6.94372">
        <ele>1912.85</ele>
        <time>2016-02-21T09:33:40Z</time>
      </trkpt>
      <trkpt lat="45.60378" lon="6.94373">
        <ele>1912.87</ele>
        <time>2016-02-21T09:33:41Z</time>
      </trkpt>
      <trkpt lat="45.60377" lon="6.94374">
        <ele>1912.94</ele>
        <time>2016-02-21T09:33:42Z</time>
      </trkpt>
      <trkpt lat="45.60375" lon="6.94377">
        <ele>1913.09</ele>
        <time>2016-02-21T09:33:45Z</time>
      </trkpt>
      <trkpt lat="45.60371" lon="6.94388">
        <ele>1913.38</ele>
        <time>2016-02-21T09:33:54Z</time>
      </trkpt>
      <trkpt lat="45.60369" lon="6.94399">
        <ele>1913.68</ele>
        <time>2016-02-21T09:34:03Z</time>
      </trkpt>
      <trkpt lat="45.60369" lon="6.944">
        <ele>1913.76</ele>
        <time>2016-02-21T09:34:04Z</time>
      </trkpt>
      <trkpt lat="45.60369" lon="6.94402">
        <ele>1913.82</ele>
        <time>2016-02-21T09:34:05Z</time>
      </trkpt>
      <trkpt lat="45.60369" lon="6.94404">
        <ele>1914</ele>
        <time>2016-02-21T09:34:06Z</time>
      </trkpt>
      <trkpt lat="45.60371" lon="6.94409">
        <ele>1914.41</ele>
        <time>2016-02-21T09:34:15Z</time>
      </trkpt>
      <trkpt lat="45.60369" lon="6.94411">
        <ele>1914.35</ele>
        <time>2016-02-21T09:34:30Z</time>
      </trkpt>
      <trkpt lat="45.60366" lon="6.9442">
        <ele>1915.06</ele>
        <time>2016-02-21T09:34:41Z</time>
      </trkpt>
      <trkpt lat="45.60366" lon="6.94431">
        <ele>1916.13</ele>
        <time>2016-02-21T09:34:51Z</time>
      </trkpt>
      <trkpt lat="45.60366" lon="6.94444">
        <ele>1916.73</ele>
        <time>2016-02-21T09:35:02Z</time>
      </trkpt>
      <trkpt lat="45.60366" lon="6.94448">
        <ele>1916.78</ele>
        <time>2016-02-21T09:35:05Z</time>
      </trkpt>
      <trkpt lat="45.60367" lon="6.94453">
        <ele>1916.88</ele>
        <time>2016-02-21T09:35:09Z</time>
      </trkpt>
      <trkpt lat="45.60368" lon="6.94457">
        <ele>1916.99</ele>
        <time>2016-02-21T09:35:12Z</time>
      </trkpt>
      <trkpt lat="45.60367" lon="6.94467">
        <ele>1917.64</ele>
        <time>2016-02-21T09:35:23Z</time>
      </trkpt>
      <trkpt lat="45.60366" lon="6.94472">
        <ele>1918.25</ele>
        <time>2016-02-21T09:35:29Z</time>
      </trkpt>
      <trkpt lat="45.60369" lon="6.94481">
        <ele>1919.66</ele>
        <time>2016-02-21T09:35:40Z</time>
      </trkpt>
      <trkpt lat="45.60369" lon="6.94487">
        <ele>1920.72</ele>
        <time>2016-02-21T09:35:45Z</time>
      </trkpt>
      <trkpt lat="45.60366" lon="6.94494">
        <ele>1922.45</ele>
        <time>2016-02-21T09:35:56Z</time>
      </trkpt>
      <trkpt lat="45.60362" lon="6.94504">
        <ele>1923.74</ele>
        <time>2016-02-21T09:36:07Z</time>
      </trkpt>
      <trkpt lat="45.60359" lon="6.94516">
        <ele>1925.04</ele>
        <time>2016-02-21T09:36:19Z</time>
      </trkpt>
      <trkpt lat="45.60354" lon="6.94527">
        <ele>1925.79</ele>
        <time>2016-02-21T09:36:30Z</time>
      </trkpt>
      <trkpt lat="45.60348" lon="6.94539">
        <ele>1926.6</ele>
        <time>2016-02-21T09:36:44Z</time>
      </trkpt>
      <trkpt lat="45.60347" lon="6.94541">
        <ele>1926.64</ele>
        <time>2016-02-21T09:36:46Z</time>
      </trkpt>
      <trkpt lat="45.60345" lon="6.94544">
        <ele>1926.61</ele>
        <time>2016-02-21T09:36:49Z</time>
      </trkpt>
      <trkpt lat="45.60344" lon="6.9455">
        <ele>1926.55</ele>
        <time>2016-02-21T09:36:53Z</time>
      </trkpt>
      <trkpt lat="45.60343" lon="6.94552">
        <ele>1926.52</ele>
        <time>2016-02-21T09:36:54Z</time>
      </trkpt>
      <trkpt lat="45.60343" lon="6.94553">
        <ele>1926.48</ele>
        <time>2016-02-21T09:36:55Z</time>
      </trkpt>
      <trkpt lat="45.60342" lon="6.94555">
        <ele>1926.45</ele>
        <time>2016-02-21T09:36:56Z</time>
      </trkpt>
      <trkpt lat="45.60342" lon="6.94556">
        <ele>1926.41</ele>
        <time>2016-02-21T09:36:57Z</time>
      </trkpt>
      <trkpt lat="45.60342" lon="6.94561">
        <ele>1925.87</ele>
        <time>2016-02-21T09:37:04Z</time>
      </trkpt>
      <trkpt lat="45.60342" lon="6.94562">
        <ele>1925.8</ele>
        <time>2016-02-21T09:37:05Z</time>
      </trkpt>
      <trkpt lat="45.60342" lon="6.94564">
        <ele>1925.75</ele>
        <time>2016-02-21T09:37:06Z</time>
      </trkpt>
      <trkpt lat="45.60342" lon="6.94565">
        <ele>1925.72</ele>
        <time>2016-02-21T09:37:07Z</time>
      </trkpt>
      <trkpt lat="45.60342" lon="6.9457">
        <ele>1925.56</ele>
        <time>2016-02-21T09:37:11Z</time>
      </trkpt>
      <trkpt lat="45.60342" lon="6.94571">
        <ele>1925.5</ele>
        <time>2016-02-21T09:37:12Z</time>
      </trkpt>
      <trkpt lat="45.60342" lon="6.94572">
        <ele>1925.45</ele>
        <time>2016-02-21T09:37:13Z</time>
      </trkpt>
      <trkpt lat="45.60342" lon="6.94574">
        <ele>1925.39</ele>
        <time>2016-02-21T09:37:14Z</time>
      </trkpt>
      <trkpt lat="45.60342" lon="6.94575">
        <ele>1925.34</ele>
        <time>2016-02-21T09:37:15Z</time>
      </trkpt>
      <trkpt lat="45.60342" lon="6.94576">
        <ele>1925.29</ele>
        <time>2016-02-21T09:37:16Z</time>
      </trkpt>
      <trkpt lat="45.60342" lon="6.94578">
        <ele>1925.19</ele>
        <time>2016-02-21T09:37:18Z</time>
      </trkpt>
      <trkpt lat="45.60342" lon="6.94581">
        <ele>1925.08</ele>
        <time>2016-02-21T09:37:20Z</time>
      </trkpt>
      <trkpt lat="45.60341" lon="6.94593">
        <ele>1925.19</ele>
        <time>2016-02-21T09:37:30Z</time>
      </trkpt>
      <trkpt lat="45.60341" lon="6.94595">
        <ele>1925.19</ele>
        <time>2016-02-21T09:37:31Z</time>
      </trkpt>
      <trkpt lat="45.60341" lon="6.94596">
        <ele>1925.17</ele>
        <time>2016-02-21T09:37:32Z</time>
      </trkpt>
      <trkpt lat="45.60341" lon="6.946">
        <ele>1925.17</ele>
        <time>2016-02-21T09:37:35Z</time>
      </trkpt>
      <trkpt lat="45.60341" lon="6.94602">
        <ele>1925.21</ele>
        <time>2016-02-21T09:37:36Z</time>
      </trkpt>
      <trkpt lat="45.6034" lon="6.94603">
        <ele>1925.25</ele>
        <time>2016-02-21T09:37:37Z</time>
      </trkpt>
      <trkpt lat="45.60339" lon="6.94608">
        <ele>1925.54</ele>
        <time>2016-02-21T09:37:41Z</time>
      </trkpt>
      <trkpt lat="45.60339" lon="6.94609">
        <ele>1925.61</ele>
        <time>2016-02-21T09:37:42Z</time>
      </trkpt>
      <trkpt lat="45.60335" lon="6.94621">
        <ele>1926.45</ele>
        <time>2016-02-21T09:37:52Z</time>
      </trkpt>
      <trkpt lat="45.60333" lon="6.94629">
        <ele>1927.45</ele>
        <time>2016-02-21T09:38:03Z</time>
      </trkpt>
      <trkpt lat="45.60331" lon="6.94638">
        <ele>1927.93</ele>
        <time>2016-02-21T09:38:11Z</time>
      </trkpt>
      <trkpt lat="45.60331" lon="6.94639">
        <ele>1927.99</ele>
        <time>2016-02-21T09:38:12Z</time>
      </trkpt>
      <trkpt lat="45.60332" lon="6.94649">
        <ele>1928.33</ele>
        <time>2016-02-21T09:38:20Z</time>
      </trkpt>
      <trkpt lat="45.60333" lon="6.9465">
        <ele>1928.34</ele>
        <time>2016-02-21T09:38:21Z</time>
      </trkpt>
      <trkpt lat="45.60333" lon="6.94651">
        <ele>1928.35</ele>
        <time>2016-02-21T09:38:22Z</time>
      </trkpt>
      <trkpt lat="45.60334" lon="6.94652">
        <ele>1928.35</ele>
        <time>2016-02-21T09:38:23Z</time>
      </trkpt>
      <trkpt lat="45.60333" lon="6.94655">
        <ele>1928.35</ele>
        <time>2016-02-21T09:38:25Z</time>
      </trkpt>
      <trkpt lat="45.60333" lon="6.94658">
        <ele>1928.37</ele>
        <time>2016-02-21T09:38:28Z</time>
      </trkpt>
      <trkpt lat="45.60335" lon="6.94668">
        <ele>1929.1</ele>
        <time>2016-02-21T09:38:39Z</time>
      </trkpt>
      <trkpt lat="45.60335" lon="6.94669">
        <ele>1929.18</ele>
        <time>2016-02-21T09:38:40Z</time>
      </trkpt>
      <trkpt lat="45.60336" lon="6.94671">
        <ele>1929.32</ele>
        <time>2016-02-21T09:38:42Z</time>
      </trkpt>
      <trkpt lat="45.60334" lon="6.94676">
        <ele>1929.46</ele>
        <time>2016-02-21T09:38:46Z</time>
      </trkpt>
      <trkpt lat="45.60332" lon="6.94678">
        <ele>1929.96</ele>
        <time>2016-02-21T09:38:56Z</time>
      </trkpt>
      <trkpt lat="45.60326" lon="6.94678">
        <ele>1930.98</ele>
        <time>2016-02-21T09:39:09Z</time>
      </trkpt>
      <trkpt lat="45.60322" lon="6.9468">
        <ele>1931.61</ele>
        <time>2016-02-21T09:39:15Z</time>
      </trkpt>
      <trkpt lat="45.60317" lon="6.94682">
        <ele>1932.1</ele>
        <time>2016-02-21T09:39:20Z</time>
      </trkpt>
      <trkpt lat="45.60315" lon="6.94682">
        <ele>1932.23</ele>
        <time>2016-02-21T09:39:21Z</time>
      </trkpt>
      <trkpt lat="45.60306" lon="6.94685">
        <ele>1933.31</ele>
        <time>2016-02-21T09:39:31Z</time>
      </trkpt>
      <trkpt lat="45.60303" lon="6.94694">
        <ele>1933.42</ele>
        <time>2016-02-21T09:39:41Z</time>
      </trkpt>
      <trkpt lat="45.60304" lon="6.94695">
        <ele>1933.53</ele>
        <time>2016-02-21T09:39:42Z</time>
      </trkpt>
      <trkpt lat="45.60304" lon="6.947">
        <ele>1933.87</ele>
        <time>2016-02-21T09:39:46Z</time>
      </trkpt>
      <trkpt lat="45.60304" lon="6.94701">
        <ele>1933.94</ele>
        <time>2016-02-21T09:39:47Z</time>
      </trkpt>
      <trkpt lat="45.60304" lon="6.94704">
        <ele>1934.17</ele>
        <time>2016-02-21T09:39:50Z</time>
      </trkpt>
      <trkpt lat="45.60304" lon="6.94706">
        <ele>1934.17</ele>
        <time>2016-02-21T09:39:51Z</time>
      </trkpt>
      <trkpt lat="45.60304" lon="6.94707">
        <ele>1934.31</ele>
        <time>2016-02-21T09:39:52Z</time>
      </trkpt>
      <trkpt lat="45.60304" lon="6.94709">
        <ele>1934.38</ele>
        <time>2016-02-21T09:39:53Z</time>
      </trkpt>
      <trkpt lat="45.60304" lon="6.94719">
        <ele>1934.88</ele>
        <time>2016-02-21T09:40:01Z</time>
      </trkpt>
      <trkpt lat="45.60304" lon="6.9472">
        <ele>1934.94</ele>
        <time>2016-02-21T09:40:02Z</time>
      </trkpt>
      <trkpt lat="45.60303" lon="6.94724">
        <ele>1935.05</ele>
        <time>2016-02-21T09:40:05Z</time>
      </trkpt>
      <trkpt lat="45.60299" lon="6.94731">
        <ele>1935.09</ele>
        <time>2016-02-21T09:40:12Z</time>
      </trkpt>
      <trkpt lat="45.60298" lon="6.94738">
        <ele>1935.03</ele>
        <time>2016-02-21T09:40:18Z</time>
      </trkpt>
      <trkpt lat="45.60298" lon="6.94741">
        <ele>1935.05</ele>
        <time>2016-02-21T09:40:20Z</time>
      </trkpt>
      <trkpt lat="45.603" lon="6.9475">
        <ele>1935.4</ele>
        <time>2016-02-21T09:40:27Z</time>
      </trkpt>
      <trkpt lat="45.603" lon="6.94754">
        <ele>1935.54</ele>
        <time>2016-02-21T09:40:30Z</time>
      </trkpt>
      <trkpt lat="45.60301" lon="6.94756">
        <ele>1935.62</ele>
        <time>2016-02-21T09:40:32Z</time>
      </trkpt>
      <trkpt lat="45.60301" lon="6.94765">
        <ele>1935.9</ele>
        <time>2016-02-21T09:40:39Z</time>
      </trkpt>
      <trkpt lat="45.60302" lon="6.94772">
        <ele>1936.28</ele>
        <time>2016-02-21T09:40:44Z</time>
      </trkpt>
      <trkpt lat="45.60302" lon="6.94781">
        <ele>1936.75</ele>
        <time>2016-02-21T09:40:50Z</time>
      </trkpt>
      <trkpt lat="45.603" lon="6.94784">
        <ele>1936.93</ele>
        <time>2016-02-21T09:40:53Z</time>
      </trkpt>
      <trkpt lat="45.60298" lon="6.94796">
        <ele>1937.14</ele>
        <time>2016-02-21T09:41:03Z</time>
      </trkpt>
      <trkpt lat="45.60295" lon="6.94809">
        <ele>1937.73</ele>
        <time>2016-02-21T09:41:13Z</time>
      </trkpt>
      <trkpt lat="45.60297" lon="6.94818">
        <ele>1938.15</ele>
        <time>2016-02-21T09:41:20Z</time>
      </trkpt>
      <trkpt lat="45.60298" lon="6.94822">
        <ele>1938.32</ele>
        <time>2016-02-21T09:41:23Z</time>
      </trkpt>
      <trkpt lat="45.60298" lon="6.94825">
        <ele>1938.41</ele>
        <time>2016-02-21T09:41:25Z</time>
      </trkpt>
      <trkpt lat="45.60301" lon="6.94834">
        <ele>1939.18</ele>
        <time>2016-02-21T09:41:36Z</time>
      </trkpt>
      <trkpt lat="45.60297" lon="6.94846">
        <ele>1940.24</ele>
        <time>2016-02-21T09:41:48Z</time>
      </trkpt>
      <trkpt lat="45.60296" lon="6.94849">
        <ele>1941.55</ele>
        <time>2016-02-21T09:41:58Z</time>
      </trkpt>
      <trkpt lat="45.60295" lon="6.94854">
        <ele>1942.12</ele>
        <time>2016-02-21T09:42:09Z</time>
      </trkpt>
      <trkpt lat="45.60295" lon="6.94862">
        <ele>1942.47</ele>
        <time>2016-02-21T09:42:16Z</time>
      </trkpt>
      <trkpt lat="45.60297" lon="6.94872">
        <ele>1942.97</ele>
        <time>2016-02-21T09:42:25Z</time>
      </trkpt>
      <trkpt lat="45.60301" lon="6.94882">
        <ele>1944.21</ele>
        <time>2016-02-21T09:42:37Z</time>
      </trkpt>
      <trkpt lat="45.60299" lon="6.9489">
        <ele>1944.79</ele>
        <time>2016-02-21T09:42:44Z</time>
      </trkpt>
      <trkpt lat="45.60295" lon="6.949">
        <ele>1945.53</ele>
        <time>2016-02-21T09:42:54Z</time>
      </trkpt>
      <trkpt lat="45.60284" lon="6.94907">
        <ele>1947.25</ele>
        <time>2016-02-21T09:43:08Z</time>
      </trkpt>
      <trkpt lat="45.6028" lon="6.94919">
        <ele>1948.64</ele>
        <time>2016-02-21T09:43:22Z</time>
      </trkpt>
      <trkpt lat="45.6028" lon="6.94923">
        <ele>1949.05</ele>
        <time>2016-02-21T09:43:26Z</time>
      </trkpt>
      <trkpt lat="45.60282" lon="6.94933">
        <ele>1950.57</ele>
        <time>2016-02-21T09:43:36Z</time>
      </trkpt>
      <trkpt lat="45.60281" lon="6.9494">
        <ele>1951.08</ele>
        <time>2016-02-21T09:43:42Z</time>
      </trkpt>
      <trkpt lat="45.6028" lon="6.94948">
        <ele>1951.77</ele>
        <time>2016-02-21T09:43:50Z</time>
      </trkpt>
      <trkpt lat="45.60281" lon="6.94957">
        <ele>1953.46</ele>
        <time>2016-02-21T09:44:01Z</time>
      </trkpt>
      <trkpt lat="45.6028" lon="6.94962">
        <ele>1954.15</ele>
        <time>2016-02-21T09:44:05Z</time>
      </trkpt>
      <trkpt lat="45.6028" lon="6.94971">
        <ele>1955.46</ele>
        <time>2016-02-21T09:44:14Z</time>
      </trkpt>
      <trkpt lat="45.6028" lon="6.94978">
        <ele>1956.43</ele>
        <time>2016-02-21T09:44:20Z</time>
      </trkpt>
      <trkpt lat="45.60279" lon="6.94987">
        <ele>1957.23</ele>
        <time>2016-02-21T09:44:31Z</time>
      </trkpt>
      <trkpt lat="45.60277" lon="6.9499">
        <ele>1957.63</ele>
        <time>2016-02-21T09:44:35Z</time>
      </trkpt>
      <trkpt lat="45.60278" lon="6.94993">
        <ele>1957.76</ele>
        <time>2016-02-21T09:44:37Z</time>
      </trkpt>
      <trkpt lat="45.60277" lon="6.95006">
        <ele>1957.85</ele>
        <time>2016-02-21T09:44:49Z</time>
      </trkpt>
      <trkpt lat="45.60274" lon="6.95014">
        <ele>1957.97</ele>
        <time>2016-02-21T09:44:57Z</time>
      </trkpt>
      <trkpt lat="45.60274" lon="6.95022">
        <ele>1958.42</ele>
        <time>2016-02-21T09:45:07Z</time>
      </trkpt>
      <trkpt lat="45.60274" lon="6.95023">
        <ele>1958.57</ele>
        <time>2016-02-21T09:45:08Z</time>
      </trkpt>
      <trkpt lat="45.60275" lon="6.95028">
        <ele>1959.24</ele>
        <time>2016-02-21T09:45:12Z</time>
      </trkpt>
      <trkpt lat="45.60274" lon="6.9504">
        <ele>1960.26</ele>
        <time>2016-02-21T09:45:24Z</time>
      </trkpt>
      <trkpt lat="45.60273" lon="6.95047">
        <ele>1960.97</ele>
        <time>2016-02-21T09:45:34Z</time>
      </trkpt>
      <trkpt lat="45.60273" lon="6.95055">
        <ele>1961.59</ele>
        <time>2016-02-21T09:45:45Z</time>
      </trkpt>
      <trkpt lat="45.60278" lon="6.95056">
        <ele>1963.42</ele>
        <time>2016-02-21T09:46:00Z</time>
      </trkpt>
      <trkpt lat="45.6028" lon="6.95064">
        <ele>1965.65</ele>
        <time>2016-02-21T09:46:18Z</time>
      </trkpt>
      <trkpt lat="45.60282" lon="6.95074">
        <ele>1967.35</ele>
        <time>2016-02-21T09:46:32Z</time>
      </trkpt>
      <trkpt lat="45.60283" lon="6.95085">
        <ele>1969.18</ele>
        <time>2016-02-21T09:46:46Z</time>
      </trkpt>
      <trkpt lat="45.60287" lon="6.95094">
        <ele>1970.81</ele>
        <time>2016-02-21T09:47:02Z</time>
      </trkpt>
      <trkpt lat="45.6029" lon="6.95104">
        <ele>1971.65</ele>
        <time>2016-02-21T09:47:13Z</time>
      </trkpt>
      <trkpt lat="45.60293" lon="6.95115">
        <ele>1973.08</ele>
        <time>2016-02-21T09:47:28Z</time>
      </trkpt>
      <trkpt lat="45.60296" lon="6.95123">
        <ele>1974.39</ele>
        <time>2016-02-21T09:47:41Z</time>
      </trkpt>
      <trkpt lat="45.60297" lon="6.95125">
        <ele>1974.66</ele>
        <time>2016-02-21T09:47:43Z</time>
      </trkpt>
      <trkpt lat="45.603" lon="6.95139">
        <ele>1976.06</ele>
        <time>2016-02-21T09:47:56Z</time>
      </trkpt>
      <trkpt lat="45.60302" lon="6.95147">
        <ele>1977.13</ele>
        <time>2016-02-21T09:48:07Z</time>
      </trkpt>
      <trkpt lat="45.60306" lon="6.95154">
        <ele>1977.83</ele>
        <time>2016-02-21T09:48:17Z</time>
      </trkpt>
      <trkpt lat="45.60306" lon="6.95166">
        <ele>1978.96</ele>
        <time>2016-02-21T09:48:31Z</time>
      </trkpt>
      <trkpt lat="45.6031" lon="6.95179">
        <ele>1979.99</ele>
        <time>2016-02-21T09:48:44Z</time>
      </trkpt>
      <trkpt lat="45.60312" lon="6.95184">
        <ele>1980.38</ele>
        <time>2016-02-21T09:48:50Z</time>
      </trkpt>
      <trkpt lat="45.60315" lon="6.95193">
        <ele>1980.73</ele>
        <time>2016-02-21T09:48:59Z</time>
      </trkpt>
      <trkpt lat="45.60318" lon="6.95199">
        <ele>1980.73</ele>
        <time>2016-02-21T09:49:05Z</time>
      </trkpt>
      <trkpt lat="45.60322" lon="6.95206">
        <ele>1981.21</ele>
        <time>2016-02-21T09:49:11Z</time>
      </trkpt>
      <trkpt lat="45.60327" lon="6.95217">
        <ele>1981.69</ele>
        <time>2016-02-21T09:49:23Z</time>
      </trkpt>
      <trkpt lat="45.60333" lon="6.95228">
        <ele>1983.43</ele>
        <time>2016-02-21T09:49:37Z</time>
      </trkpt>
      <trkpt lat="45.60333" lon="6.9523">
        <ele>1983.64</ele>
        <time>2016-02-21T09:49:39Z</time>
      </trkpt>
      <trkpt lat="45.60341" lon="6.95242">
        <ele>1984.21</ele>
        <time>2016-02-21T09:49:51Z</time>
      </trkpt>
      <trkpt lat="45.60343" lon="6.95246">
        <ele>1984.52</ele>
        <time>2016-02-21T09:49:57Z</time>
      </trkpt>
      <trkpt lat="45.60347" lon="6.95255">
        <ele>1985</ele>
        <time>2016-02-21T09:50:06Z</time>
      </trkpt>
      <trkpt lat="45.60353" lon="6.95265">
        <ele>1985.05</ele>
        <time>2016-02-21T09:50:18Z</time>
      </trkpt>
      <trkpt lat="45.60359" lon="6.95275">
        <ele>1985.67</ele>
        <time>2016-02-21T09:50:29Z</time>
      </trkpt>
      <trkpt lat="45.60368" lon="6.95285">
        <ele>1985.79</ele>
        <time>2016-02-21T09:50:40Z</time>
      </trkpt>
      <trkpt lat="45.60369" lon="6.95285">
        <ele>1985.72</ele>
        <time>2016-02-21T09:50:41Z</time>
      </trkpt>
      <trkpt lat="45.60377" lon="6.95286">
        <ele>1985</ele>
        <time>2016-02-21T09:50:52Z</time>
      </trkpt>
      <trkpt lat="45.60381" lon="6.95285">
        <ele>1984.71</ele>
        <time>2016-02-21T09:50:58Z</time>
      </trkpt>
      <trkpt lat="45.60391" lon="6.95289">
        <ele>1984.9</ele>
        <time>2016-02-21T09:51:12Z</time>
      </trkpt>
      <trkpt lat="45.60394" lon="6.95293">
        <ele>1985.42</ele>
        <time>2016-02-21T09:51:18Z</time>
      </trkpt>
      <trkpt lat="45.60394" lon="6.95298">
        <ele>1985.58</ele>
        <time>2016-02-21T09:51:21Z</time>
      </trkpt>
      <trkpt lat="45.60401" lon="6.95312">
        <ele>1985.12</ele>
        <time>2016-02-21T09:51:30Z</time>
      </trkpt>
      <trkpt lat="45.60402" lon="6.95326">
        <ele>1984.89</ele>
        <time>2016-02-21T09:51:42Z</time>
      </trkpt>
      <trkpt lat="45.60402" lon="6.95332">
        <ele>1985.03</ele>
        <time>2016-02-21T09:51:47Z</time>
      </trkpt>
      <trkpt lat="45.60402" lon="6.95338">
        <ele>1985.31</ele>
        <time>2016-02-21T09:51:51Z</time>
      </trkpt>
      <trkpt lat="45.60402" lon="6.9535">
        <ele>1985.73</ele>
        <time>2016-02-21T09:52:04Z</time>
      </trkpt>
      <trkpt lat="45.60402" lon="6.95351">
        <ele>1985.72</ele>
        <time>2016-02-21T09:52:05Z</time>
      </trkpt>
      <trkpt lat="45.60407" lon="6.95367">
        <ele>1985.23</ele>
        <time>2016-02-21T09:52:15Z</time>
      </trkpt>
      <trkpt lat="45.60407" lon="6.95368">
        <ele>1985.12</ele>
        <time>2016-02-21T09:52:16Z</time>
      </trkpt>
      <trkpt lat="45.60408" lon="6.95371">
        <ele>1984.89</ele>
        <time>2016-02-21T09:52:18Z</time>
      </trkpt>
      <trkpt lat="45.60414" lon="6.95385">
        <ele>1984.05</ele>
        <time>2016-02-21T09:52:29Z</time>
      </trkpt>
      <trkpt lat="45.60416" lon="6.95393">
        <ele>1984.05</ele>
        <time>2016-02-21T09:52:36Z</time>
      </trkpt>
      <trkpt lat="45.60417" lon="6.95399">
        <ele>1984.2</ele>
        <time>2016-02-21T09:52:40Z</time>
      </trkpt>
      <trkpt lat="45.60419" lon="6.9541">
        <ele>1984.32</ele>
        <time>2016-02-21T09:52:47Z</time>
      </trkpt>
      <trkpt lat="45.60422" lon="6.95417">
        <ele>1984.11</ele>
        <time>2016-02-21T09:52:52Z</time>
      </trkpt>
      <trkpt lat="45.60427" lon="6.95431">
        <ele>1983.6</ele>
        <time>2016-02-21T09:53:04Z</time>
      </trkpt>
      <trkpt lat="45.60427" lon="6.95434">
        <ele>1983.72</ele>
        <time>2016-02-21T09:53:08Z</time>
      </trkpt>
      <trkpt lat="45.60428" lon="6.95458">
        <ele>1982.66</ele>
        <time>2016-02-21T09:53:14Z</time>
      </trkpt>
      <trkpt lat="45.60426" lon="6.95467">
        <ele>1978.91</ele>
        <time>2016-02-21T09:53:20Z</time>
      </trkpt>
      <trkpt lat="45.60425" lon="6.95467">
        <ele>1978.65</ele>
        <time>2016-02-21T09:53:21Z</time>
      </trkpt>
      <trkpt lat="45.60423" lon="6.95474">
        <ele>1977.98</ele>
        <time>2016-02-21T09:53:28Z</time>
      </trkpt>
      <trkpt lat="45.60419" lon="6.95483">
        <ele>1977.86</ele>
        <time>2016-02-21T09:53:35Z</time>
      </trkpt>
      <trkpt lat="45.60417" lon="6.95492">
        <ele>1977.99</ele>
        <time>2016-02-21T09:53:43Z</time>
      </trkpt>
      <trkpt lat="45.60414" lon="6.95499">
        <ele>1978.07</ele>
        <time>2016-02-21T09:53:48Z</time>
      </trkpt>
      <trkpt lat="45.60413" lon="6.955">
        <ele>1978.09</ele>
        <time>2016-02-21T09:53:49Z</time>
      </trkpt>
      <trkpt lat="45.60406" lon="6.95511">
        <ele>1978.55</ele>
        <time>2016-02-21T09:54:00Z</time>
      </trkpt>
      <trkpt lat="45.60402" lon="6.95518">
        <ele>1978.91</ele>
        <time>2016-02-21T09:54:07Z</time>
      </trkpt>
      <trkpt lat="45.60398" lon="6.95524">
        <ele>1979.26</ele>
        <time>2016-02-21T09:54:12Z</time>
      </trkpt>
      <trkpt lat="45.60397" lon="6.95525">
        <ele>1979.31</ele>
        <time>2016-02-21T09:54:13Z</time>
      </trkpt>
      <trkpt lat="45.60396" lon="6.95526">
        <ele>1979.36</ele>
        <time>2016-02-21T09:54:14Z</time>
      </trkpt>
      <trkpt lat="45.60387" lon="6.95537">
        <ele>1979.61</ele>
        <time>2016-02-21T09:54:26Z</time>
      </trkpt>
      <trkpt lat="45.60382" lon="6.95547">
        <ele>1979.89</ele>
        <time>2016-02-21T09:54:35Z</time>
      </trkpt>
      <trkpt lat="45.60381" lon="6.95549">
        <ele>1979.94</ele>
        <time>2016-02-21T09:54:37Z</time>
      </trkpt>
      <trkpt lat="45.6038" lon="6.9555">
        <ele>1979.96</ele>
        <time>2016-02-21T09:54:38Z</time>
      </trkpt>
      <trkpt lat="45.60379" lon="6.95551">
        <ele>1979.96</ele>
        <time>2016-02-21T09:54:39Z</time>
      </trkpt>
      <trkpt lat="45.60371" lon="6.95562">
        <ele>1980.17</ele>
        <time>2016-02-21T09:54:50Z</time>
      </trkpt>
      <trkpt lat="45.60369" lon="6.95565">
        <ele>1980.55</ele>
        <time>2016-02-21T09:54:54Z</time>
      </trkpt>
      <trkpt lat="45.60368" lon="6.95566">
        <ele>1980.64</ele>
        <time>2016-02-21T09:54:55Z</time>
      </trkpt>
      <trkpt lat="45.60363" lon="6.95575">
        <ele>1981.47</ele>
        <time>2016-02-21T09:55:05Z</time>
      </trkpt>
      <trkpt lat="45.60357" lon="6.95584">
        <ele>1982.15</ele>
        <time>2016-02-21T09:55:15Z</time>
      </trkpt>
      <trkpt lat="45.60353" lon="6.95588">
        <ele>1982.78</ele>
        <time>2016-02-21T09:55:20Z</time>
      </trkpt>
      <trkpt lat="45.60348" lon="6.95595">
        <ele>1983.68</ele>
        <time>2016-02-21T09:55:27Z</time>
      </trkpt>
      <trkpt lat="45.60347" lon="6.95596">
        <ele>1983.77</ele>
        <time>2016-02-21T09:55:28Z</time>
      </trkpt>
      <trkpt lat="45.60347" lon="6.95597">
        <ele>1983.87</ele>
        <time>2016-02-21T09:55:29Z</time>
      </trkpt>
      <trkpt lat="45.60343" lon="6.95601">
        <ele>1984.44</ele>
        <time>2016-02-21T09:55:34Z</time>
      </trkpt>
      <trkpt lat="45.60342" lon="6.95602">
        <ele>1984.53</ele>
        <time>2016-02-21T09:55:35Z</time>
      </trkpt>
      <trkpt lat="45.60335" lon="6.95608">
        <ele>1985.39</ele>
        <time>2016-02-21T09:55:48Z</time>
      </trkpt>
      <trkpt lat="45.60329" lon="6.9561">
        <ele>1986.7</ele>
        <time>2016-02-21T09:56:01Z</time>
      </trkpt>
      <trkpt lat="45.60319" lon="6.95613">
        <ele>1988.67</ele>
        <time>2016-02-21T09:56:14Z</time>
      </trkpt>
      <trkpt lat="45.60316" lon="6.95616">
        <ele>1989.77</ele>
        <time>2016-02-21T09:56:31Z</time>
      </trkpt>
      <trkpt lat="45.60313" lon="6.95618">
        <ele>1989.6</ele>
        <time>2016-02-21T09:56:45Z</time>
      </trkpt>
      <trkpt lat="45.60312" lon="6.9562">
        <ele>1989.91</ele>
        <time>2016-02-21T09:56:59Z</time>
      </trkpt>
      <trkpt lat="45.60308" lon="6.95626">
        <ele>1990.38</ele>
        <time>2016-02-21T09:57:12Z</time>
      </trkpt>
      <trkpt lat="45.60301" lon="6.95632">
        <ele>1990.77</ele>
        <time>2016-02-21T09:57:24Z</time>
      </trkpt>
      <trkpt lat="45.60296" lon="6.95635">
        <ele>1991.2</ele>
        <time>2016-02-21T09:57:36Z</time>
      </trkpt>
      <trkpt lat="45.60297" lon="6.95637">
        <ele>1991.16</ele>
        <time>2016-02-21T09:57:52Z</time>
      </trkpt>
      <trkpt lat="45.60297" lon="6.95637">
        <ele>1990.33</ele>
        <time>2016-02-21T09:58:03Z</time>
      </trkpt>
      <trkpt lat="45.60297" lon="6.95635">
        <ele>1989.88</ele>
        <time>2016-02-21T09:58:17Z</time>
      </trkpt>
      <trkpt lat="45.60296" lon="6.95635">
        <ele>1989.8</ele>
        <time>2016-02-21T09:58:37Z</time>
      </trkpt>
      <trkpt lat="45.60296" lon="6.95634">
        <ele>1989.6</ele>
        <time>2016-02-21T09:58:54Z</time>
      </trkpt>
      <trkpt lat="45.60295" lon="6.95634">
        <ele>1989.75</ele>
        <time>2016-02-21T09:59:13Z</time>
      </trkpt>
      <trkpt lat="45.60295" lon="6.95633">
        <ele>1989.77</ele>
        <time>2016-02-21T09:59:30Z</time>
      </trkpt>
      <trkpt lat="45.60295" lon="6.95634">
        <ele>1989.84</ele>
        <time>2016-02-21T09:59:46Z</time>
      </trkpt>
      <trkpt lat="45.60295" lon="6.95634">
        <ele>1989.91</ele>
        <time>2016-02-21T10:00:02Z</time>
      </trkpt>
      <trkpt lat="45.60295" lon="6.95635">
        <ele>1989.93</ele>
        <time>2016-02-21T10:00:16Z</time>
      </trkpt>
      <trkpt lat="45.60295" lon="6.95634">
        <ele>1989.6</ele>
        <time>2016-02-21T10:00:32Z</time>
      </trkpt>
      <trkpt lat="45.60295" lon="6.95633">
        <ele>1989.25</ele>
        <time>2016-02-21T10:00:47Z</time>
      </trkpt>
      <trkpt lat="45.60295" lon="6.95632">
        <ele>1989.32</ele>
        <time>2016-02-21T10:01:02Z</time>
      </trkpt>
      <trkpt lat="45.60295" lon="6.95632">
        <ele>1989.35</ele>
        <time>2016-02-21T10:01:18Z</time>
      </trkpt>
      <trkpt lat="45.60295" lon="6.95632">
        <ele>1989.54</ele>
        <time>2016-02-21T10:01:35Z</time>
      </trkpt>
      <trkpt lat="45.60293" lon="6.95632">
        <ele>1989.4</ele>
        <time>2016-02-21T10:01:49Z</time>
      </trkpt>
      <trkpt lat="45.60295" lon="6.95633">
        <ele>1990.42</ele>
        <time>2016-02-21T10:02:02Z</time>
      </trkpt>
      <trkpt lat="45.60296" lon="6.95632">
        <ele>1990.62</ele>
        <time>2016-02-21T10:02:19Z</time>
      </trkpt>
      <trkpt lat="45.60296" lon="6.95635">
        <ele>1990.74</ele>
        <time>2016-02-21T10:02:38Z</time>
      </trkpt>
      <trkpt lat="45.60296" lon="6.95635">
        <ele>1991.98</ele>
        <time>2016-02-21T10:02:57Z</time>
      </trkpt>
      <trkpt lat="45.60296" lon="6.95635">
        <ele>1990.53</ele>
        <time>2016-02-21T10:03:13Z</time>
      </trkpt>
      <trkpt lat="45.60297" lon="6.95636">
        <ele>1990.01</ele>
        <time>2016-02-21T10:03:32Z</time>
      </trkpt>
      <trkpt lat="45.60299" lon="6.95636">
        <ele>1990.09</ele>
        <time>2016-02-21T10:03:49Z</time>
      </trkpt>
      <trkpt lat="45.60298" lon="6.95637">
        <ele>1989.95</ele>
        <time>2016-02-21T10:04:06Z</time>
      </trkpt>
      <trkpt lat="45.60298" lon="6.95635">
        <ele>1990</ele>
        <time>2016-02-21T10:04:22Z</time>
      </trkpt>
      <trkpt lat="45.60298" lon="6.95632">
        <ele>1989.95</ele>
        <time>2016-02-21T10:04:37Z</time>
      </trkpt>
      <trkpt lat="45.60295" lon="6.95633">
        <ele>1990.21</ele>
        <time>2016-02-21T10:04:57Z</time>
      </trkpt>
      <trkpt lat="45.60296" lon="6.95636">
        <ele>1990.05</ele>
        <time>2016-02-21T10:05:12Z</time>
      </trkpt>
      <trkpt lat="45.60296" lon="6.95635">
        <ele>1989.94</ele>
        <time>2016-02-21T10:05:31Z</time>
      </trkpt>
      <trkpt lat="45.60297" lon="6.95636">
        <ele>1989.84</ele>
        <time>2016-02-21T10:05:46Z</time>
      </trkpt>
      <trkpt lat="45.60296" lon="6.95635">
        <ele>1989.93</ele>
        <time>2016-02-21T10:06:06Z</time>
      </trkpt>
      <trkpt lat="45.60295" lon="6.95636">
        <ele>1990.34</ele>
        <time>2016-02-21T10:06:24Z</time>
      </trkpt>
      <trkpt lat="45.60288" lon="6.95639">
        <ele>1990.59</ele>
        <time>2016-02-21T10:06:37Z</time>
      </trkpt>
      <trkpt lat="45.60282" lon="6.95649">
        <ele>1991.36</ele>
        <time>2016-02-21T10:06:51Z</time>
      </trkpt>
      <trkpt lat="45.60284" lon="6.9566">
        <ele>1992.68</ele>
        <time>2016-02-21T10:07:05Z</time>
      </trkpt>
      <trkpt lat="45.6028" lon="6.95668">
        <ele>1993.57</ele>
        <time>2016-02-21T10:07:17Z</time>
      </trkpt>
      <trkpt lat="45.60275" lon="6.95677">
        <ele>1994.87</ele>
        <time>2016-02-21T10:07:30Z</time>
      </trkpt>
      <trkpt lat="45.60271" lon="6.95683">
        <ele>1996.01</ele>
        <time>2016-02-21T10:07:43Z</time>
      </trkpt>
      <trkpt lat="45.60266" lon="6.95693">
        <ele>1997.18</ele>
        <time>2016-02-21T10:07:56Z</time>
      </trkpt>
      <trkpt lat="45.60262" lon="6.95702">
        <ele>1998.27</ele>
        <time>2016-02-21T10:08:09Z</time>
      </trkpt>
      <trkpt lat="45.60257" lon="6.9571">
        <ele>1998.89</ele>
        <time>2016-02-21T10:08:20Z</time>
      </trkpt>
      <trkpt lat="45.60252" lon="6.95721">
        <ele>1999.91</ele>
        <time>2016-02-21T10:08:34Z</time>
      </trkpt>
      <trkpt lat="45.60246" lon="6.95729">
        <ele>2001.12</ele>
        <time>2016-02-21T10:08:48Z</time>
      </trkpt>
      <trkpt lat="45.60239" lon="6.95739">
        <ele>2002.46</ele>
        <time>2016-02-21T10:09:02Z</time>
      </trkpt>
      <trkpt lat="45.60234" lon="6.95747">
        <ele>2003.66</ele>
        <time>2016-02-21T10:09:13Z</time>
      </trkpt>
      <trkpt lat="45.6023" lon="6.95756">
        <ele>2004.7</ele>
        <time>2016-02-21T10:09:24Z</time>
      </trkpt>
      <trkpt lat="45.60223" lon="6.95766">
        <ele>2006.22</ele>
        <time>2016-02-21T10:09:39Z</time>
      </trkpt>
      <trkpt lat="45.60217" lon="6.95774">
        <ele>2007.1</ele>
        <time>2016-02-21T10:09:53Z</time>
      </trkpt>
      <trkpt lat="45.60211" lon="6.95781">
        <ele>2008.5</ele>
        <time>2016-02-21T10:10:07Z</time>
      </trkpt>
      <trkpt lat="45.60208" lon="6.95783">
        <ele>2008.85</ele>
        <time>2016-02-21T10:10:10Z</time>
      </trkpt>
      <trkpt lat="45.60201" lon="6.95791">
        <ele>2010.39</ele>
        <time>2016-02-21T10:10:23Z</time>
      </trkpt>
      <trkpt lat="45.60195" lon="6.95797">
        <ele>2011.21</ele>
        <time>2016-02-21T10:10:37Z</time>
      </trkpt>
      <trkpt lat="45.6019" lon="6.95807">
        <ele>2013.28</ele>
        <time>2016-02-21T10:10:53Z</time>
      </trkpt>
      <trkpt lat="45.60189" lon="6.95816">
        <ele>2014.98</ele>
        <time>2016-02-21T10:11:04Z</time>
      </trkpt>
      <trkpt lat="45.60188" lon="6.95819">
        <ele>2015.1</ele>
        <time>2016-02-21T10:11:06Z</time>
      </trkpt>
      <trkpt lat="45.60188" lon="6.95826">
        <ele>2016.9</ele>
        <time>2016-02-21T10:11:18Z</time>
      </trkpt>
      <trkpt lat="45.60186" lon="6.95841">
        <ele>2018.8</ele>
        <time>2016-02-21T10:11:34Z</time>
      </trkpt>
      <trkpt lat="45.60188" lon="6.9585">
        <ele>2020.1</ele>
        <time>2016-02-21T10:11:48Z</time>
      </trkpt>
      <trkpt lat="45.60191" lon="6.95862">
        <ele>2022.37</ele>
        <time>2016-02-21T10:12:05Z</time>
      </trkpt>
      <trkpt lat="45.60188" lon="6.95876">
        <ele>2024</ele>
        <time>2016-02-21T10:12:20Z</time>
      </trkpt>
      <trkpt lat="45.60184" lon="6.95888">
        <ele>2025.31</ele>
        <time>2016-02-21T10:12:32Z</time>
      </trkpt>
      <trkpt lat="45.60176" lon="6.95892">
        <ele>2026.04</ele>
        <time>2016-02-21T10:12:42Z</time>
      </trkpt>
      <trkpt lat="45.60169" lon="6.95897">
        <ele>2027.79</ele>
        <time>2016-02-21T10:12:55Z</time>
      </trkpt>
      <trkpt lat="45.6016" lon="6.95905">
        <ele>2028.97</ele>
        <time>2016-02-21T10:13:11Z</time>
      </trkpt>
      <trkpt lat="45.60153" lon="6.95909">
        <ele>2030.64</ele>
        <time>2016-02-21T10:13:26Z</time>
      </trkpt>
      <trkpt lat="45.60145" lon="6.95917">
        <ele>2032.51</ele>
        <time>2016-02-21T10:13:42Z</time>
      </trkpt>
      <trkpt lat="45.6014" lon="6.95922">
        <ele>2033.54</ele>
        <time>2016-02-21T10:13:51Z</time>
      </trkpt>
      <trkpt lat="45.60133" lon="6.9593">
        <ele>2034.64</ele>
        <time>2016-02-21T10:14:02Z</time>
      </trkpt>
      <trkpt lat="45.60128" lon="6.95935">
        <ele>2036.38</ele>
        <time>2016-02-21T10:14:17Z</time>
      </trkpt>
      <trkpt lat="45.60123" lon="6.95941">
        <ele>2038.14</ele>
        <time>2016-02-21T10:14:30Z</time>
      </trkpt>
      <trkpt lat="45.6012" lon="6.95944">
        <ele>2038.56</ele>
        <time>2016-02-21T10:14:35Z</time>
      </trkpt>
      <trkpt lat="45.60114" lon="6.95951">
        <ele>2040.41</ele>
        <time>2016-02-21T10:14:48Z</time>
      </trkpt>
      <trkpt lat="45.6011" lon="6.95955">
        <ele>2042.57</ele>
        <time>2016-02-21T10:15:03Z</time>
      </trkpt>
      <trkpt lat="45.60104" lon="6.95961">
        <ele>2044.02</ele>
        <time>2016-02-21T10:15:17Z</time>
      </trkpt>
      <trkpt lat="45.60097" lon="6.9597">
        <ele>2045.43</ele>
        <time>2016-02-21T10:15:29Z</time>
      </trkpt>
      <trkpt lat="45.60096" lon="6.9598">
        <ele>2047.47</ele>
        <time>2016-02-21T10:15:42Z</time>
      </trkpt>
      <trkpt lat="45.60101" lon="6.9599">
        <ele>2049.81</ele>
        <time>2016-02-21T10:15:58Z</time>
      </trkpt>
      <trkpt lat="45.60104" lon="6.95994">
        <ele>2051.62</ele>
        <time>2016-02-21T10:16:12Z</time>
      </trkpt>
      <trkpt lat="45.60105" lon="6.96001">
        <ele>2052.24</ele>
        <time>2016-02-21T10:16:28Z</time>
      </trkpt>
      <trkpt lat="45.60101" lon="6.96008">
        <ele>2054.21</ele>
        <time>2016-02-21T10:16:44Z</time>
      </trkpt>
      <trkpt lat="45.60093" lon="6.96019">
        <ele>2055.59</ele>
        <time>2016-02-21T10:16:59Z</time>
      </trkpt>
      <trkpt lat="45.60092" lon="6.9602">
        <ele>2055.68</ele>
        <time>2016-02-21T10:17:00Z</time>
      </trkpt>
      <trkpt lat="45.60084" lon="6.96026">
        <ele>2057.06</ele>
        <time>2016-02-21T10:17:15Z</time>
      </trkpt>
      <trkpt lat="45.60079" lon="6.96029">
        <ele>2059.36</ele>
        <time>2016-02-21T10:17:30Z</time>
      </trkpt>
      <trkpt lat="45.60071" lon="6.96037">
        <ele>2060.77</ele>
        <time>2016-02-21T10:17:44Z</time>
      </trkpt>
      <trkpt lat="45.60068" lon="6.96047">
        <ele>2062.39</ele>
        <time>2016-02-21T10:17:58Z</time>
      </trkpt>
      <trkpt lat="45.6006" lon="6.96055">
        <ele>2064.37</ele>
        <time>2016-02-21T10:18:12Z</time>
      </trkpt>
      <trkpt lat="45.60058" lon="6.9606">
        <ele>2065.67</ele>
        <time>2016-02-21T10:18:24Z</time>
      </trkpt>
      <trkpt lat="45.60055" lon="6.9607">
        <ele>2067.79</ele>
        <time>2016-02-21T10:18:40Z</time>
      </trkpt>
      <trkpt lat="45.60059" lon="6.9608">
        <ele>2069.67</ele>
        <time>2016-02-21T10:18:54Z</time>
      </trkpt>
      <trkpt lat="45.60061" lon="6.96088">
        <ele>2071.61</ele>
        <time>2016-02-21T10:19:11Z</time>
      </trkpt>
      <trkpt lat="45.60067" lon="6.96099">
        <ele>2072.87</ele>
        <time>2016-02-21T10:19:25Z</time>
      </trkpt>
      <trkpt lat="45.60064" lon="6.9611">
        <ele>2073.78</ele>
        <time>2016-02-21T10:19:40Z</time>
      </trkpt>
      <trkpt lat="45.60059" lon="6.96117">
        <ele>2075.03</ele>
        <time>2016-02-21T10:19:55Z</time>
      </trkpt>
      <trkpt lat="45.60054" lon="6.96122">
        <ele>2076.75</ele>
        <time>2016-02-21T10:20:10Z</time>
      </trkpt>
      <trkpt lat="45.60048" lon="6.96126">
        <ele>2078.86</ele>
        <time>2016-02-21T10:20:23Z</time>
      </trkpt>
      <trkpt lat="45.60041" lon="6.96133">
        <ele>2079.79</ele>
        <time>2016-02-21T10:20:38Z</time>
      </trkpt>
      <trkpt lat="45.60035" lon="6.96141">
        <ele>2081.56</ele>
        <time>2016-02-21T10:20:52Z</time>
      </trkpt>
      <trkpt lat="45.60039" lon="6.96151">
        <ele>2083.67</ele>
        <time>2016-02-21T10:21:08Z</time>
      </trkpt>
      <trkpt lat="45.60044" lon="6.96158">
        <ele>2085.71</ele>
        <time>2016-02-21T10:21:23Z</time>
      </trkpt>
      <trkpt lat="45.60048" lon="6.96166">
        <ele>2087.3</ele>
        <time>2016-02-21T10:21:38Z</time>
      </trkpt>
      <trkpt lat="45.6005" lon="6.96177">
        <ele>2089.6</ele>
        <time>2016-02-21T10:21:55Z</time>
      </trkpt>
      <trkpt lat="45.6005" lon="6.96189">
        <ele>2090.15</ele>
        <time>2016-02-21T10:22:10Z</time>
      </trkpt>
      <trkpt lat="45.6004" lon="6.96195">
        <ele>2091.95</ele>
        <time>2016-02-21T10:22:24Z</time>
      </trkpt>
      <trkpt lat="45.60032" lon="6.96201">
        <ele>2093.67</ele>
        <time>2016-02-21T10:22:38Z</time>
      </trkpt>
      <trkpt lat="45.60023" lon="6.96209">
        <ele>2095.94</ele>
        <time>2016-02-21T10:22:56Z</time>
      </trkpt>
      <trkpt lat="45.60019" lon="6.96213">
        <ele>2097.68</ele>
        <time>2016-02-21T10:23:10Z</time>
      </trkpt>
      <trkpt lat="45.60025" lon="6.9622">
        <ele>2100.19</ele>
        <time>2016-02-21T10:23:26Z</time>
      </trkpt>
      <trkpt lat="45.60029" lon="6.96231">
        <ele>2102.1</ele>
        <time>2016-02-21T10:23:42Z</time>
      </trkpt>
      <trkpt lat="45.60033" lon="6.96241">
        <ele>2103.8</ele>
        <time>2016-02-21T10:23:59Z</time>
      </trkpt>
      <trkpt lat="45.60026" lon="6.96248">
        <ele>2104.85</ele>
        <time>2016-02-21T10:24:14Z</time>
      </trkpt>
      <trkpt lat="45.60016" lon="6.9625">
        <ele>2106.19</ele>
        <time>2016-02-21T10:24:27Z</time>
      </trkpt>
      <trkpt lat="45.60015" lon="6.96258">
        <ele>2108.5</ele>
        <time>2016-02-21T10:24:42Z</time>
      </trkpt>
      <trkpt lat="45.60018" lon="6.96269">
        <ele>2110.38</ele>
        <time>2016-02-21T10:24:58Z</time>
      </trkpt>
      <trkpt lat="45.60017" lon="6.96279">
        <ele>2111.16</ele>
        <time>2016-02-21T10:25:11Z</time>
      </trkpt>
      <trkpt lat="45.60015" lon="6.9628">
        <ele>2111.16</ele>
        <time>2016-02-21T10:25:13Z</time>
      </trkpt>
      <trkpt lat="45.60005" lon="6.96279">
        <ele>2112.55</ele>
        <time>2016-02-21T10:25:28Z</time>
      </trkpt>
      <trkpt lat="45.60003" lon="6.96279">
        <ele>2112.72</ele>
        <time>2016-02-21T10:25:31Z</time>
      </trkpt>
      <trkpt lat="45.59999" lon="6.96282">
        <ele>2113.26</ele>
        <time>2016-02-21T10:25:36Z</time>
      </trkpt>
      <trkpt lat="45.59997" lon="6.96287">
        <ele>2115.75</ele>
        <time>2016-02-21T10:25:49Z</time>
      </trkpt>
      <trkpt lat="45.6" lon="6.96301">
        <ele>2117.64</ele>
        <time>2016-02-21T10:26:05Z</time>
      </trkpt>
      <trkpt lat="45.60006" lon="6.96316">
        <ele>2119.51</ele>
        <time>2016-02-21T10:26:23Z</time>
      </trkpt>
      <trkpt lat="45.6001" lon="6.96328">
        <ele>2120.91</ele>
        <time>2016-02-21T10:26:38Z</time>
      </trkpt>
      <trkpt lat="45.60003" lon="6.96334">
        <ele>2122.04</ele>
        <time>2016-02-21T10:26:50Z</time>
      </trkpt>
      <trkpt lat="45.59995" lon="6.96332">
        <ele>2124.12</ele>
        <time>2016-02-21T10:27:05Z</time>
      </trkpt>
      <trkpt lat="45.5999" lon="6.96329">
        <ele>2125.42</ele>
        <time>2016-02-21T10:27:18Z</time>
      </trkpt>
      <trkpt lat="45.5999" lon="6.96336">
        <ele>2126.84</ele>
        <time>2016-02-21T10:27:32Z</time>
      </trkpt>
      <trkpt lat="45.59991" lon="6.96349">
        <ele>2128.98</ele>
        <time>2016-02-21T10:27:50Z</time>
      </trkpt>
      <trkpt lat="45.59992" lon="6.96359">
        <ele>2130.71</ele>
        <time>2016-02-21T10:28:05Z</time>
      </trkpt>
      <trkpt lat="45.59992" lon="6.96369">
        <ele>2132.96</ele>
        <time>2016-02-21T10:28:22Z</time>
      </trkpt>
      <trkpt lat="45.59992" lon="6.96379">
        <ele>2134.61</ele>
        <time>2016-02-21T10:28:38Z</time>
      </trkpt>
      <trkpt lat="45.59993" lon="6.96388">
        <ele>2136.12</ele>
        <time>2016-02-21T10:28:52Z</time>
      </trkpt>
      <trkpt lat="45.60005" lon="6.964">
        <ele>2138.07</ele>
        <time>2016-02-21T10:29:13Z</time>
      </trkpt>
      <trkpt lat="45.60008" lon="6.96408">
        <ele>2139.09</ele>
        <time>2016-02-21T10:29:26Z</time>
      </trkpt>
      <trkpt lat="45.60004" lon="6.96414">
        <ele>2139.74</ele>
        <time>2016-02-21T10:29:39Z</time>
      </trkpt>
      <trkpt lat="45.59997" lon="6.96422">
        <ele>2141.35</ele>
        <time>2016-02-21T10:29:55Z</time>
      </trkpt>
      <trkpt lat="45.59991" lon="6.96427">
        <ele>2143.15</ele>
        <time>2016-02-21T10:30:08Z</time>
      </trkpt>
      <trkpt lat="45.59986" lon="6.96435">
        <ele>2145.38</ele>
        <time>2016-02-21T10:30:23Z</time>
      </trkpt>
      <trkpt lat="45.59986" lon="6.96442">
        <ele>2147.34</ele>
        <time>2016-02-21T10:30:40Z</time>
      </trkpt>
      <trkpt lat="45.59989" lon="6.96454">
        <ele>2149.48</ele>
        <time>2016-02-21T10:30:56Z</time>
      </trkpt>
      <trkpt lat="45.59995" lon="6.96463">
        <ele>2151.09</ele>
        <time>2016-02-21T10:31:12Z</time>
      </trkpt>
      <trkpt lat="45.59993" lon="6.96475">
        <ele>2151.85</ele>
        <time>2016-02-21T10:31:27Z</time>
      </trkpt>
      <trkpt lat="45.59985" lon="6.9648">
        <ele>2152.84</ele>
        <time>2016-02-21T10:31:41Z</time>
      </trkpt>
      <trkpt lat="45.59977" lon="6.96483">
        <ele>2154.41</ele>
        <time>2016-02-21T10:31:56Z</time>
      </trkpt>
      <trkpt lat="45.59974" lon="6.96489">
        <ele>2156.48</ele>
        <time>2016-02-21T10:32:10Z</time>
      </trkpt>
      <trkpt lat="45.59975" lon="6.96495">
        <ele>2159.04</ele>
        <time>2016-02-21T10:32:24Z</time>
      </trkpt>
      <trkpt lat="45.59976" lon="6.96505">
        <ele>2160.69</ele>
        <time>2016-02-21T10:32:40Z</time>
      </trkpt>
      <trkpt lat="45.59975" lon="6.96514">
        <ele>2162.04</ele>
        <time>2016-02-21T10:32:55Z</time>
      </trkpt>
      <trkpt lat="45.59981" lon="6.96528">
        <ele>2164.05</ele>
        <time>2016-02-21T10:33:13Z</time>
      </trkpt>
      <trkpt lat="45.59982" lon="6.96533">
        <ele>2165.16</ele>
        <time>2016-02-21T10:33:28Z</time>
      </trkpt>
      <trkpt lat="45.59975" lon="6.9654">
        <ele>2166.36</ele>
        <time>2016-02-21T10:33:43Z</time>
      </trkpt>
      <trkpt lat="45.59969" lon="6.96543">
        <ele>2168.23</ele>
        <time>2016-02-21T10:33:57Z</time>
      </trkpt>
      <trkpt lat="45.59962" lon="6.96548">
        <ele>2169.43</ele>
        <time>2016-02-21T10:34:10Z</time>
      </trkpt>
      <trkpt lat="45.59959" lon="6.96558">
        <ele>2171.97</ele>
        <time>2016-02-21T10:34:24Z</time>
      </trkpt>
      <trkpt lat="45.59962" lon="6.96567">
        <ele>2173.7</ele>
        <time>2016-02-21T10:34:40Z</time>
      </trkpt>
      <trkpt lat="45.59963" lon="6.96576">
        <ele>2175.74</ele>
        <time>2016-02-21T10:34:54Z</time>
      </trkpt>
      <trkpt lat="45.59966" lon="6.96587">
        <ele>2177.38</ele>
        <time>2016-02-21T10:35:10Z</time>
      </trkpt>
      <trkpt lat="45.59972" lon="6.96597">
        <ele>2179.39</ele>
        <time>2016-02-21T10:35:27Z</time>
      </trkpt>
      <trkpt lat="45.59978" lon="6.96604">
        <ele>2180.87</ele>
        <time>2016-02-21T10:35:42Z</time>
      </trkpt>
      <trkpt lat="45.59975" lon="6.96617">
        <ele>2182.04</ele>
        <time>2016-02-21T10:35:57Z</time>
      </trkpt>
      <trkpt lat="45.59968" lon="6.96627">
        <ele>2183.36</ele>
        <time>2016-02-21T10:36:14Z</time>
      </trkpt>
      <trkpt lat="45.59959" lon="6.96638">
        <ele>2184.66</ele>
        <time>2016-02-21T10:36:31Z</time>
      </trkpt>
      <trkpt lat="45.59953" lon="6.96644">
        <ele>2185.94</ele>
        <time>2016-02-21T10:36:45Z</time>
      </trkpt>
      <trkpt lat="45.59949" lon="6.96649">
        <ele>2188.01</ele>
        <time>2016-02-21T10:37:05Z</time>
      </trkpt>
      <trkpt lat="45.59945" lon="6.96658">
        <ele>2189.96</ele>
        <time>2016-02-21T10:37:20Z</time>
      </trkpt>
      <trkpt lat="45.59942" lon="6.96669">
        <ele>2192.28</ele>
        <time>2016-02-21T10:37:38Z</time>
      </trkpt>
      <trkpt lat="45.59949" lon="6.96678">
        <ele>2194.4</ele>
        <time>2016-02-21T10:37:55Z</time>
      </trkpt>
      <trkpt lat="45.59953" lon="6.96692">
        <ele>2196.37</ele>
        <time>2016-02-21T10:38:13Z</time>
      </trkpt>
      <trkpt lat="45.59956" lon="6.96706">
        <ele>2197.38</ele>
        <time>2016-02-21T10:38:29Z</time>
      </trkpt>
      <trkpt lat="45.59954" lon="6.96713">
        <ele>2198.2</ele>
        <time>2016-02-21T10:38:44Z</time>
      </trkpt>
      <trkpt lat="45.59948" lon="6.96716">
        <ele>2199.54</ele>
        <time>2016-02-21T10:39:00Z</time>
      </trkpt>
      <trkpt lat="45.59939" lon="6.96722">
        <ele>2200.61</ele>
        <time>2016-02-21T10:39:13Z</time>
      </trkpt>
      <trkpt lat="45.59933" lon="6.96727">
        <ele>2202.31</ele>
        <time>2016-02-21T10:39:26Z</time>
      </trkpt>
      <trkpt lat="45.59926" lon="6.96737">
        <ele>2203.48</ele>
        <time>2016-02-21T10:39:41Z</time>
      </trkpt>
      <trkpt lat="45.59928" lon="6.96746">
        <ele>2205.57</ele>
        <time>2016-02-21T10:39:56Z</time>
      </trkpt>
      <trkpt lat="45.59933" lon="6.96755">
        <ele>2207.19</ele>
        <time>2016-02-21T10:40:10Z</time>
      </trkpt>
      <trkpt lat="45.59935" lon="6.96766">
        <ele>2208.91</ele>
        <time>2016-02-21T10:40:26Z</time>
      </trkpt>
      <trkpt lat="45.59932" lon="6.96773">
        <ele>2210.13</ele>
        <time>2016-02-21T10:40:39Z</time>
      </trkpt>
      <trkpt lat="45.59925" lon="6.96778">
        <ele>2211.24</ele>
        <time>2016-02-21T10:40:53Z</time>
      </trkpt>
      <trkpt lat="45.59918" lon="6.96784">
        <ele>2213.12</ele>
        <time>2016-02-21T10:41:10Z</time>
      </trkpt>
      <trkpt lat="45.59916" lon="6.96792">
        <ele>2215.34</ele>
        <time>2016-02-21T10:41:25Z</time>
      </trkpt>
      <trkpt lat="45.5992" lon="6.96803">
        <ele>2216.92</ele>
        <time>2016-02-21T10:41:39Z</time>
      </trkpt>
      <trkpt lat="45.59922" lon="6.96813">
        <ele>2218.62</ele>
        <time>2016-02-21T10:41:55Z</time>
      </trkpt>
      <trkpt lat="45.59926" lon="6.96827">
        <ele>2220.04</ele>
        <time>2016-02-21T10:42:13Z</time>
      </trkpt>
      <trkpt lat="45.59917" lon="6.96833">
        <ele>2222.2</ele>
        <time>2016-02-21T10:42:31Z</time>
      </trkpt>
      <trkpt lat="45.59909" lon="6.96839">
        <ele>2223.43</ele>
        <time>2016-02-21T10:42:45Z</time>
      </trkpt>
      <trkpt lat="45.599" lon="6.96844">
        <ele>2224.5</ele>
        <time>2016-02-21T10:42:59Z</time>
      </trkpt>
      <trkpt lat="45.59894" lon="6.96848">
        <ele>2225.95</ele>
        <time>2016-02-21T10:43:11Z</time>
      </trkpt>
      <trkpt lat="45.59889" lon="6.9685">
        <ele>2227.19</ele>
        <time>2016-02-21T10:43:25Z</time>
      </trkpt>
      <trkpt lat="45.59886" lon="6.96864">
        <ele>2229.96</ele>
        <time>2016-02-21T10:43:43Z</time>
      </trkpt>
      <trkpt lat="45.59887" lon="6.96877">
        <ele>2231.64</ele>
        <time>2016-02-21T10:43:59Z</time>
      </trkpt>
      <trkpt lat="45.59889" lon="6.9689">
        <ele>2233.07</ele>
        <time>2016-02-21T10:44:14Z</time>
      </trkpt>
      <trkpt lat="45.59889" lon="6.96903">
        <ele>2234.01</ele>
        <time>2016-02-21T10:44:29Z</time>
      </trkpt>
      <trkpt lat="45.59885" lon="6.96908">
        <ele>2235.38</ele>
        <time>2016-02-21T10:44:41Z</time>
      </trkpt>
      <trkpt lat="45.59874" lon="6.96911">
        <ele>2237.01</ele>
        <time>2016-02-21T10:44:57Z</time>
      </trkpt>
      <trkpt lat="45.59866" lon="6.96915">
        <ele>2239.05</ele>
        <time>2016-02-21T10:45:14Z</time>
      </trkpt>
      <trkpt lat="45.59861" lon="6.96915">
        <ele>2239.75</ele>
        <time>2016-02-21T10:45:21Z</time>
      </trkpt>
      <trkpt lat="45.59852" lon="6.96914">
        <ele>2240.93</ele>
        <time>2016-02-21T10:45:35Z</time>
      </trkpt>
      <trkpt lat="45.59842" lon="6.96912">
        <ele>2242.97</ele>
        <time>2016-02-21T10:45:51Z</time>
      </trkpt>
      <trkpt lat="45.59839" lon="6.96921">
        <ele>2245.44</ele>
        <time>2016-02-21T10:46:06Z</time>
      </trkpt>
      <trkpt lat="45.59838" lon="6.96933">
        <ele>2247.16</ele>
        <time>2016-02-21T10:46:21Z</time>
      </trkpt>
      <trkpt lat="45.59841" lon="6.96942">
        <ele>2247.87</ele>
        <time>2016-02-21T10:46:34Z</time>
      </trkpt>
      <trkpt lat="45.59842" lon="6.96956">
        <ele>2249.75</ele>
        <time>2016-02-21T10:46:50Z</time>
      </trkpt>
      <trkpt lat="45.59843" lon="6.96959">
        <ele>2250.54</ele>
        <time>2016-02-21T10:47:04Z</time>
      </trkpt>
      <trkpt lat="45.59842" lon="6.96961">
        <ele>2250.91</ele>
        <time>2016-02-21T10:47:29Z</time>
      </trkpt>
      <trkpt lat="45.59846" lon="6.96972">
        <ele>2251.44</ele>
        <time>2016-02-21T10:47:44Z</time>
      </trkpt>
      <trkpt lat="45.59855" lon="6.96981">
        <ele>2252.71</ele>
        <time>2016-02-21T10:47:58Z</time>
      </trkpt>
      <trkpt lat="45.59863" lon="6.96987">
        <ele>2254.65</ele>
        <time>2016-02-21T10:48:15Z</time>
      </trkpt>
      <trkpt lat="45.59862" lon="6.96992">
        <ele>2256.34</ele>
        <time>2016-02-21T10:48:29Z</time>
      </trkpt>
      <trkpt lat="45.59858" lon="6.97">
        <ele>2258.27</ele>
        <time>2016-02-21T10:48:46Z</time>
      </trkpt>
      <trkpt lat="45.59852" lon="6.97007">
        <ele>2259.47</ele>
        <time>2016-02-21T10:48:56Z</time>
      </trkpt>
      <trkpt lat="45.59847" lon="6.97019">
        <ele>2261.26</ele>
        <time>2016-02-21T10:49:11Z</time>
      </trkpt>
      <trkpt lat="45.5985" lon="6.9702">
        <ele>2262.51</ele>
        <time>2016-02-21T10:49:24Z</time>
      </trkpt>
      <trkpt lat="45.59855" lon="6.97022">
        <ele>2264.43</ele>
        <time>2016-02-21T10:49:38Z</time>
      </trkpt>
      <trkpt lat="45.59861" lon="6.97022">
        <ele>2265.81</ele>
        <time>2016-02-21T10:49:52Z</time>
      </trkpt>
      <trkpt lat="45.59869" lon="6.97021">
        <ele>2267.21</ele>
        <time>2016-02-21T10:50:05Z</time>
      </trkpt>
      <trkpt lat="45.59876" lon="6.97021">
        <ele>2268.57</ele>
        <time>2016-02-21T10:50:20Z</time>
      </trkpt>
      <trkpt lat="45.59883" lon="6.97024">
        <ele>2270.5</ele>
        <time>2016-02-21T10:50:36Z</time>
      </trkpt>
      <trkpt lat="45.59884" lon="6.97027">
        <ele>2271.51</ele>
        <time>2016-02-21T10:50:50Z</time>
      </trkpt>
      <trkpt lat="45.5988" lon="6.97036">
        <ele>2272.51</ele>
        <time>2016-02-21T10:51:03Z</time>
      </trkpt>
      <trkpt lat="45.59875" lon="6.97044">
        <ele>2273.81</ele>
        <time>2016-02-21T10:51:16Z</time>
      </trkpt>
      <trkpt lat="45.59873" lon="6.97052">
        <ele>2275.26</ele>
        <time>2016-02-21T10:51:33Z</time>
      </trkpt>
      <trkpt lat="45.5987" lon="6.97057">
        <ele>2276.39</ele>
        <time>2016-02-21T10:51:47Z</time>
      </trkpt>
      <trkpt lat="45.59862" lon="6.97066">
        <ele>2278.41</ele>
        <time>2016-02-21T10:52:03Z</time>
      </trkpt>
      <trkpt lat="45.59858" lon="6.97071">
        <ele>2280.04</ele>
        <time>2016-02-21T10:52:17Z</time>
      </trkpt>
      <trkpt lat="45.59855" lon="6.97078">
        <ele>2281.47</ele>
        <time>2016-02-21T10:52:31Z</time>
      </trkpt>
      <trkpt lat="45.59847" lon="6.97088">
        <ele>2283.02</ele>
        <time>2016-02-21T10:52:46Z</time>
      </trkpt>
      <trkpt lat="45.59842" lon="6.97094">
        <ele>2284.75</ele>
        <time>2016-02-21T10:52:59Z</time>
      </trkpt>
      <trkpt lat="45.59844" lon="6.97092">
        <ele>2285.7</ele>
        <time>2016-02-21T10:53:12Z</time>
      </trkpt>
      <trkpt lat="45.59852" lon="6.97091">
        <ele>2287.12</ele>
        <time>2016-02-21T10:53:29Z</time>
      </trkpt>
      <trkpt lat="45.59859" lon="6.97092">
        <ele>2288.33</ele>
        <time>2016-02-21T10:53:43Z</time>
      </trkpt>
      <trkpt lat="45.59864" lon="6.97093">
        <ele>2289.72</ele>
        <time>2016-02-21T10:53:57Z</time>
      </trkpt>
      <trkpt lat="45.59873" lon="6.9709">
        <ele>2291.85</ele>
        <time>2016-02-21T10:54:15Z</time>
      </trkpt>
      <trkpt lat="45.59879" lon="6.97094">
        <ele>2293.31</ele>
        <time>2016-02-21T10:54:31Z</time>
      </trkpt>
      <trkpt lat="45.59887" lon="6.97097">
        <ele>2294.79</ele>
        <time>2016-02-21T10:54:46Z</time>
      </trkpt>
      <trkpt lat="45.5989" lon="6.971">
        <ele>2295.63</ele>
        <time>2016-02-21T10:55:00Z</time>
      </trkpt>
      <trkpt lat="45.59887" lon="6.97108">
        <ele>2296.6</ele>
        <time>2016-02-21T10:55:15Z</time>
      </trkpt>
      <trkpt lat="45.59883" lon="6.97117">
        <ele>2297.92</ele>
        <time>2016-02-21T10:55:29Z</time>
      </trkpt>
      <trkpt lat="45.5988" lon="6.97125">
        <ele>2299.17</ele>
        <time>2016-02-21T10:55:43Z</time>
      </trkpt>
      <trkpt lat="45.59874" lon="6.97134">
        <ele>2300.23</ele>
        <time>2016-02-21T10:55:55Z</time>
      </trkpt>
      <trkpt lat="45.5987" lon="6.97142">
        <ele>2301.14</ele>
        <time>2016-02-21T10:56:07Z</time>
      </trkpt>
      <trkpt lat="45.59864" lon="6.97151">
        <ele>2302.21</ele>
        <time>2016-02-21T10:56:20Z</time>
      </trkpt>
      <trkpt lat="45.59861" lon="6.97157">
        <ele>2303.3</ele>
        <time>2016-02-21T10:56:31Z</time>
      </trkpt>
      <trkpt lat="45.59861" lon="6.97156">
        <ele>2304.58</ele>
        <time>2016-02-21T10:56:45Z</time>
      </trkpt>
      <trkpt lat="45.59868" lon="6.97159">
        <ele>2306.59</ele>
        <time>2016-02-21T10:57:00Z</time>
      </trkpt>
      <trkpt lat="45.59875" lon="6.97162">
        <ele>2307.94</ele>
        <time>2016-02-21T10:57:15Z</time>
      </trkpt>
      <trkpt lat="45.59883" lon="6.97165">
        <ele>2309.5</ele>
        <time>2016-02-21T10:57:31Z</time>
      </trkpt>
      <trkpt lat="45.59887" lon="6.97169">
        <ele>2310.24</ele>
        <time>2016-02-21T10:57:46Z</time>
      </trkpt>
      <trkpt lat="45.59884" lon="6.97175">
        <ele>2310.83</ele>
        <time>2016-02-21T10:57:59Z</time>
      </trkpt>
      <trkpt lat="45.59881" lon="6.97179">
        <ele>2312.18</ele>
        <time>2016-02-21T10:58:14Z</time>
      </trkpt>
      <trkpt lat="45.59876" lon="6.97184">
        <ele>2312.95</ele>
        <time>2016-02-21T10:58:28Z</time>
      </trkpt>
      <trkpt lat="45.5987" lon="6.97189">
        <ele>2314.43</ele>
        <time>2016-02-21T10:58:42Z</time>
      </trkpt>
      <trkpt lat="45.59867" lon="6.97192">
        <ele>2315.76</ele>
        <time>2016-02-21T10:58:54Z</time>
      </trkpt>
      <trkpt lat="45.59871" lon="6.97193">
        <ele>2316.78</ele>
        <time>2016-02-21T10:59:06Z</time>
      </trkpt>
      <trkpt lat="45.59878" lon="6.97196">
        <ele>2317.94</ele>
        <time>2016-02-21T10:59:20Z</time>
      </trkpt>
      <trkpt lat="45.59885" lon="6.97198">
        <ele>2319.7</ele>
        <time>2016-02-21T10:59:36Z</time>
      </trkpt>
      <trkpt lat="45.59893" lon="6.97203">
        <ele>2320.9</ele>
        <time>2016-02-21T10:59:53Z</time>
      </trkpt>
      <trkpt lat="45.599" lon="6.97205">
        <ele>2322.2</ele>
        <time>2016-02-21T11:00:09Z</time>
      </trkpt>
      <trkpt lat="45.599" lon="6.9721">
        <ele>2323.43</ele>
        <time>2016-02-21T11:00:20Z</time>
      </trkpt>
      <trkpt lat="45.59898" lon="6.97217">
        <ele>2324.44</ele>
        <time>2016-02-21T11:00:32Z</time>
      </trkpt>
      <trkpt lat="45.59893" lon="6.97224">
        <ele>2326.03</ele>
        <time>2016-02-21T11:00:46Z</time>
      </trkpt>
      <trkpt lat="45.59891" lon="6.97228">
        <ele>2327.3</ele>
        <time>2016-02-21T11:00:58Z</time>
      </trkpt>
      <trkpt lat="45.59888" lon="6.9723">
        <ele>2328.39</ele>
        <time>2016-02-21T11:01:19Z</time>
      </trkpt>
      <trkpt lat="45.59884" lon="6.97234">
        <ele>2329.23</ele>
        <time>2016-02-21T11:01:32Z</time>
      </trkpt>
      <trkpt lat="45.59875" lon="6.97239">
        <ele>2330.48</ele>
        <time>2016-02-21T11:01:48Z</time>
      </trkpt>
      <trkpt lat="45.59868" lon="6.97244">
        <ele>2332.74</ele>
        <time>2016-02-21T11:02:06Z</time>
      </trkpt>
      <trkpt lat="45.59864" lon="6.97248">
        <ele>2334.42</ele>
        <time>2016-02-21T11:02:19Z</time>
      </trkpt>
      <trkpt lat="45.59864" lon="6.97248">
        <ele>2335.21</ele>
        <time>2016-02-21T11:02:34Z</time>
      </trkpt>
      <trkpt lat="45.59867" lon="6.97257">
        <ele>2336.7</ele>
        <time>2016-02-21T11:02:53Z</time>
      </trkpt>
      <trkpt lat="45.59871" lon="6.97262">
        <ele>2338.07</ele>
        <time>2016-02-21T11:03:07Z</time>
      </trkpt>
      <trkpt lat="45.59878" lon="6.97266">
        <ele>2339.48</ele>
        <time>2016-02-21T11:03:22Z</time>
      </trkpt>
      <trkpt lat="45.59889" lon="6.97273">
        <ele>2341.28</ele>
        <time>2016-02-21T11:03:40Z</time>
      </trkpt>
      <trkpt lat="45.59892" lon="6.97277">
        <ele>2342.73</ele>
        <time>2016-02-21T11:03:55Z</time>
      </trkpt>
      <trkpt lat="45.5989" lon="6.97287">
        <ele>2343.41</ele>
        <time>2016-02-21T11:04:12Z</time>
      </trkpt>
      <trkpt lat="45.59881" lon="6.97293">
        <ele>2345.11</ele>
        <time>2016-02-21T11:04:27Z</time>
      </trkpt>
      <trkpt lat="45.59876" lon="6.97301">
        <ele>2346.4</ele>
        <time>2016-02-21T11:04:40Z</time>
      </trkpt>
      <trkpt lat="45.5987" lon="6.97307">
        <ele>2348.08</ele>
        <time>2016-02-21T11:04:57Z</time>
      </trkpt>
      <trkpt lat="45.59873" lon="6.9731">
        <ele>2349.14</ele>
        <time>2016-02-21T11:05:12Z</time>
      </trkpt>
      <trkpt lat="45.59874" lon="6.9731">
        <ele>2349.8</ele>
        <time>2016-02-21T11:05:31Z</time>
      </trkpt>
      <trkpt lat="45.59879" lon="6.97309">
        <ele>2350.05</ele>
        <time>2016-02-21T11:05:53Z</time>
      </trkpt>
      <trkpt lat="45.59889" lon="6.97311">
        <ele>2351.11</ele>
        <time>2016-02-21T11:06:11Z</time>
      </trkpt>
      <trkpt lat="45.59898" lon="6.97309">
        <ele>2353.25</ele>
        <time>2016-02-21T11:06:30Z</time>
      </trkpt>
      <trkpt lat="45.59909" lon="6.97305">
        <ele>2354.88</ele>
        <time>2016-02-21T11:06:47Z</time>
      </trkpt>
      <trkpt lat="45.59916" lon="6.97302">
        <ele>2356.52</ele>
        <time>2016-02-21T11:07:02Z</time>
      </trkpt>
      <trkpt lat="45.59918" lon="6.97305">
        <ele>2357.93</ele>
        <time>2016-02-21T11:07:16Z</time>
      </trkpt>
      <trkpt lat="45.59914" lon="6.97319">
        <ele>2359.33</ele>
        <time>2016-02-21T11:07:36Z</time>
      </trkpt>
      <trkpt lat="45.59911" lon="6.97329">
        <ele>2360.27</ele>
        <time>2016-02-21T11:07:50Z</time>
      </trkpt>
      <trkpt lat="45.59912" lon="6.97333">
        <ele>2361.76</ele>
        <time>2016-02-21T11:08:06Z</time>
      </trkpt>
      <trkpt lat="45.59918" lon="6.97335">
        <ele>2363.52</ele>
        <time>2016-02-21T11:08:23Z</time>
      </trkpt>
      <trkpt lat="45.59925" lon="6.97336">
        <ele>2364.94</ele>
        <time>2016-02-21T11:08:38Z</time>
      </trkpt>
      <trkpt lat="45.59925" lon="6.97339">
        <ele>2366.15</ele>
        <time>2016-02-21T11:08:50Z</time>
      </trkpt>
      <trkpt lat="45.59922" lon="6.9735">
        <ele>2366.93</ele>
        <time>2016-02-21T11:09:05Z</time>
      </trkpt>
      <trkpt lat="45.59916" lon="6.97363">
        <ele>2368.67</ele>
        <time>2016-02-21T11:09:24Z</time>
      </trkpt>
      <trkpt lat="45.59917" lon="6.97366">
        <ele>2370.72</ele>
        <time>2016-02-21T11:09:38Z</time>
      </trkpt>
      <trkpt lat="45.59924" lon="6.97369">
        <ele>2372.09</ele>
        <time>2016-02-21T11:09:55Z</time>
      </trkpt>
      <trkpt lat="45.59932" lon="6.9737">
        <ele>2373.46</ele>
        <time>2016-02-21T11:10:11Z</time>
      </trkpt>
      <trkpt lat="45.59939" lon="6.97369">
        <ele>2375.52</ele>
        <time>2016-02-21T11:10:28Z</time>
      </trkpt>
      <trkpt lat="45.59945" lon="6.97364">
        <ele>2377.2</ele>
        <time>2016-02-21T11:10:43Z</time>
      </trkpt>
      <trkpt lat="45.59952" lon="6.97361">
        <ele>2378.92</ele>
        <time>2016-02-21T11:10:58Z</time>
      </trkpt>
      <trkpt lat="45.59964" lon="6.97361">
        <ele>2381.03</ele>
        <time>2016-02-21T11:11:17Z</time>
      </trkpt>
      <trkpt lat="45.59971" lon="6.97361">
        <ele>2382.73</ele>
        <time>2016-02-21T11:11:32Z</time>
      </trkpt>
      <trkpt lat="45.5997" lon="6.97364">
        <ele>2383.46</ele>
        <time>2016-02-21T11:11:46Z</time>
      </trkpt>
      <trkpt lat="45.5997" lon="6.97367">
        <ele>2384</ele>
        <time>2016-02-21T11:12:12Z</time>
      </trkpt>
      <trkpt lat="45.59969" lon="6.97376">
        <ele>2385.03</ele>
        <time>2016-02-21T11:12:28Z</time>
      </trkpt>
      <trkpt lat="45.59964" lon="6.97384">
        <ele>2386.06</ele>
        <time>2016-02-21T11:12:41Z</time>
      </trkpt>
      <trkpt lat="45.59961" lon="6.97395">
        <ele>2388.04</ele>
        <time>2016-02-21T11:12:58Z</time>
      </trkpt>
      <trkpt lat="45.59958" lon="6.97407">
        <ele>2389.57</ele>
        <time>2016-02-21T11:13:14Z</time>
      </trkpt>
      <trkpt lat="45.59955" lon="6.97416">
        <ele>2391.26</ele>
        <time>2016-02-21T11:13:30Z</time>
      </trkpt>
      <trkpt lat="45.59953" lon="6.97422">
        <ele>2392.64</ele>
        <time>2016-02-21T11:13:44Z</time>
      </trkpt>
      <trkpt lat="45.59951" lon="6.97422">
        <ele>2393.36</ele>
        <time>2016-02-21T11:14:05Z</time>
      </trkpt>
      <trkpt lat="45.59947" lon="6.97428">
        <ele>2393.98</ele>
        <time>2016-02-21T11:14:19Z</time>
      </trkpt>
      <trkpt lat="45.59948" lon="6.9743">
        <ele>2395.01</ele>
        <time>2016-02-21T11:14:33Z</time>
      </trkpt>
      <trkpt lat="45.59953" lon="6.97428">
        <ele>2396.07</ele>
        <time>2016-02-21T11:14:48Z</time>
      </trkpt>
      <trkpt lat="45.59959" lon="6.97426">
        <ele>2397.59</ele>
        <time>2016-02-21T11:15:02Z</time>
      </trkpt>
      <trkpt lat="45.59966" lon="6.97424">
        <ele>2398.86</ele>
        <time>2016-02-21T11:15:19Z</time>
      </trkpt>
      <trkpt lat="45.59969" lon="6.97423">
        <ele>2399.83</ele>
        <time>2016-02-21T11:15:33Z</time>
      </trkpt>
      <trkpt lat="45.59969" lon="6.97426">
        <ele>2400.43</ele>
        <time>2016-02-21T11:15:49Z</time>
      </trkpt>
      <trkpt lat="45.59966" lon="6.97432">
        <ele>2400.83</ele>
        <time>2016-02-21T11:16:06Z</time>
      </trkpt>
      <trkpt lat="45.59962" lon="6.97438">
        <ele>2401.98</ele>
        <time>2016-02-21T11:16:19Z</time>
      </trkpt>
      <trkpt lat="45.59958" lon="6.97446">
        <ele>2403.09</ele>
        <time>2016-02-21T11:16:33Z</time>
      </trkpt>
      <trkpt lat="45.59956" lon="6.97453">
        <ele>2405.05</ele>
        <time>2016-02-21T11:16:54Z</time>
      </trkpt>
      <trkpt lat="45.59952" lon="6.9746">
        <ele>2405.78</ele>
        <time>2016-02-21T11:17:09Z</time>
      </trkpt>
      <trkpt lat="45.59954" lon="6.97459">
        <ele>2406.27</ele>
        <time>2016-02-21T11:17:30Z</time>
      </trkpt>
      <trkpt lat="45.59961" lon="6.97457">
        <ele>2407.53</ele>
        <time>2016-02-21T11:17:45Z</time>
      </trkpt>
      <trkpt lat="45.59965" lon="6.97456">
        <ele>2408.6</ele>
        <time>2016-02-21T11:17:59Z</time>
      </trkpt>
      <trkpt lat="45.59971" lon="6.97454">
        <ele>2410.19</ele>
        <time>2016-02-21T11:18:14Z</time>
      </trkpt>
      <trkpt lat="45.59973" lon="6.97453">
        <ele>2411.55</ele>
        <time>2016-02-21T11:18:31Z</time>
      </trkpt>
      <trkpt lat="45.59972" lon="6.97455">
        <ele>2411.77</ele>
        <time>2016-02-21T11:18:48Z</time>
      </trkpt>
      <trkpt lat="45.59969" lon="6.97464">
        <ele>2412.81</ele>
        <time>2016-02-21T11:19:03Z</time>
      </trkpt>
      <trkpt lat="45.59963" lon="6.97474">
        <ele>2414.54</ele>
        <time>2016-02-21T11:19:20Z</time>
      </trkpt>
      <trkpt lat="45.5996" lon="6.97483">
        <ele>2415.95</ele>
        <time>2016-02-21T11:19:35Z</time>
      </trkpt>
      <trkpt lat="45.59958" lon="6.9749">
        <ele>2417.43</ele>
        <time>2016-02-21T11:19:50Z</time>
      </trkpt>
      <trkpt lat="45.59952" lon="6.97499">
        <ele>2418.58</ele>
        <time>2016-02-21T11:20:06Z</time>
      </trkpt>
      <trkpt lat="45.59948" lon="6.97507">
        <ele>2419.78</ele>
        <time>2016-02-21T11:20:18Z</time>
      </trkpt>
      <trkpt lat="45.59943" lon="6.97516">
        <ele>2421.52</ele>
        <time>2016-02-21T11:20:36Z</time>
      </trkpt>
      <trkpt lat="45.59943" lon="6.97519">
        <ele>2422.73</ele>
        <time>2016-02-21T11:20:50Z</time>
      </trkpt>
      <trkpt lat="45.5995" lon="6.97521">
        <ele>2423.38</ele>
        <time>2016-02-21T11:21:16Z</time>
      </trkpt>
      <trkpt lat="45.59956" lon="6.97517">
        <ele>2424.98</ele>
        <time>2016-02-21T11:21:33Z</time>
      </trkpt>
      <trkpt lat="45.59964" lon="6.97515">
        <ele>2426.95</ele>
        <time>2016-02-21T11:21:52Z</time>
      </trkpt>
      <trkpt lat="45.59969" lon="6.97511">
        <ele>2428.91</ele>
        <time>2016-02-21T11:22:10Z</time>
      </trkpt>
      <trkpt lat="45.59971" lon="6.97511">
        <ele>2429.52</ele>
        <time>2016-02-21T11:22:29Z</time>
      </trkpt>
      <trkpt lat="45.59976" lon="6.97507">
        <ele>2430.46</ele>
        <time>2016-02-21T11:22:43Z</time>
      </trkpt>
      <trkpt lat="45.59983" lon="6.97504">
        <ele>2432.31</ele>
        <time>2016-02-21T11:23:00Z</time>
      </trkpt>
      <trkpt lat="45.59989" lon="6.97503">
        <ele>2434.46</ele>
        <time>2016-02-21T11:23:16Z</time>
      </trkpt>
      <trkpt lat="45.59995" lon="6.97502">
        <ele>2436.09</ele>
        <time>2016-02-21T11:23:31Z</time>
      </trkpt>
      <trkpt lat="45.60002" lon="6.97499">
        <ele>2438.02</ele>
        <time>2016-02-21T11:23:46Z</time>
      </trkpt>
      <trkpt lat="45.60006" lon="6.97496">
        <ele>2439.66</ele>
        <time>2016-02-21T11:24:00Z</time>
      </trkpt>
      <trkpt lat="45.60004" lon="6.97494">
        <ele>2440.32</ele>
        <time>2016-02-21T11:24:26Z</time>
      </trkpt>
      <trkpt lat="45.60005" lon="6.97495">
        <ele>2440.73</ele>
        <time>2016-02-21T11:24:49Z</time>
      </trkpt>
      <trkpt lat="45.60011" lon="6.97496">
        <ele>2441.26</ele>
        <time>2016-02-21T11:25:05Z</time>
      </trkpt>
      <trkpt lat="45.60017" lon="6.97494">
        <ele>2442.99</ele>
        <time>2016-02-21T11:25:22Z</time>
      </trkpt>
      <trkpt lat="45.60025" lon="6.97494">
        <ele>2444.67</ele>
        <time>2016-02-21T11:25:38Z</time>
      </trkpt>
      <trkpt lat="45.60034" lon="6.97494">
        <ele>2446.51</ele>
        <time>2016-02-21T11:25:54Z</time>
      </trkpt>
      <trkpt lat="45.60039" lon="6.97493">
        <ele>2447.99</ele>
        <time>2016-02-21T11:26:08Z</time>
      </trkpt>
      <trkpt lat="45.60045" lon="6.9749">
        <ele>2449.19</ele>
        <time>2016-02-21T11:26:23Z</time>
      </trkpt>
      <trkpt lat="45.60049" lon="6.97488">
        <ele>2450.49</ele>
        <time>2016-02-21T11:26:36Z</time>
      </trkpt>
      <trkpt lat="45.60055" lon="6.97489">
        <ele>2451.75</ele>
        <time>2016-02-21T11:26:50Z</time>
      </trkpt>
      <trkpt lat="45.60063" lon="6.97488">
        <ele>2453.53</ele>
        <time>2016-02-21T11:27:06Z</time>
      </trkpt>
      <trkpt lat="45.60067" lon="6.97486">
        <ele>2454.48</ele>
        <time>2016-02-21T11:27:19Z</time>
      </trkpt>
      <trkpt lat="45.60067" lon="6.97487">
        <ele>2455.42</ele>
        <time>2016-02-21T11:27:34Z</time>
      </trkpt>
      <trkpt lat="45.60067" lon="6.97488">
        <ele>2455.48</ele>
        <time>2016-02-21T11:28:04Z</time>
      </trkpt>
      <trkpt lat="45.60064" lon="6.97493">
        <ele>2455.63</ele>
        <time>2016-02-21T11:28:24Z</time>
      </trkpt>
      <trkpt lat="45.60063" lon="6.97502">
        <ele>2456.85</ele>
        <time>2016-02-21T11:28:41Z</time>
      </trkpt>
      <trkpt lat="45.60061" lon="6.97508">
        <ele>2458.18</ele>
        <time>2016-02-21T11:28:53Z</time>
      </trkpt>
      <trkpt lat="45.60065" lon="6.97506">
        <ele>2458.95</ele>
        <time>2016-02-21T11:29:08Z</time>
      </trkpt>
      <trkpt lat="45.60074" lon="6.97506">
        <ele>2460.41</ele>
        <time>2016-02-21T11:29:25Z</time>
      </trkpt>
      <trkpt lat="45.60081" lon="6.97503">
        <ele>2461.88</ele>
        <time>2016-02-21T11:29:40Z</time>
      </trkpt>
      <trkpt lat="45.60086" lon="6.97503">
        <ele>2463.16</ele>
        <time>2016-02-21T11:29:54Z</time>
      </trkpt>
      <trkpt lat="45.60092" lon="6.97503">
        <ele>2464.43</ele>
        <time>2016-02-21T11:30:08Z</time>
      </trkpt>
      <trkpt lat="45.60098" lon="6.97502">
        <ele>2466.07</ele>
        <time>2016-02-21T11:30:25Z</time>
      </trkpt>
      <trkpt lat="45.60104" lon="6.97503">
        <ele>2467.31</ele>
        <time>2016-02-21T11:30:39Z</time>
      </trkpt>
      <trkpt lat="45.60108" lon="6.97503">
        <ele>2468.69</ele>
        <time>2016-02-21T11:30:52Z</time>
      </trkpt>
      <trkpt lat="45.60109" lon="6.97508">
        <ele>2469.81</ele>
        <time>2016-02-21T11:31:06Z</time>
      </trkpt>
      <trkpt lat="45.6011" lon="6.97508">
        <ele>2470.81</ele>
        <time>2016-02-21T11:31:31Z</time>
      </trkpt>
      <trkpt lat="45.60106" lon="6.97516">
        <ele>2471.18</ele>
        <time>2016-02-21T11:31:47Z</time>
      </trkpt>
      <trkpt lat="45.60102" lon="6.9753">
        <ele>2472.2</ele>
        <time>2016-02-21T11:32:06Z</time>
      </trkpt>
      <trkpt lat="45.601" lon="6.97537">
        <ele>2474.1</ele>
        <time>2016-02-21T11:32:23Z</time>
      </trkpt>
      <trkpt lat="45.601" lon="6.97538">
        <ele>2474.4</ele>
        <time>2016-02-21T11:32:45Z</time>
      </trkpt>
      <trkpt lat="45.60104" lon="6.9754">
        <ele>2475.95</ele>
        <time>2016-02-21T11:33:00Z</time>
      </trkpt>
      <trkpt lat="45.6011" lon="6.97544">
        <ele>2477.64</ele>
        <time>2016-02-21T11:33:14Z</time>
      </trkpt>
      <trkpt lat="45.60113" lon="6.97547">
        <ele>2478.87</ele>
        <time>2016-02-21T11:33:29Z</time>
      </trkpt>
      <trkpt lat="45.60112" lon="6.97546">
        <ele>2479.24</ele>
        <time>2016-02-21T11:33:40Z</time>
      </trkpt>
      <trkpt lat="45.60114" lon="6.97548">
        <ele>2479.14</ele>
        <time>2016-02-21T11:34:03Z</time>
      </trkpt>
      <trkpt lat="45.60113" lon="6.97548">
        <ele>2479.53</ele>
        <time>2016-02-21T11:34:26Z</time>
      </trkpt>
      <trkpt lat="45.60116" lon="6.9755">
        <ele>2479.76</ele>
        <time>2016-02-21T11:34:46Z</time>
      </trkpt>
      <trkpt lat="45.60115" lon="6.97551">
        <ele>2479.6</ele>
        <time>2016-02-21T11:35:10Z</time>
      </trkpt>
      <trkpt lat="45.60111" lon="6.97555">
        <ele>2480.77</ele>
        <time>2016-02-21T11:35:23Z</time>
      </trkpt>
      <trkpt lat="45.60106" lon="6.9756">
        <ele>2481.75</ele>
        <time>2016-02-21T11:35:36Z</time>
      </trkpt>
      <trkpt lat="45.60102" lon="6.97564">
        <ele>2483.03</ele>
        <time>2016-02-21T11:35:48Z</time>
      </trkpt>
      <trkpt lat="45.60099" lon="6.9757">
        <ele>2484.41</ele>
        <time>2016-02-21T11:36:01Z</time>
      </trkpt>
      <trkpt lat="45.601" lon="6.97572">
        <ele>2485.57</ele>
        <time>2016-02-21T11:36:18Z</time>
      </trkpt>
      <trkpt lat="45.60105" lon="6.97576">
        <ele>2486.57</ele>
        <time>2016-02-21T11:36:30Z</time>
      </trkpt>
      <trkpt lat="45.6011" lon="6.97577">
        <ele>2487.68</ele>
        <time>2016-02-21T11:36:44Z</time>
      </trkpt>
      <trkpt lat="45.60115" lon="6.97578">
        <ele>2488.75</ele>
        <time>2016-02-21T11:36:58Z</time>
      </trkpt>
      <trkpt lat="45.60116" lon="6.97581">
        <ele>2490.31</ele>
        <time>2016-02-21T11:37:11Z</time>
      </trkpt>
      <trkpt lat="45.60113" lon="6.97588">
        <ele>2491.32</ele>
        <time>2016-02-21T11:37:25Z</time>
      </trkpt>
      <trkpt lat="45.60109" lon="6.97594">
        <ele>2492.36</ele>
        <time>2016-02-21T11:37:38Z</time>
      </trkpt>
      <trkpt lat="45.60107" lon="6.97599">
        <ele>2493.31</ele>
        <time>2016-02-21T11:37:48Z</time>
      </trkpt>
      <trkpt lat="45.60104" lon="6.97604">
        <ele>2494.53</ele>
        <time>2016-02-21T11:38:01Z</time>
      </trkpt>
      <trkpt lat="45.60102" lon="6.9761">
        <ele>2495.84</ele>
        <time>2016-02-21T11:38:14Z</time>
      </trkpt>
      <trkpt lat="45.60098" lon="6.97614">
        <ele>2497.1</ele>
        <time>2016-02-21T11:38:26Z</time>
      </trkpt>
      <trkpt lat="45.60094" lon="6.97619">
        <ele>2498.73</ele>
        <time>2016-02-21T11:38:40Z</time>
      </trkpt>
      <trkpt lat="45.60091" lon="6.97624">
        <ele>2500.13</ele>
        <time>2016-02-21T11:38:54Z</time>
      </trkpt>
      <trkpt lat="45.60086" lon="6.9763">
        <ele>2501.67</ele>
        <time>2016-02-21T11:39:08Z</time>
      </trkpt>
      <trkpt lat="45.60087" lon="6.9763">
        <ele>2502.33</ele>
        <time>2016-02-21T11:39:22Z</time>
      </trkpt>
      <trkpt lat="45.60084" lon="6.97634">
        <ele>2502.88</ele>
        <time>2016-02-21T11:39:37Z</time>
      </trkpt>
      <trkpt lat="45.60081" lon="6.97639">
        <ele>2504.06</ele>
        <time>2016-02-21T11:39:51Z</time>
      </trkpt>
      <trkpt lat="45.60078" lon="6.97644">
        <ele>2505.27</ele>
        <time>2016-02-21T11:40:03Z</time>
      </trkpt>
      <trkpt lat="45.60076" lon="6.97649">
        <ele>2506.2</ele>
        <time>2016-02-21T11:40:14Z</time>
      </trkpt>
      <trkpt lat="45.60075" lon="6.97655">
        <ele>2507.39</ele>
        <time>2016-02-21T11:40:25Z</time>
      </trkpt>
      <trkpt lat="45.60072" lon="6.97659">
        <ele>2508.26</ele>
        <time>2016-02-21T11:40:36Z</time>
      </trkpt>
      <trkpt lat="45.60071" lon="6.97663">
        <ele>2509.33</ele>
        <time>2016-02-21T11:40:51Z</time>
      </trkpt>
      <trkpt lat="45.60067" lon="6.97671">
        <ele>2510.5</ele>
        <time>2016-02-21T11:41:06Z</time>
      </trkpt>
      <trkpt lat="45.60064" lon="6.97679">
        <ele>2512.21</ele>
        <time>2016-02-21T11:41:22Z</time>
      </trkpt>
      <trkpt lat="45.60064" lon="6.97681">
        <ele>2513.24</ele>
        <time>2016-02-21T11:41:42Z</time>
      </trkpt>
      <trkpt lat="45.60061" lon="6.97688">
        <ele>2513.88</ele>
        <time>2016-02-21T11:41:56Z</time>
      </trkpt>
      <trkpt lat="45.60058" lon="6.97693">
        <ele>2515.63</ele>
        <time>2016-02-21T11:42:11Z</time>
      </trkpt>
      <trkpt lat="45.60057" lon="6.977">
        <ele>2516.73</ele>
        <time>2016-02-21T11:42:25Z</time>
      </trkpt>
      <trkpt lat="45.60054" lon="6.97707">
        <ele>2518.31</ele>
        <time>2016-02-21T11:42:39Z</time>
      </trkpt>
      <trkpt lat="45.60052" lon="6.97712">
        <ele>2519.51</ele>
        <time>2016-02-21T11:42:54Z</time>
      </trkpt>
      <trkpt lat="45.6005" lon="6.97718">
        <ele>2520.42</ele>
        <time>2016-02-21T11:43:08Z</time>
      </trkpt>
      <trkpt lat="45.60046" lon="6.97724">
        <ele>2521.62</ele>
        <time>2016-02-21T11:43:22Z</time>
      </trkpt>
      <trkpt lat="45.60043" lon="6.9773">
        <ele>2523.32</ele>
        <time>2016-02-21T11:43:37Z</time>
      </trkpt>
      <trkpt lat="45.60041" lon="6.97733">
        <ele>2524.27</ele>
        <time>2016-02-21T11:43:48Z</time>
      </trkpt>
      <trkpt lat="45.60041" lon="6.97733">
        <ele>2524.74</ele>
        <time>2016-02-21T11:44:05Z</time>
      </trkpt>
      <trkpt lat="45.60042" lon="6.97733">
        <ele>2524.87</ele>
        <time>2016-02-21T11:44:23Z</time>
      </trkpt>
      <trkpt lat="45.6004" lon="6.97732">
        <ele>2524.89</ele>
        <time>2016-02-21T11:44:40Z</time>
      </trkpt>
      <trkpt lat="45.6004" lon="6.97736">
        <ele>2525.49</ele>
        <time>2016-02-21T11:44:56Z</time>
      </trkpt>
      <trkpt lat="45.60038" lon="6.97743">
        <ele>2526.63</ele>
        <time>2016-02-21T11:45:10Z</time>
      </trkpt>
      <trkpt lat="45.60036" lon="6.9775">
        <ele>2527.86</ele>
        <time>2016-02-21T11:45:24Z</time>
      </trkpt>
      <trkpt lat="45.60034" lon="6.97756">
        <ele>2529.27</ele>
        <time>2016-02-21T11:45:37Z</time>
      </trkpt>
      <trkpt lat="45.60031" lon="6.97763">
        <ele>2530.64</ele>
        <time>2016-02-21T11:45:50Z</time>
      </trkpt>
      <trkpt lat="45.6003" lon="6.97772">
        <ele>2531.75</ele>
        <time>2016-02-21T11:46:04Z</time>
      </trkpt>
      <trkpt lat="45.60029" lon="6.9778">
        <ele>2533.19</ele>
        <time>2016-02-21T11:46:18Z</time>
      </trkpt>
      <trkpt lat="45.60026" lon="6.97788">
        <ele>2534.97</ele>
        <time>2016-02-21T11:46:33Z</time>
      </trkpt>
      <trkpt lat="45.60024" lon="6.97793">
        <ele>2536.08</ele>
        <time>2016-02-21T11:46:44Z</time>
      </trkpt>
      <trkpt lat="45.60023" lon="6.978">
        <ele>2537.69</ele>
        <time>2016-02-21T11:46:57Z</time>
      </trkpt>
      <trkpt lat="45.60021" lon="6.97806">
        <ele>2538.95</ele>
        <time>2016-02-21T11:47:09Z</time>
      </trkpt>
      <trkpt lat="45.60016" lon="6.97814">
        <ele>2540.45</ele>
        <time>2016-02-21T11:47:25Z</time>
      </trkpt>
      <trkpt lat="45.60012" lon="6.97821">
        <ele>2541.71</ele>
        <time>2016-02-21T11:47:39Z</time>
      </trkpt>
      <trkpt lat="45.60009" lon="6.97824">
        <ele>2543.22</ele>
        <time>2016-02-21T11:47:51Z</time>
      </trkpt>
      <trkpt lat="45.60007" lon="6.97827">
        <ele>2543.98</ele>
        <time>2016-02-21T11:48:13Z</time>
      </trkpt>
      <trkpt lat="45.60004" lon="6.97833">
        <ele>2545.37</ele>
        <time>2016-02-21T11:48:27Z</time>
      </trkpt>
      <trkpt lat="45.60001" lon="6.97841">
        <ele>2546.95</ele>
        <time>2016-02-21T11:48:42Z</time>
      </trkpt>
      <trkpt lat="45.6" lon="6.97844">
        <ele>2548.33</ele>
        <time>2016-02-21T11:48:58Z</time>
      </trkpt>
      <trkpt lat="45.6" lon="6.97845">
        <ele>2548.93</ele>
        <time>2016-02-21T11:49:17Z</time>
      </trkpt>
      <trkpt lat="45.59998" lon="6.97846">
        <ele>2549</ele>
        <time>2016-02-21T11:49:38Z</time>
      </trkpt>
      <trkpt lat="45.59995" lon="6.97844">
        <ele>2548.79</ele>
        <time>2016-02-21T11:49:58Z</time>
      </trkpt>
      <trkpt lat="45.59997" lon="6.97845">
        <ele>2549.35</ele>
        <time>2016-02-21T11:50:18Z</time>
      </trkpt>
      <trkpt lat="45.59999" lon="6.97847">
        <ele>2550.28</ele>
        <time>2016-02-21T11:50:31Z</time>
      </trkpt>
      <trkpt lat="45.59998" lon="6.97847">
        <ele>2551.29</ele>
        <time>2016-02-21T11:51:13Z</time>
      </trkpt>
      <trkpt lat="45.59999" lon="6.97845">
        <ele>2551.33</ele>
        <time>2016-02-21T11:51:42Z</time>
      </trkpt>
      <trkpt lat="45.6" lon="6.97849">
        <ele>2551.26</ele>
        <time>2016-02-21T11:51:56Z</time>
      </trkpt>
      <trkpt lat="45.6" lon="6.97849">
        <ele>2552.02</ele>
        <time>2016-02-21T11:52:24Z</time>
      </trkpt>
      <trkpt lat="45.59998" lon="6.97848">
        <ele>2552.41</ele>
        <time>2016-02-21T11:52:49Z</time>
      </trkpt>
      <trkpt lat="45.60002" lon="6.97852">
        <ele>2552.66</ele>
        <time>2016-02-21T11:53:08Z</time>
      </trkpt>
      <trkpt lat="45.60007" lon="6.9786">
        <ele>2554.05</ele>
        <time>2016-02-21T11:53:23Z</time>
      </trkpt>
      <trkpt lat="45.6001" lon="6.97863">
        <ele>2555.16</ele>
        <time>2016-02-21T11:53:39Z</time>
      </trkpt>
      <trkpt lat="45.60018" lon="6.97865">
        <ele>2556.06</ele>
        <time>2016-02-21T11:53:55Z</time>
      </trkpt>
      <trkpt lat="45.60019" lon="6.97869">
        <ele>2557.02</ele>
        <time>2016-02-21T11:54:06Z</time>
      </trkpt>
      <trkpt lat="45.60017" lon="6.97878">
        <ele>2558.44</ele>
        <time>2016-02-21T11:54:20Z</time>
      </trkpt>
      <trkpt lat="45.60018" lon="6.97887">
        <ele>2560.16</ele>
        <time>2016-02-21T11:54:38Z</time>
      </trkpt>
      <trkpt lat="45.60023" lon="6.97888">
        <ele>2561.48</ele>
        <time>2016-02-21T11:54:52Z</time>
      </trkpt>
      <trkpt lat="45.6003" lon="6.97888">
        <ele>2563.13</ele>
        <time>2016-02-21T11:55:07Z</time>
      </trkpt>
      <trkpt lat="45.60036" lon="6.97889">
        <ele>2564.32</ele>
        <time>2016-02-21T11:55:21Z</time>
      </trkpt>
      <trkpt lat="45.60043" lon="6.97891">
        <ele>2566.01</ele>
        <time>2016-02-21T11:55:39Z</time>
      </trkpt>
      <trkpt lat="45.60044" lon="6.97891">
        <ele>2566.76</ele>
        <time>2016-02-21T11:56:00Z</time>
      </trkpt>
      <trkpt lat="45.60044" lon="6.97892">
        <ele>2567.24</ele>
        <time>2016-02-21T11:56:22Z</time>
      </trkpt>
      <trkpt lat="45.60042" lon="6.97897">
        <ele>2567.24</ele>
        <time>2016-02-21T11:56:37Z</time>
      </trkpt>
      <trkpt lat="45.6004" lon="6.97905">
        <ele>2568.59</ele>
        <time>2016-02-21T11:56:53Z</time>
      </trkpt>
      <trkpt lat="45.60039" lon="6.97904">
        <ele>2569.01</ele>
        <time>2016-02-21T11:57:17Z</time>
      </trkpt>
      <trkpt lat="45.6004" lon="6.97904">
        <ele>2569.54</ele>
        <time>2016-02-21T11:57:50Z</time>
      </trkpt>
      <trkpt lat="45.60041" lon="6.97906">
        <ele>2569.45</ele>
        <time>2016-02-21T11:58:27Z</time>
      </trkpt>
      <trkpt lat="45.60041" lon="6.97907">
        <ele>2569.85</ele>
        <time>2016-02-21T11:58:55Z</time>
      </trkpt>
      <trkpt lat="45.60041" lon="6.97907">
        <ele>2569.28</ele>
        <time>2016-02-21T11:59:21Z</time>
      </trkpt>
      <trkpt lat="45.60041" lon="6.97907">
        <ele>2569.69</ele>
        <time>2016-02-21T11:59:52Z</time>
      </trkpt>
      <trkpt lat="45.60041" lon="6.97906">
        <ele>2570.15</ele>
        <time>2016-02-21T12:00:20Z</time>
      </trkpt>
      <trkpt lat="45.60039" lon="6.97908">
        <ele>2570.13</ele>
        <time>2016-02-21T12:00:34Z</time>
      </trkpt>
      <trkpt lat="45.60035" lon="6.97916">
        <ele>2571.04</ele>
        <time>2016-02-21T12:00:51Z</time>
      </trkpt>
      <trkpt lat="45.60039" lon="6.97922">
        <ele>2572.48</ele>
        <time>2016-02-21T12:01:07Z</time>
      </trkpt>
      <trkpt lat="45.60046" lon="6.97925">
        <ele>2574.81</ele>
        <time>2016-02-21T12:01:22Z</time>
      </trkpt>
      <trkpt lat="45.6005" lon="6.97927">
        <ele>2576.75</ele>
        <time>2016-02-21T12:01:35Z</time>
      </trkpt>
      <trkpt lat="45.60054" lon="6.97933">
        <ele>2577.69</ele>
        <time>2016-02-21T12:01:49Z</time>
      </trkpt>
      <trkpt lat="45.6006" lon="6.97938">
        <ele>2579.02</ele>
        <time>2016-02-21T12:02:04Z</time>
      </trkpt>
      <trkpt lat="45.6006" lon="6.97942">
        <ele>2579.83</ele>
        <time>2016-02-21T12:02:19Z</time>
      </trkpt>
      <trkpt lat="45.60058" lon="6.97949">
        <ele>2579.58</ele>
        <time>2016-02-21T12:02:41Z</time>
      </trkpt>
      <trkpt lat="45.60058" lon="6.97956">
        <ele>2578.83</ele>
        <time>2016-02-21T12:02:55Z</time>
      </trkpt>
      <trkpt lat="45.60062" lon="6.9796">
        <ele>2580.3</ele>
        <time>2016-02-21T12:03:11Z</time>
      </trkpt>
      <trkpt lat="45.60067" lon="6.97963">
        <ele>2581.9</ele>
        <time>2016-02-21T12:03:22Z</time>
      </trkpt>
      <trkpt lat="45.60071" lon="6.97966">
        <ele>2583.44</ele>
        <time>2016-02-21T12:03:36Z</time>
      </trkpt>
      <trkpt lat="45.60072" lon="6.97968">
        <ele>2584.67</ele>
        <time>2016-02-21T12:03:49Z</time>
      </trkpt>
      <trkpt lat="45.60067" lon="6.97972">
        <ele>2586.16</ele>
        <time>2016-02-21T12:04:03Z</time>
      </trkpt>
      <trkpt lat="45.60062" lon="6.97978">
        <ele>2587.43</ele>
        <time>2016-02-21T12:04:16Z</time>
      </trkpt>
      <trkpt lat="45.60058" lon="6.97987">
        <ele>2588.97</ele>
        <time>2016-02-21T12:04:32Z</time>
      </trkpt>
      <trkpt lat="45.60058" lon="6.97994">
        <ele>2590.48</ele>
        <time>2016-02-21T12:04:47Z</time>
      </trkpt>
      <trkpt lat="45.60064" lon="6.97998">
        <ele>2591.94</ele>
        <time>2016-02-21T12:05:02Z</time>
      </trkpt>
      <trkpt lat="45.60068" lon="6.97999">
        <ele>2593.35</ele>
        <time>2016-02-21T12:05:15Z</time>
      </trkpt>
      <trkpt lat="45.60074" lon="6.97999">
        <ele>2594.26</ele>
        <time>2016-02-21T12:05:31Z</time>
      </trkpt>
      <trkpt lat="45.60081" lon="6.97997">
        <ele>2595.91</ele>
        <time>2016-02-21T12:05:48Z</time>
      </trkpt>
      <trkpt lat="45.60081" lon="6.97995">
        <ele>2596.59</ele>
        <time>2016-02-21T12:06:03Z</time>
      </trkpt>
      <trkpt lat="45.60084" lon="6.97991">
        <ele>2597.3</ele>
        <time>2016-02-21T12:06:20Z</time>
      </trkpt>
      <trkpt lat="45.60087" lon="6.97992">
        <ele>2599.47</ele>
        <time>2016-02-21T12:06:33Z</time>
      </trkpt>
      <trkpt lat="45.60089" lon="6.98001">
        <ele>2600.98</ele>
        <time>2016-02-21T12:06:47Z</time>
      </trkpt>
      <trkpt lat="45.6009" lon="6.98009">
        <ele>2602.9</ele>
        <time>2016-02-21T12:07:04Z</time>
      </trkpt>
      <trkpt lat="45.60089" lon="6.98012">
        <ele>2602.97</ele>
        <time>2016-02-21T12:07:23Z</time>
      </trkpt>
      <trkpt lat="45.60091" lon="6.98023">
        <ele>2604.45</ele>
        <time>2016-02-21T12:07:38Z</time>
      </trkpt>
      <trkpt lat="45.60095" lon="6.98025">
        <ele>2605.87</ele>
        <time>2016-02-21T12:07:53Z</time>
      </trkpt>
      <trkpt lat="45.60103" lon="6.98021">
        <ele>2607.45</ele>
        <time>2016-02-21T12:08:12Z</time>
      </trkpt>
      <trkpt lat="45.6011" lon="6.98026">
        <ele>2608.92</ele>
        <time>2016-02-21T12:08:27Z</time>
      </trkpt>
      <trkpt lat="45.60112" lon="6.98035">
        <ele>2609.54</ele>
        <time>2016-02-21T12:08:40Z</time>
      </trkpt>
      <trkpt lat="45.60114" lon="6.98045">
        <ele>2610.65</ele>
        <time>2016-02-21T12:08:56Z</time>
      </trkpt>
      <trkpt lat="45.60114" lon="6.98055">
        <ele>2612.24</ele>
        <time>2016-02-21T12:09:12Z</time>
      </trkpt>
      <trkpt lat="45.60119" lon="6.98055">
        <ele>2612.76</ele>
        <time>2016-02-21T12:09:26Z</time>
      </trkpt>
      <trkpt lat="45.60122" lon="6.98051">
        <ele>2614.1</ele>
        <time>2016-02-21T12:09:42Z</time>
      </trkpt>
      <trkpt lat="45.60129" lon="6.98049">
        <ele>2615.9</ele>
        <time>2016-02-21T12:09:59Z</time>
      </trkpt>
      <trkpt lat="45.60131" lon="6.98053">
        <ele>2617.62</ele>
        <time>2016-02-21T12:10:13Z</time>
      </trkpt>
      <trkpt lat="45.60133" lon="6.98063">
        <ele>2618.71</ele>
        <time>2016-02-21T12:10:28Z</time>
      </trkpt>
      <trkpt lat="45.60135" lon="6.98072">
        <ele>2620.21</ele>
        <time>2016-02-21T12:10:40Z</time>
      </trkpt>
      <trkpt lat="45.6014" lon="6.98073">
        <ele>2621.07</ele>
        <time>2016-02-21T12:10:55Z</time>
      </trkpt>
      <trkpt lat="45.60143" lon="6.98068">
        <ele>2621.53</ele>
        <time>2016-02-21T12:11:09Z</time>
      </trkpt>
      <trkpt lat="45.60147" lon="6.98064">
        <ele>2623.48</ele>
        <time>2016-02-21T12:11:23Z</time>
      </trkpt>
      <trkpt lat="45.60146" lon="6.98071">
        <ele>2625.35</ele>
        <time>2016-02-21T12:11:36Z</time>
      </trkpt>
      <trkpt lat="45.60149" lon="6.98085">
        <ele>2626.74</ele>
        <time>2016-02-21T12:11:52Z</time>
      </trkpt>
      <trkpt lat="45.60152" lon="6.98096">
        <ele>2629.29</ele>
        <time>2016-02-21T12:12:08Z</time>
      </trkpt>
      <trkpt lat="45.6016" lon="6.98096">
        <ele>2631.32</ele>
        <time>2016-02-21T12:12:26Z</time>
      </trkpt>
      <trkpt lat="45.60163" lon="6.981">
        <ele>2633.77</ele>
        <time>2016-02-21T12:12:40Z</time>
      </trkpt>
      <trkpt lat="45.60165" lon="6.9811">
        <ele>2635.6</ele>
        <time>2016-02-21T12:12:53Z</time>
      </trkpt>
      <trkpt lat="45.60166" lon="6.9812">
        <ele>2637.88</ele>
        <time>2016-02-21T12:13:05Z</time>
      </trkpt>
      <trkpt lat="45.60165" lon="6.98127">
        <ele>2638.96</ele>
        <time>2016-02-21T12:13:14Z</time>
      </trkpt>
      <trkpt lat="45.60163" lon="6.98137">
        <ele>2639.63</ele>
        <time>2016-02-21T12:13:25Z</time>
      </trkpt>
      <trkpt lat="45.60159" lon="6.98148">
        <ele>2640.65</ele>
        <time>2016-02-21T12:13:39Z</time>
      </trkpt>
      <trkpt lat="45.60155" lon="6.98158">
        <ele>2642.38</ele>
        <time>2016-02-21T12:13:52Z</time>
      </trkpt>
      <trkpt lat="45.6015" lon="6.98169">
        <ele>2644.07</ele>
        <time>2016-02-21T12:14:06Z</time>
      </trkpt>
      <trkpt lat="45.60146" lon="6.98172">
        <ele>2646.24</ele>
        <time>2016-02-21T12:14:20Z</time>
      </trkpt>
      <trkpt lat="45.60146" lon="6.98172">
        <ele>2647.81</ele>
        <time>2016-02-21T12:14:35Z</time>
      </trkpt>
      <trkpt lat="45.60145" lon="6.98173">
        <ele>2644.77</ele>
        <time>2016-02-21T12:15:03Z</time>
      </trkpt>
      <trkpt lat="45.60144" lon="6.98172">
        <ele>2644.01</ele>
        <time>2016-02-21T12:15:54Z</time>
      </trkpt>
      <trkpt lat="45.60143" lon="6.9817">
        <ele>2645.02</ele>
        <time>2016-02-21T12:16:25Z</time>
      </trkpt>
      <trkpt lat="45.60142" lon="6.9817">
        <ele>2645.46</ele>
        <time>2016-02-21T12:16:57Z</time>
      </trkpt>
      <trkpt lat="45.60142" lon="6.9817">
        <ele>2645.13</ele>
        <time>2016-02-21T12:17:37Z</time>
      </trkpt>
      <trkpt lat="45.60143" lon="6.98168">
        <ele>2644.28</ele>
        <time>2016-02-21T12:18:26Z</time>
      </trkpt>
      <trkpt lat="45.60144" lon="6.98169">
        <ele>2643.59</ele>
        <time>2016-02-21T12:18:58Z</time>
      </trkpt>
      <trkpt lat="45.60146" lon="6.9817">
        <ele>2645.64</ele>
        <time>2016-02-21T12:19:23Z</time>
      </trkpt>
      <trkpt lat="45.60145" lon="6.98169">
        <ele>2645.72</ele>
        <time>2016-02-21T12:19:43Z</time>
      </trkpt>
      <trkpt lat="45.60145" lon="6.98169">
        <ele>2646.46</ele>
        <time>2016-02-21T12:20:00Z</time>
      </trkpt>
      <trkpt lat="45.60147" lon="6.98166">
        <ele>2644.89</ele>
        <time>2016-02-21T12:20:05Z</time>
      </trkpt>
      <trkpt lat="45.60149" lon="6.98164">
        <ele>2644.55</ele>
        <time>2016-02-21T12:20:06Z</time>
      </trkpt>
      <trkpt lat="45.60151" lon="6.98161">
        <ele>2644.15</ele>
        <time>2016-02-21T12:20:07Z</time>
      </trkpt>
      <trkpt lat="45.60152" lon="6.98158">
        <ele>2643.67</ele>
        <time>2016-02-21T12:20:08Z</time>
      </trkpt>
      <trkpt lat="45.60154" lon="6.98155">
        <ele>2643.11</ele>
        <time>2016-02-21T12:20:09Z</time>
      </trkpt>
      <trkpt lat="45.60162" lon="6.98122">
        <ele>2639.83</ele>
        <time>2016-02-21T12:20:16Z</time>
      </trkpt>
      <trkpt lat="45.60161" lon="6.98098">
        <ele>2636.84</ele>
        <time>2016-02-21T12:20:23Z</time>
      </trkpt>
      <trkpt lat="45.6016" lon="6.98095">
        <ele>2636.77</ele>
        <time>2016-02-21T12:20:24Z</time>
      </trkpt>
      <trkpt lat="45.60157" lon="6.98093">
        <ele>2635.13</ele>
        <time>2016-02-21T12:20:30Z</time>
      </trkpt>
      <trkpt lat="45.60155" lon="6.98093">
        <ele>2634.9</ele>
        <time>2016-02-21T12:20:31Z</time>
      </trkpt>
      <trkpt lat="45.60146" lon="6.9809">
        <ele>2634.52</ele>
        <time>2016-02-21T12:20:33Z</time>
      </trkpt>
      <trkpt lat="45.60143" lon="6.9809">
        <ele>2634.29</ele>
        <time>2016-02-21T12:20:34Z</time>
      </trkpt>
      <trkpt lat="45.60139" lon="6.9809">
        <ele>2633.95</ele>
        <time>2016-02-21T12:20:35Z</time>
      </trkpt>
      <trkpt lat="45.60127" lon="6.98089">
        <ele>2631.05</ele>
        <time>2016-02-21T12:20:39Z</time>
      </trkpt>
      <trkpt lat="45.60127" lon="6.9809">
        <ele>2627.58</ele>
        <time>2016-02-21T12:20:42Z</time>
      </trkpt>
      <trkpt lat="45.60125" lon="6.9809">
        <ele>2624.48</ele>
        <time>2016-02-21T12:20:47Z</time>
      </trkpt>
      <trkpt lat="45.6012" lon="6.98086">
        <ele>2623.94</ele>
        <time>2016-02-21T12:20:49Z</time>
      </trkpt>
      <trkpt lat="45.60085" lon="6.98078">
        <ele>2621.32</ele>
        <time>2016-02-21T12:20:58Z</time>
      </trkpt>
      <trkpt lat="45.60068" lon="6.9807">
        <ele>2618.45</ele>
        <time>2016-02-21T12:21:06Z</time>
      </trkpt>
      <trkpt lat="45.60052" lon="6.98065">
        <ele>2616.12</ele>
        <time>2016-02-21T12:21:15Z</time>
      </trkpt>
      <trkpt lat="45.60039" lon="6.98063">
        <ele>2615.29</ele>
        <time>2016-02-21T12:21:18Z</time>
      </trkpt>
      <trkpt lat="45.60018" lon="6.98054">
        <ele>2612.47</ele>
        <time>2016-02-21T12:21:25Z</time>
      </trkpt>
      <trkpt lat="45.60008" lon="6.98049">
        <ele>2611.58</ele>
        <time>2016-02-21T12:21:28Z</time>
      </trkpt>
      <trkpt lat="45.60006" lon="6.98025">
        <ele>2608.48</ele>
        <time>2016-02-21T12:21:33Z</time>
      </trkpt>
      <trkpt lat="45.60006" lon="6.98014">
        <ele>2605.38</ele>
        <time>2016-02-21T12:21:35Z</time>
      </trkpt>
      <trkpt lat="45.60009" lon="6.97991">
        <ele>2600.55</ele>
        <time>2016-02-21T12:21:38Z</time>
      </trkpt>
      <trkpt lat="45.60012" lon="6.97982">
        <ele>2598.34</ele>
        <time>2016-02-21T12:21:39Z</time>
      </trkpt>
      <trkpt lat="45.60024" lon="6.97955">
        <ele>2591.09</ele>
        <time>2016-02-21T12:21:42Z</time>
      </trkpt>
      <trkpt lat="45.60028" lon="6.97946">
        <ele>2589.11</ele>
        <time>2016-02-21T12:21:43Z</time>
      </trkpt>
      <trkpt lat="45.60038" lon="6.97931">
        <ele>2583.78</ele>
        <time>2016-02-21T12:21:45Z</time>
      </trkpt>
      <trkpt lat="45.60045" lon="6.97905">
        <ele>2578.12</ele>
        <time>2016-02-21T12:21:49Z</time>
      </trkpt>
      <trkpt lat="45.60045" lon="6.97894">
        <ele>2571.65</ele>
        <time>2016-02-21T12:21:54Z</time>
      </trkpt>
      <trkpt lat="45.60043" lon="6.97896">
        <ele>2568.47</ele>
        <time>2016-02-21T12:21:59Z</time>
      </trkpt>
      <trkpt lat="45.60041" lon="6.97897">
        <ele>2566.43</ele>
        <time>2016-02-21T12:22:21Z</time>
      </trkpt>
      <trkpt lat="45.60029" lon="6.97886">
        <ele>2566.54</ele>
        <time>2016-02-21T12:22:25Z</time>
      </trkpt>
      <trkpt lat="45.60016" lon="6.97883">
        <ele>2566.56</ele>
        <time>2016-02-21T12:22:27Z</time>
      </trkpt>
      <trkpt lat="45.5999" lon="6.97871">
        <ele>2565.27</ele>
        <time>2016-02-21T12:22:31Z</time>
      </trkpt>
      <trkpt lat="45.59979" lon="6.97866">
        <ele>2563.72</ele>
        <time>2016-02-21T12:22:33Z</time>
      </trkpt>
      <trkpt lat="45.59965" lon="6.97863">
        <ele>2560.87</ele>
        <time>2016-02-21T12:22:37Z</time>
      </trkpt>
      <trkpt lat="45.59962" lon="6.97865">
        <ele>2556.71</ele>
        <time>2016-02-21T12:22:43Z</time>
      </trkpt>
      <trkpt lat="45.59961" lon="6.97867">
        <ele>2554.38</ele>
        <time>2016-02-21T12:22:56Z</time>
      </trkpt>
      <trkpt lat="45.59953" lon="6.97862">
        <ele>2554.28</ele>
        <time>2016-02-21T12:23:00Z</time>
      </trkpt>
      <trkpt lat="45.59943" lon="6.9784">
        <ele>2553.24</ele>
        <time>2016-02-21T12:23:05Z</time>
      </trkpt>
      <trkpt lat="45.5994" lon="6.97837">
        <ele>2551.44</ele>
        <time>2016-02-21T12:23:07Z</time>
      </trkpt>
      <trkpt lat="45.59937" lon="6.97834">
        <ele>2549.68</ele>
        <time>2016-02-21T12:23:09Z</time>
      </trkpt>
      <trkpt lat="45.59937" lon="6.97801">
        <ele>2545.6</ele>
        <time>2016-02-21T12:23:14Z</time>
      </trkpt>
      <trkpt lat="45.59939" lon="6.97785">
        <ele>2542.16</ele>
        <time>2016-02-21T12:23:16Z</time>
      </trkpt>
      <trkpt lat="45.59937" lon="6.97777">
        <ele>2537.83</ele>
        <time>2016-02-21T12:23:18Z</time>
      </trkpt>
      <trkpt lat="45.59937" lon="6.97776">
        <ele>2534.39</ele>
        <time>2016-02-21T12:23:20Z</time>
      </trkpt>
      <trkpt lat="45.59938" lon="6.97777">
        <ele>2531.09</ele>
        <time>2016-02-21T12:23:23Z</time>
      </trkpt>
      <trkpt lat="45.59937" lon="6.97778">
        <ele>2528.08</ele>
        <time>2016-02-21T12:23:30Z</time>
      </trkpt>
      <trkpt lat="45.59936" lon="6.97778">
        <ele>2527.51</ele>
        <time>2016-02-21T12:23:35Z</time>
      </trkpt>
      <trkpt lat="45.59946" lon="6.97757">
        <ele>2526.08</ele>
        <time>2016-02-21T12:23:40Z</time>
      </trkpt>
      <trkpt lat="45.59952" lon="6.97756">
        <ele>2522.92</ele>
        <time>2016-02-21T12:23:45Z</time>
      </trkpt>
      <trkpt lat="45.59952" lon="6.97756">
        <ele>2522.64</ele>
        <time>2016-02-21T12:23:46Z</time>
      </trkpt>
      <trkpt lat="45.59952" lon="6.97756">
        <ele>2522.21</ele>
        <time>2016-02-21T12:23:50Z</time>
      </trkpt>
      <trkpt lat="45.59954" lon="6.97752">
        <ele>2522.07</ele>
        <time>2016-02-21T12:23:52Z</time>
      </trkpt>
      <trkpt lat="45.59961" lon="6.97745">
        <ele>2521.58</ele>
        <time>2016-02-21T12:23:54Z</time>
      </trkpt>
      <trkpt lat="45.59959" lon="6.97733">
        <ele>2520.14</ele>
        <time>2016-02-21T12:23:56Z</time>
      </trkpt>
      <trkpt lat="45.59959" lon="6.97712">
        <ele>2514.82</ele>
        <time>2016-02-21T12:24:00Z</time>
      </trkpt>
      <trkpt lat="45.59958" lon="6.977">
        <ele>2511.01</ele>
        <time>2016-02-21T12:24:02Z</time>
      </trkpt>
      <trkpt lat="45.59958" lon="6.97689">
        <ele>2506.76</ele>
        <time>2016-02-21T12:24:04Z</time>
      </trkpt>
      <trkpt lat="45.59957" lon="6.97678">
        <ele>2502.35</ele>
        <time>2016-02-21T12:24:06Z</time>
      </trkpt>
      <trkpt lat="45.59956" lon="6.97663">
        <ele>2498.05</ele>
        <time>2016-02-21T12:24:08Z</time>
      </trkpt>
      <trkpt lat="45.59961" lon="6.97632">
        <ele>2488.83</ele>
        <time>2016-02-21T12:24:12Z</time>
      </trkpt>
      <trkpt lat="45.59966" lon="6.97623">
        <ele>2483.66</ele>
        <time>2016-02-21T12:24:13Z</time>
      </trkpt>
      <trkpt lat="45.59978" lon="6.9761">
        <ele>2476.09</ele>
        <time>2016-02-21T12:24:16Z</time>
      </trkpt>
      <trkpt lat="45.59981" lon="6.97609">
        <ele>2472.82</ele>
        <time>2016-02-21T12:24:18Z</time>
      </trkpt>
      <trkpt lat="45.59983" lon="6.97612">
        <ele>2469.73</ele>
        <time>2016-02-21T12:24:22Z</time>
      </trkpt>
      <trkpt lat="45.59984" lon="6.97613">
        <ele>2467.92</ele>
        <time>2016-02-21T12:24:49Z</time>
      </trkpt>
      <trkpt lat="45.59984" lon="6.97613">
        <ele>2467.89</ele>
        <time>2016-02-21T12:24:50Z</time>
      </trkpt>
      <trkpt lat="45.59979" lon="6.97594">
        <ele>2467.74</ele>
        <time>2016-02-21T12:24:55Z</time>
      </trkpt>
      <trkpt lat="45.5997" lon="6.9757">
        <ele>2464.65</ele>
        <time>2016-02-21T12:24:59Z</time>
      </trkpt>
      <trkpt lat="45.59968" lon="6.97556">
        <ele>2459.54</ele>
        <time>2016-02-21T12:25:01Z</time>
      </trkpt>
      <trkpt lat="45.59963" lon="6.97545">
        <ele>2455.25</ele>
        <time>2016-02-21T12:25:03Z</time>
      </trkpt>
      <trkpt lat="45.59959" lon="6.97541">
        <ele>2450.73</ele>
        <time>2016-02-21T12:25:05Z</time>
      </trkpt>
      <trkpt lat="45.59959" lon="6.97543">
        <ele>2446.85</ele>
        <time>2016-02-21T12:25:07Z</time>
      </trkpt>
      <trkpt lat="45.59959" lon="6.97544">
        <ele>2442.78</ele>
        <time>2016-02-21T12:25:10Z</time>
      </trkpt>
      <trkpt lat="45.5996" lon="6.97547">
        <ele>2439.58</ele>
        <time>2016-02-21T12:25:16Z</time>
      </trkpt>
      <trkpt lat="45.5996" lon="6.97551">
        <ele>2438.68</ele>
        <time>2016-02-21T12:25:49Z</time>
      </trkpt>
      <trkpt lat="45.59961" lon="6.97552">
        <ele>2438.67</ele>
        <time>2016-02-21T12:26:18Z</time>
      </trkpt>
      <trkpt lat="45.5996" lon="6.9755">
        <ele>2438.37</ele>
        <time>2016-02-21T12:26:42Z</time>
      </trkpt>
      <trkpt lat="45.59961" lon="6.9755">
        <ele>2437.89</ele>
        <time>2016-02-21T12:27:14Z</time>
      </trkpt>
      <trkpt lat="45.59959" lon="6.97549">
        <ele>2437.88</ele>
        <time>2016-02-21T12:27:17Z</time>
      </trkpt>
      <trkpt lat="45.59946" lon="6.97531">
        <ele>2437.39</ele>
        <time>2016-02-21T12:27:22Z</time>
      </trkpt>
      <trkpt lat="45.59931" lon="6.97509">
        <ele>2434.42</ele>
        <time>2016-02-21T12:27:26Z</time>
      </trkpt>
      <trkpt lat="45.59925" lon="6.97486">
        <ele>2430.26</ele>
        <time>2016-02-21T12:27:29Z</time>
      </trkpt>
      <trkpt lat="45.59922" lon="6.9747">
        <ele>2423.86</ele>
        <time>2016-02-21T12:27:31Z</time>
      </trkpt>
      <trkpt lat="45.59919" lon="6.97457">
        <ele>2419.62</ele>
        <time>2016-02-21T12:27:33Z</time>
      </trkpt>
      <trkpt lat="45.59917" lon="6.97446">
        <ele>2415.37</ele>
        <time>2016-02-21T12:27:35Z</time>
      </trkpt>
      <trkpt lat="45.59914" lon="6.97434">
        <ele>2410.95</ele>
        <time>2016-02-21T12:27:37Z</time>
      </trkpt>
      <trkpt lat="45.59911" lon="6.97422">
        <ele>2406.73</ele>
        <time>2016-02-21T12:27:39Z</time>
      </trkpt>
      <trkpt lat="45.59906" lon="6.97414">
        <ele>2402.7</ele>
        <time>2016-02-21T12:27:41Z</time>
      </trkpt>
      <trkpt lat="45.59903" lon="6.97413">
        <ele>2399.04</ele>
        <time>2016-02-21T12:27:43Z</time>
      </trkpt>
      <trkpt lat="45.59903" lon="6.97413">
        <ele>2395.13</ele>
        <time>2016-02-21T12:27:46Z</time>
      </trkpt>
      <trkpt lat="45.59905" lon="6.97415">
        <ele>2392.11</ele>
        <time>2016-02-21T12:27:52Z</time>
      </trkpt>
      <trkpt lat="45.59907" lon="6.97419">
        <ele>2391.13</ele>
        <time>2016-02-21T12:28:22Z</time>
      </trkpt>
      <trkpt lat="45.59904" lon="6.97418">
        <ele>2391.24</ele>
        <time>2016-02-21T12:28:38Z</time>
      </trkpt>
      <trkpt lat="45.59887" lon="6.97405">
        <ele>2389.93</ele>
        <time>2016-02-21T12:28:44Z</time>
      </trkpt>
      <trkpt lat="45.59874" lon="6.97383">
        <ele>2386.37</ele>
        <time>2016-02-21T12:28:48Z</time>
      </trkpt>
      <trkpt lat="45.59863" lon="6.97363">
        <ele>2382.07</ele>
        <time>2016-02-21T12:28:51Z</time>
      </trkpt>
      <trkpt lat="45.59853" lon="6.97356">
        <ele>2378.21</ele>
        <time>2016-02-21T12:28:53Z</time>
      </trkpt>
      <trkpt lat="45.59837" lon="6.97345">
        <ele>2372.82</ele>
        <time>2016-02-21T12:28:56Z</time>
      </trkpt>
      <trkpt lat="45.59828" lon="6.97339">
        <ele>2368.77</ele>
        <time>2016-02-21T12:28:59Z</time>
      </trkpt>
      <trkpt lat="45.59819" lon="6.97334">
        <ele>2365.47</ele>
        <time>2016-02-21T12:29:03Z</time>
      </trkpt>
      <trkpt lat="45.59809" lon="6.97328">
        <ele>2362.87</ele>
        <time>2016-02-21T12:29:09Z</time>
      </trkpt>
      <trkpt lat="45.59791" lon="6.97319">
        <ele>2361.08</ele>
        <time>2016-02-21T12:29:15Z</time>
      </trkpt>
      <trkpt lat="45.59775" lon="6.97312">
        <ele>2359.44</ele>
        <time>2016-02-21T12:29:19Z</time>
      </trkpt>
      <trkpt lat="45.59761" lon="6.97303">
        <ele>2357.77</ele>
        <time>2016-02-21T12:29:23Z</time>
      </trkpt>
      <trkpt lat="45.59754" lon="6.97303">
        <ele>2354.16</ele>
        <time>2016-02-21T12:29:30Z</time>
      </trkpt>
      <trkpt lat="45.59752" lon="6.97304">
        <ele>2352.79</ele>
        <time>2016-02-21T12:29:54Z</time>
      </trkpt>
      <trkpt lat="45.59749" lon="6.97303">
        <ele>2352.37</ele>
        <time>2016-02-21T12:30:09Z</time>
      </trkpt>
      <trkpt lat="45.59743" lon="6.97286">
        <ele>2352.25</ele>
        <time>2016-02-21T12:30:13Z</time>
      </trkpt>
      <trkpt lat="45.59728" lon="6.97259">
        <ele>2348.19</ele>
        <time>2016-02-21T12:30:19Z</time>
      </trkpt>
      <trkpt lat="45.59724" lon="6.97253">
        <ele>2346.29</ele>
        <time>2016-02-21T12:30:21Z</time>
      </trkpt>
      <trkpt lat="45.59724" lon="6.97244">
        <ele>2344.68</ele>
        <time>2016-02-21T12:30:23Z</time>
      </trkpt>
      <trkpt lat="45.59724" lon="6.97223">
        <ele>2341.37</ele>
        <time>2016-02-21T12:30:26Z</time>
      </trkpt>
      <trkpt lat="45.59726" lon="6.97203">
        <ele>2336.77</ele>
        <time>2016-02-21T12:30:29Z</time>
      </trkpt>
      <trkpt lat="45.59725" lon="6.97191">
        <ele>2332.98</ele>
        <time>2016-02-21T12:30:31Z</time>
      </trkpt>
      <trkpt lat="45.59721" lon="6.97175">
        <ele>2329.1</ele>
        <time>2016-02-21T12:30:33Z</time>
      </trkpt>
      <trkpt lat="45.59714" lon="6.9716">
        <ele>2325.4</ele>
        <time>2016-02-21T12:30:35Z</time>
      </trkpt>
      <trkpt lat="45.59707" lon="6.97142">
        <ele>2320.81</ele>
        <time>2016-02-21T12:30:37Z</time>
      </trkpt>
      <trkpt lat="45.5971" lon="6.97123">
        <ele>2314.98</ele>
        <time>2016-02-21T12:30:40Z</time>
      </trkpt>
      <trkpt lat="45.59711" lon="6.97124">
        <ele>2311.79</ele>
        <time>2016-02-21T12:30:42Z</time>
      </trkpt>
      <trkpt lat="45.59711" lon="6.97126">
        <ele>2308.74</ele>
        <time>2016-02-21T12:30:45Z</time>
      </trkpt>
      <trkpt lat="45.59712" lon="6.97127">
        <ele>2306.39</ele>
        <time>2016-02-21T12:30:49Z</time>
      </trkpt>
      <trkpt lat="45.59712" lon="6.97129">
        <ele>2305.12</ele>
        <time>2016-02-21T12:31:17Z</time>
      </trkpt>
      <trkpt lat="45.59714" lon="6.97128">
        <ele>2305.08</ele>
        <time>2016-02-21T12:31:23Z</time>
      </trkpt>
      <trkpt lat="45.59725" lon="6.97119">
        <ele>2304.88</ele>
        <time>2016-02-21T12:31:27Z</time>
      </trkpt>
      <trkpt lat="45.59736" lon="6.97097">
        <ele>2303.56</ele>
        <time>2016-02-21T12:31:30Z</time>
      </trkpt>
      <trkpt lat="45.59751" lon="6.97072">
        <ele>2299.77</ele>
        <time>2016-02-21T12:31:34Z</time>
      </trkpt>
      <trkpt lat="45.59763" lon="6.97047">
        <ele>2294.13</ele>
        <time>2016-02-21T12:31:38Z</time>
      </trkpt>
      <trkpt lat="45.59773" lon="6.97028">
        <ele>2290.72</ele>
        <time>2016-02-21T12:31:41Z</time>
      </trkpt>
      <trkpt lat="45.59777" lon="6.97003">
        <ele>2286.77</ele>
        <time>2016-02-21T12:31:44Z</time>
      </trkpt>
      <trkpt lat="45.59778" lon="6.96994">
        <ele>2285.36</ele>
        <time>2016-02-21T12:31:45Z</time>
      </trkpt>
      <trkpt lat="45.59778" lon="6.96977">
        <ele>2282.82</ele>
        <time>2016-02-21T12:31:47Z</time>
      </trkpt>
      <trkpt lat="45.59789" lon="6.96949">
        <ele>2278.04</ele>
        <time>2016-02-21T12:31:51Z</time>
      </trkpt>
      <trkpt lat="45.59805" lon="6.96933">
        <ele>2274</ele>
        <time>2016-02-21T12:31:55Z</time>
      </trkpt>
      <trkpt lat="45.59823" lon="6.96927">
        <ele>2270.58</ele>
        <time>2016-02-21T12:31:58Z</time>
      </trkpt>
      <trkpt lat="45.59827" lon="6.96905">
        <ele>2267.29</ele>
        <time>2016-02-21T12:32:01Z</time>
      </trkpt>
      <trkpt lat="45.59837" lon="6.96874">
        <ele>2259.91</ele>
        <time>2016-02-21T12:32:05Z</time>
      </trkpt>
      <trkpt lat="45.59848" lon="6.96852">
        <ele>2255.95</ele>
        <time>2016-02-21T12:32:08Z</time>
      </trkpt>
      <trkpt lat="45.59848" lon="6.96842">
        <ele>2254.59</ele>
        <time>2016-02-21T12:32:09Z</time>
      </trkpt>
      <trkpt lat="45.59859" lon="6.96811">
        <ele>2248.65</ele>
        <time>2016-02-21T12:32:13Z</time>
      </trkpt>
      <trkpt lat="45.59866" lon="6.9678">
        <ele>2243.44</ele>
        <time>2016-02-21T12:32:17Z</time>
      </trkpt>
      <trkpt lat="45.59868" lon="6.96759">
        <ele>2239.18</ele>
        <time>2016-02-21T12:32:20Z</time>
      </trkpt>
      <trkpt lat="45.59867" lon="6.96757">
        <ele>2235.83</ele>
        <time>2016-02-21T12:32:23Z</time>
      </trkpt>
      <trkpt lat="45.59867" lon="6.96758">
        <ele>2233.2</ele>
        <time>2016-02-21T12:32:27Z</time>
      </trkpt>
      <trkpt lat="45.59866" lon="6.96759">
        <ele>2231.26</ele>
        <time>2016-02-21T12:32:51Z</time>
      </trkpt>
      <trkpt lat="45.59867" lon="6.96758">
        <ele>2231.55</ele>
        <time>2016-02-21T12:33:09Z</time>
      </trkpt>
      <trkpt lat="45.59878" lon="6.96731">
        <ele>2231.22</ele>
        <time>2016-02-21T12:33:15Z</time>
      </trkpt>
      <trkpt lat="45.59882" lon="6.96722">
        <ele>2230.89</ele>
        <time>2016-02-21T12:33:16Z</time>
      </trkpt>
      <trkpt lat="45.59887" lon="6.96682">
        <ele>2226.64</ele>
        <time>2016-02-21T12:33:20Z</time>
      </trkpt>
      <trkpt lat="45.59883" lon="6.96663">
        <ele>2222.5</ele>
        <time>2016-02-21T12:33:23Z</time>
      </trkpt>
      <trkpt lat="45.59891" lon="6.96644">
        <ele>2218.81</ele>
        <time>2016-02-21T12:33:27Z</time>
      </trkpt>
      <trkpt lat="45.59904" lon="6.96622">
        <ele>2215.04</ele>
        <time>2016-02-21T12:33:32Z</time>
      </trkpt>
      <trkpt lat="45.59908" lon="6.96626">
        <ele>2211.56</ele>
        <time>2016-02-21T12:33:36Z</time>
      </trkpt>
      <trkpt lat="45.59908" lon="6.96625">
        <ele>2208.55</ele>
        <time>2016-02-21T12:33:43Z</time>
      </trkpt>
      <trkpt lat="45.59908" lon="6.96627">
        <ele>2208.05</ele>
        <time>2016-02-21T12:34:08Z</time>
      </trkpt>
      <trkpt lat="45.59909" lon="6.96628">
        <ele>2207.84</ele>
        <time>2016-02-21T12:34:34Z</time>
      </trkpt>
      <trkpt lat="45.59934" lon="6.96626">
        <ele>2207.33</ele>
        <time>2016-02-21T12:34:40Z</time>
      </trkpt>
      <trkpt lat="45.59968" lon="6.96626">
        <ele>2203.65</ele>
        <time>2016-02-21T12:34:45Z</time>
      </trkpt>
      <trkpt lat="45.59979" lon="6.96603">
        <ele>2199.82</ele>
        <time>2016-02-21T12:34:49Z</time>
      </trkpt>
      <trkpt lat="45.5998" lon="6.96572">
        <ele>2194.8</ele>
        <time>2016-02-21T12:34:54Z</time>
      </trkpt>
      <trkpt lat="45.5998" lon="6.96559">
        <ele>2191.58</ele>
        <time>2016-02-21T12:34:56Z</time>
      </trkpt>
      <trkpt lat="45.59982" lon="6.96552">
        <ele>2191.58</ele>
        <time>2016-02-21T12:34:57Z</time>
      </trkpt>
      <trkpt lat="45.59988" lon="6.9654">
        <ele>2188.17</ele>
        <time>2016-02-21T12:34:59Z</time>
      </trkpt>
      <trkpt lat="45.59989" lon="6.96518">
        <ele>2184.5</ele>
        <time>2016-02-21T12:35:02Z</time>
      </trkpt>
      <trkpt lat="45.59991" lon="6.96495">
        <ele>2180.18</ele>
        <time>2016-02-21T12:35:05Z</time>
      </trkpt>
      <trkpt lat="45.59996" lon="6.96464">
        <ele>2173.94</ele>
        <time>2016-02-21T12:35:09Z</time>
      </trkpt>
      <trkpt lat="45.6" lon="6.96447">
        <ele>2170.85</ele>
        <time>2016-02-21T12:35:11Z</time>
      </trkpt>
      <trkpt lat="45.59996" lon="6.96419">
        <ele>2163.29</ele>
        <time>2016-02-21T12:35:16Z</time>
      </trkpt>
      <trkpt lat="45.59999" lon="6.96403">
        <ele>2159.06</ele>
        <time>2016-02-21T12:35:19Z</time>
      </trkpt>
      <trkpt lat="45.60003" lon="6.96384">
        <ele>2155.14</ele>
        <time>2016-02-21T12:35:22Z</time>
      </trkpt>
      <trkpt lat="45.60007" lon="6.96379">
        <ele>2154.05</ele>
        <time>2016-02-21T12:35:23Z</time>
      </trkpt>
      <trkpt lat="45.60019" lon="6.96365">
        <ele>2148.31</ele>
        <time>2016-02-21T12:35:29Z</time>
      </trkpt>
      <trkpt lat="45.60015" lon="6.96363">
        <ele>2145.28</ele>
        <time>2016-02-21T12:35:42Z</time>
      </trkpt>
      <trkpt lat="45.60011" lon="6.96359">
        <ele>2145.35</ele>
        <time>2016-02-21T12:36:07Z</time>
      </trkpt>
      <trkpt lat="45.6001" lon="6.96357">
        <ele>2145.61</ele>
        <time>2016-02-21T12:36:15Z</time>
      </trkpt>
      <trkpt lat="45.59996" lon="6.96332">
        <ele>2144.64</ele>
        <time>2016-02-21T12:36:20Z</time>
      </trkpt>
      <trkpt lat="45.59998" lon="6.96326">
        <ele>2143.59</ele>
        <time>2016-02-21T12:36:21Z</time>
      </trkpt>
      <trkpt lat="45.60003" lon="6.96317">
        <ele>2141.29</ele>
        <time>2016-02-21T12:36:23Z</time>
      </trkpt>
      <trkpt lat="45.60007" lon="6.96298">
        <ele>2138.38</ele>
        <time>2016-02-21T12:36:26Z</time>
      </trkpt>
      <trkpt lat="45.60015" lon="6.96271">
        <ele>2134.1</ele>
        <time>2016-02-21T12:36:30Z</time>
      </trkpt>
      <trkpt lat="45.60023" lon="6.9625">
        <ele>2130.65</ele>
        <time>2016-02-21T12:36:33Z</time>
      </trkpt>
      <trkpt lat="45.60035" lon="6.96228">
        <ele>2125.62</ele>
        <time>2016-02-21T12:36:36Z</time>
      </trkpt>
      <trkpt lat="45.6004" lon="6.96204">
        <ele>2121.53</ele>
        <time>2016-02-21T12:36:39Z</time>
      </trkpt>
      <trkpt lat="45.60046" lon="6.96191">
        <ele>2118.28</ele>
        <time>2016-02-21T12:36:41Z</time>
      </trkpt>
      <trkpt lat="45.60049" lon="6.96162">
        <ele>2111.04</ele>
        <time>2016-02-21T12:36:46Z</time>
      </trkpt>
      <trkpt lat="45.60042" lon="6.96141">
        <ele>2106.59</ele>
        <time>2016-02-21T12:36:49Z</time>
      </trkpt>
      <trkpt lat="45.60051" lon="6.96132">
        <ele>2104.1</ele>
        <time>2016-02-21T12:36:51Z</time>
      </trkpt>
      <trkpt lat="45.60059" lon="6.9612">
        <ele>2098.75</ele>
        <time>2016-02-21T12:36:56Z</time>
      </trkpt>
      <trkpt lat="45.60058" lon="6.96119">
        <ele>2095.15</ele>
        <time>2016-02-21T12:37:00Z</time>
      </trkpt>
      <trkpt lat="45.60054" lon="6.9612">
        <ele>2092.44</ele>
        <time>2016-02-21T12:37:28Z</time>
      </trkpt>
      <trkpt lat="45.60056" lon="6.96118">
        <ele>2092.38</ele>
        <time>2016-02-21T12:38:00Z</time>
      </trkpt>
      <trkpt lat="45.60054" lon="6.96119">
        <ele>2092.32</ele>
        <time>2016-02-21T12:38:23Z</time>
      </trkpt>
      <trkpt lat="45.60053" lon="6.96118">
        <ele>2092.27</ele>
        <time>2016-02-21T12:38:30Z</time>
      </trkpt>
      <trkpt lat="45.60057" lon="6.96101">
        <ele>2092.09</ele>
        <time>2016-02-21T12:38:35Z</time>
      </trkpt>
      <trkpt lat="45.6006" lon="6.96099">
        <ele>2091.8</ele>
        <time>2016-02-21T12:38:36Z</time>
      </trkpt>
      <trkpt lat="45.60062" lon="6.9607">
        <ele>2088.65</ele>
        <time>2016-02-21T12:38:42Z</time>
      </trkpt>
      <trkpt lat="45.60074" lon="6.96052">
        <ele>2085.4</ele>
        <time>2016-02-21T12:38:46Z</time>
      </trkpt>
      <trkpt lat="45.60093" lon="6.96039">
        <ele>2082.4</ele>
        <time>2016-02-21T12:38:50Z</time>
      </trkpt>
      <trkpt lat="45.6011" lon="6.96012">
        <ele>2079.08</ele>
        <time>2016-02-21T12:38:55Z</time>
      </trkpt>
      <trkpt lat="45.60125" lon="6.95989">
        <ele>2074.59</ele>
        <time>2016-02-21T12:39:00Z</time>
      </trkpt>
      <trkpt lat="45.60132" lon="6.95976">
        <ele>2070.93</ele>
        <time>2016-02-21T12:39:04Z</time>
      </trkpt>
      <trkpt lat="45.60144" lon="6.95962">
        <ele>2066.93</ele>
        <time>2016-02-21T12:39:08Z</time>
      </trkpt>
      <trkpt lat="45.60161" lon="6.95947">
        <ele>2063.77</ele>
        <time>2016-02-21T12:39:13Z</time>
      </trkpt>
      <trkpt lat="45.60183" lon="6.95935">
        <ele>2060.75</ele>
        <time>2016-02-21T12:39:18Z</time>
      </trkpt>
      <trkpt lat="45.602" lon="6.95925">
        <ele>2057.6</ele>
        <time>2016-02-21T12:39:23Z</time>
      </trkpt>
      <trkpt lat="45.60217" lon="6.95917">
        <ele>2055.01</ele>
        <time>2016-02-21T12:39:30Z</time>
      </trkpt>
      <trkpt lat="45.60225" lon="6.95916">
        <ele>2053.98</ele>
        <time>2016-02-21T12:39:32Z</time>
      </trkpt>
      <trkpt lat="45.60229" lon="6.95916">
        <ele>2053.5</ele>
        <time>2016-02-21T12:39:33Z</time>
      </trkpt>
      <trkpt lat="45.60241" lon="6.95906">
        <ele>2052.82</ele>
        <time>2016-02-21T12:39:34Z</time>
      </trkpt>
      <trkpt lat="45.60241" lon="6.95905">
        <ele>2041.42</ele>
        <time>2016-02-21T13:07:06Z</time>
      </trkpt>
      <trkpt lat="45.60231" lon="6.95901">
        <ele>2041.36</ele>
        <time>2016-02-21T13:07:07Z</time>
      </trkpt>
      <trkpt lat="45.60227" lon="6.95899">
        <ele>2041.3</ele>
        <time>2016-02-21T13:07:08Z</time>
      </trkpt>
      <trkpt lat="45.60222" lon="6.95897">
        <ele>2041.17</ele>
        <time>2016-02-21T13:07:09Z</time>
      </trkpt>
      <trkpt lat="45.60217" lon="6.95895">
        <ele>2040.54</ele>
        <time>2016-02-21T13:07:10Z</time>
      </trkpt>
      <trkpt lat="45.60212" lon="6.95892">
        <ele>2039.97</ele>
        <time>2016-02-21T13:07:11Z</time>
      </trkpt>
      <trkpt lat="45.60207" lon="6.95886">
        <ele>2039.29</ele>
        <time>2016-02-21T13:07:12Z</time>
      </trkpt>
      <trkpt lat="45.60202" lon="6.95879">
        <ele>2038.56</ele>
        <time>2016-02-21T13:07:13Z</time>
      </trkpt>
      <trkpt lat="45.60197" lon="6.9587">
        <ele>2037.69</ele>
        <time>2016-02-21T13:07:14Z</time>
      </trkpt>
      <trkpt lat="45.60193" lon="6.95851">
        <ele>2035.6</ele>
        <time>2016-02-21T13:07:16Z</time>
      </trkpt>
      <trkpt lat="45.60188" lon="6.95824">
        <ele>2033.27</ele>
        <time>2016-02-21T13:07:19Z</time>
      </trkpt>
      <trkpt lat="45.60177" lon="6.95763">
        <ele>2028.93</ele>
        <time>2016-02-21T13:07:25Z</time>
      </trkpt>
      <trkpt lat="45.60174" lon="6.95735">
        <ele>2026.55</ele>
        <time>2016-02-21T13:07:28Z</time>
      </trkpt>
      <trkpt lat="45.60166" lon="6.95678">
        <ele>2021.43</ele>
        <time>2016-02-21T13:07:34Z</time>
      </trkpt>
      <trkpt lat="45.60159" lon="6.95638">
        <ele>2018.21</ele>
        <time>2016-02-21T13:07:38Z</time>
      </trkpt>
      <trkpt lat="45.6015" lon="6.95597">
        <ele>2014.85</ele>
        <time>2016-02-21T13:07:42Z</time>
      </trkpt>
      <trkpt lat="45.60143" lon="6.95559">
        <ele>2011.37</ele>
        <time>2016-02-21T13:07:46Z</time>
      </trkpt>
      <trkpt lat="45.60137" lon="6.95518">
        <ele>2008.3</ele>
        <time>2016-02-21T13:07:50Z</time>
      </trkpt>
      <trkpt lat="45.60132" lon="6.9548">
        <ele>2004.78</ele>
        <time>2016-02-21T13:07:54Z</time>
      </trkpt>
      <trkpt lat="45.60129" lon="6.95447">
        <ele>2001.68</ele>
        <time>2016-02-21T13:07:58Z</time>
      </trkpt>
      <trkpt lat="45.60129" lon="6.95434">
        <ele>2000.46</ele>
        <time>2016-02-21T13:08:00Z</time>
      </trkpt>
      <trkpt lat="45.60129" lon="6.95413">
        <ele>1998.67</ele>
        <time>2016-02-21T13:08:03Z</time>
      </trkpt>
      <trkpt lat="45.60125" lon="6.95366">
        <ele>1995.39</ele>
        <time>2016-02-21T13:08:09Z</time>
      </trkpt>
      <trkpt lat="45.60124" lon="6.95338">
        <ele>1992.47</ele>
        <time>2016-02-21T13:08:16Z</time>
      </trkpt>
      <trkpt lat="45.60122" lon="6.95335">
        <ele>1993.19</ele>
        <time>2016-02-21T13:08:28Z</time>
      </trkpt>
      <trkpt lat="45.60122" lon="6.95331">
        <ele>1993.91</ele>
        <time>2016-02-21T13:08:41Z</time>
      </trkpt>
      <trkpt lat="45.60125" lon="6.95318">
        <ele>1993.55</ele>
        <time>2016-02-21T13:08:51Z</time>
      </trkpt>
      <trkpt lat="45.60129" lon="6.95298">
        <ele>1993.26</ele>
        <time>2016-02-21T13:09:03Z</time>
      </trkpt>
      <trkpt lat="45.60131" lon="6.95285">
        <ele>1992.13</ele>
        <time>2016-02-21T13:09:09Z</time>
      </trkpt>
      <trkpt lat="45.60131" lon="6.95267">
        <ele>1991.61</ele>
        <time>2016-02-21T13:09:22Z</time>
      </trkpt>
      <trkpt lat="45.60138" lon="6.95256">
        <ele>1991.26</ele>
        <time>2016-02-21T13:09:24Z</time>
      </trkpt>
      <trkpt lat="45.60145" lon="6.95239">
        <ele>1990.61</ele>
        <time>2016-02-21T13:09:26Z</time>
      </trkpt>
      <trkpt lat="45.6014" lon="6.95223">
        <ele>1986.88</ele>
        <time>2016-02-21T13:09:30Z</time>
      </trkpt>
      <trkpt lat="45.60136" lon="6.95214">
        <ele>1983.68</ele>
        <time>2016-02-21T13:09:36Z</time>
      </trkpt>
      <trkpt lat="45.60135" lon="6.95215">
        <ele>1982.68</ele>
        <time>2016-02-21T13:10:06Z</time>
      </trkpt>
      <trkpt lat="45.60133" lon="6.95207">
        <ele>1982.46</ele>
        <time>2016-02-21T13:10:12Z</time>
      </trkpt>
      <trkpt lat="45.60127" lon="6.95156">
        <ele>1981</ele>
        <time>2016-02-21T13:10:17Z</time>
      </trkpt>
      <trkpt lat="45.60116" lon="6.95096">
        <ele>1974.23</ele>
        <time>2016-02-21T13:10:21Z</time>
      </trkpt>
      <trkpt lat="45.60115" lon="6.95083">
        <ele>1972.02</ele>
        <time>2016-02-21T13:10:22Z</time>
      </trkpt>
      <trkpt lat="45.60114" lon="6.95052">
        <ele>1965.86</ele>
        <time>2016-02-21T13:10:25Z</time>
      </trkpt>
      <trkpt lat="45.60115" lon="6.95031">
        <ele>1962.3</ele>
        <time>2016-02-21T13:10:28Z</time>
      </trkpt>
      <trkpt lat="45.60117" lon="6.95006">
        <ele>1959.06</ele>
        <time>2016-02-21T13:10:33Z</time>
      </trkpt>
      <trkpt lat="45.6012" lon="6.94978">
        <ele>1956.05</ele>
        <time>2016-02-21T13:10:39Z</time>
      </trkpt>
      <trkpt lat="45.60121" lon="6.94972">
        <ele>1955.64</ele>
        <time>2016-02-21T13:10:40Z</time>
      </trkpt>
      <trkpt lat="45.60122" lon="6.94953">
        <ele>1954.47</ele>
        <time>2016-02-21T13:10:43Z</time>
      </trkpt>
      <trkpt lat="45.60124" lon="6.94913">
        <ele>1951.1</ele>
        <time>2016-02-21T13:10:49Z</time>
      </trkpt>
      <trkpt lat="45.60123" lon="6.94873">
        <ele>1947.03</ele>
        <time>2016-02-21T13:10:56Z</time>
      </trkpt>
      <trkpt lat="45.6012" lon="6.94844">
        <ele>1943.88</ele>
        <time>2016-02-21T13:11:03Z</time>
      </trkpt>
      <trkpt lat="45.60119" lon="6.94837">
        <ele>1942.61</ele>
        <time>2016-02-21T13:11:10Z</time>
      </trkpt>
      <trkpt lat="45.60118" lon="6.94835">
        <ele>1942.28</ele>
        <time>2016-02-21T13:11:40Z</time>
      </trkpt>
      <trkpt lat="45.60119" lon="6.94833">
        <ele>1942.3</ele>
        <time>2016-02-21T13:12:15Z</time>
      </trkpt>
      <trkpt lat="45.60118" lon="6.94832">
        <ele>1942.01</ele>
        <time>2016-02-21T13:12:35Z</time>
      </trkpt>
      <trkpt lat="45.60118" lon="6.9483">
        <ele>1941.76</ele>
        <time>2016-02-21T13:12:52Z</time>
      </trkpt>
      <trkpt lat="45.60114" lon="6.94825">
        <ele>1941.76</ele>
        <time>2016-02-21T13:12:55Z</time>
      </trkpt>
      <trkpt lat="45.60097" lon="6.94817">
        <ele>1939.87</ele>
        <time>2016-02-21T13:13:02Z</time>
      </trkpt>
      <trkpt lat="45.60095" lon="6.94817">
        <ele>1937.92</ele>
        <time>2016-02-21T13:13:27Z</time>
      </trkpt>
      <trkpt lat="45.60103" lon="6.948">
        <ele>1937.57</ele>
        <time>2016-02-21T13:13:31Z</time>
      </trkpt>
      <trkpt lat="45.60103" lon="6.94774">
        <ele>1934.39</ele>
        <time>2016-02-21T13:13:34Z</time>
      </trkpt>
      <trkpt lat="45.60094" lon="6.9474">
        <ele>1929.4</ele>
        <time>2016-02-21T13:13:38Z</time>
      </trkpt>
      <trkpt lat="45.60096" lon="6.94713">
        <ele>1925.57</ele>
        <time>2016-02-21T13:13:42Z</time>
      </trkpt>
      <trkpt lat="45.60108" lon="6.94706">
        <ele>1923.73</ele>
        <time>2016-02-21T13:13:44Z</time>
      </trkpt>
      <trkpt lat="45.60114" lon="6.94679">
        <ele>1918.62</ele>
        <time>2016-02-21T13:13:49Z</time>
      </trkpt>
      <trkpt lat="45.60106" lon="6.94674">
        <ele>1914.69</ele>
        <time>2016-02-21T13:13:52Z</time>
      </trkpt>
      <trkpt lat="45.60107" lon="6.94675">
        <ele>1911.28</ele>
        <time>2016-02-21T13:13:56Z</time>
      </trkpt>
      <trkpt lat="45.60107" lon="6.94675">
        <ele>1910.18</ele>
        <time>2016-02-21T13:13:58Z</time>
      </trkpt>
      <trkpt lat="45.60106" lon="6.94671">
        <ele>1909.21</ele>
        <time>2016-02-21T13:14:20Z</time>
      </trkpt>
      <trkpt lat="45.601" lon="6.94655">
        <ele>1908.66</ele>
        <time>2016-02-21T13:14:24Z</time>
      </trkpt>
      <trkpt lat="45.60099" lon="6.94602">
        <ele>1904.52</ele>
        <time>2016-02-21T13:14:31Z</time>
      </trkpt>
      <trkpt lat="45.601" lon="6.94563">
        <ele>1900.36</ele>
        <time>2016-02-21T13:14:34Z</time>
      </trkpt>
      <trkpt lat="45.60102" lon="6.9454">
        <ele>1896.86</ele>
        <time>2016-02-21T13:14:36Z</time>
      </trkpt>
      <trkpt lat="45.60108" lon="6.94513">
        <ele>1893.16</ele>
        <time>2016-02-21T13:14:39Z</time>
      </trkpt>
      <trkpt lat="45.60111" lon="6.94497">
        <ele>1891.48</ele>
        <time>2016-02-21T13:14:41Z</time>
      </trkpt>
      <trkpt lat="45.60117" lon="6.94468">
        <ele>1888.52</ele>
        <time>2016-02-21T13:14:47Z</time>
      </trkpt>
      <trkpt lat="45.60117" lon="6.94462">
        <ele>1888.04</ele>
        <time>2016-02-21T13:14:51Z</time>
      </trkpt>
      <trkpt lat="45.60117" lon="6.94456">
        <ele>1887.78</ele>
        <time>2016-02-21T13:14:55Z</time>
      </trkpt>
      <trkpt lat="45.60118" lon="6.94448">
        <ele>1887.4</ele>
        <time>2016-02-21T13:15:01Z</time>
      </trkpt>
      <trkpt lat="45.60123" lon="6.94432">
        <ele>1887.24</ele>
        <time>2016-02-21T13:15:12Z</time>
      </trkpt>
      <trkpt lat="45.60135" lon="6.94403">
        <ele>1886.07</ele>
        <time>2016-02-21T13:15:18Z</time>
      </trkpt>
      <trkpt lat="45.60146" lon="6.94366">
        <ele>1883.45</ele>
        <time>2016-02-21T13:15:26Z</time>
      </trkpt>
      <trkpt lat="45.60154" lon="6.94322">
        <ele>1881.35</ele>
        <time>2016-02-21T13:15:35Z</time>
      </trkpt>
      <trkpt lat="45.60156" lon="6.94305">
        <ele>1880.03</ele>
        <time>2016-02-21T13:15:37Z</time>
      </trkpt>
      <trkpt lat="45.60153" lon="6.94261">
        <ele>1876.09</ele>
        <time>2016-02-21T13:15:42Z</time>
      </trkpt>
      <trkpt lat="45.60146" lon="6.94251">
        <ele>1872.76</ele>
        <time>2016-02-21T13:15:46Z</time>
      </trkpt>
      <trkpt lat="45.60134" lon="6.94241">
        <ele>1869.6</ele>
        <time>2016-02-21T13:15:57Z</time>
      </trkpt>
      <trkpt lat="45.6013" lon="6.94239">
        <ele>1868.57</ele>
        <time>2016-02-21T13:16:11Z</time>
      </trkpt>
      <trkpt lat="45.60138" lon="6.94222">
        <ele>1867.54</ele>
        <time>2016-02-21T13:16:16Z</time>
      </trkpt>
      <trkpt lat="45.60139" lon="6.94221">
        <ele>1864.26</ele>
        <time>2016-02-21T13:16:21Z</time>
      </trkpt>
      <trkpt lat="45.60139" lon="6.94221">
        <ele>1863.32</ele>
        <time>2016-02-21T13:16:23Z</time>
      </trkpt>
      <trkpt lat="45.60139" lon="6.9422">
        <ele>1862.24</ele>
        <time>2016-02-21T13:16:58Z</time>
      </trkpt>
      <trkpt lat="45.60146" lon="6.94213">
        <ele>1861.83</ele>
        <time>2016-02-21T13:17:21Z</time>
      </trkpt>
      <trkpt lat="45.60151" lon="6.94196">
        <ele>1858.92</ele>
        <time>2016-02-21T13:17:26Z</time>
      </trkpt>
      <trkpt lat="45.60151" lon="6.94197">
        <ele>1855.92</ele>
        <time>2016-02-21T13:17:33Z</time>
      </trkpt>
      <trkpt lat="45.60153" lon="6.94195">
        <ele>1854.83</ele>
        <time>2016-02-21T13:18:00Z</time>
      </trkpt>
      <trkpt lat="45.60158" lon="6.94184">
        <ele>1854.68</ele>
        <time>2016-02-21T13:18:04Z</time>
      </trkpt>
      <trkpt lat="45.6016" lon="6.94176">
        <ele>1853.02</ele>
        <time>2016-02-21T13:18:15Z</time>
      </trkpt>
      <trkpt lat="45.60163" lon="6.94167">
        <ele>1853.12</ele>
        <time>2016-02-21T13:18:29Z</time>
      </trkpt>
      <trkpt lat="45.60168" lon="6.94151">
        <ele>1852.46</ele>
        <time>2016-02-21T13:18:40Z</time>
      </trkpt>
      <trkpt lat="45.60171" lon="6.94137">
        <ele>1851.64</ele>
        <time>2016-02-21T13:18:48Z</time>
      </trkpt>
      <trkpt lat="45.60181" lon="6.94122">
        <ele>1851.31</ele>
        <time>2016-02-21T13:19:01Z</time>
      </trkpt>
      <trkpt lat="45.60187" lon="6.94107">
        <ele>1850.53</ele>
        <time>2016-02-21T13:19:04Z</time>
      </trkpt>
      <trkpt lat="45.60196" lon="6.9407">
        <ele>1847.06</ele>
        <time>2016-02-21T13:19:10Z</time>
      </trkpt>
      <trkpt lat="45.60198" lon="6.94039">
        <ele>1843.86</ele>
        <time>2016-02-21T13:19:14Z</time>
      </trkpt>
      <trkpt lat="45.60198" lon="6.94022">
        <ele>1843.19</ele>
        <time>2016-02-21T13:19:16Z</time>
      </trkpt>
      <trkpt lat="45.60198" lon="6.93997">
        <ele>1839.3</ele>
        <time>2016-02-21T13:19:22Z</time>
      </trkpt>
      <trkpt lat="45.60198" lon="6.93988">
        <ele>1838.98</ele>
        <time>2016-02-21T13:19:36Z</time>
      </trkpt>
      <trkpt lat="45.60197" lon="6.93979">
        <ele>1839.49</ele>
        <time>2016-02-21T13:19:51Z</time>
      </trkpt>
      <trkpt lat="45.60197" lon="6.93976">
        <ele>1839.65</ele>
        <time>2016-02-21T13:19:56Z</time>
      </trkpt>
      <trkpt lat="45.60204" lon="6.93944">
        <ele>1838.37</ele>
        <time>2016-02-21T13:20:07Z</time>
      </trkpt>
      <trkpt lat="45.60216" lon="6.93912">
        <ele>1836.31</ele>
        <time>2016-02-21T13:20:17Z</time>
      </trkpt>
      <trkpt lat="45.60223" lon="6.93874">
        <ele>1833.98</ele>
        <time>2016-02-21T13:20:27Z</time>
      </trkpt>
      <trkpt lat="45.60227" lon="6.93846">
        <ele>1831.86</ele>
        <time>2016-02-21T13:20:32Z</time>
      </trkpt>
      <trkpt lat="45.60232" lon="6.93812">
        <ele>1828.24</ele>
        <time>2016-02-21T13:20:38Z</time>
      </trkpt>
      <trkpt lat="45.60232" lon="6.9381">
        <ele>1825.58</ele>
        <time>2016-02-21T13:20:48Z</time>
      </trkpt>
      <trkpt lat="45.60234" lon="6.93807">
        <ele>1824.94</ele>
        <time>2016-02-21T13:21:03Z</time>
      </trkpt>
      <trkpt lat="45.60236" lon="6.93794">
        <ele>1824.59</ele>
        <time>2016-02-21T13:21:07Z</time>
      </trkpt>
      <trkpt lat="45.60234" lon="6.9379">
        <ele>1822.08</ele>
        <time>2016-02-21T13:21:28Z</time>
      </trkpt>
      <trkpt lat="45.60237" lon="6.93789">
        <ele>1821.44</ele>
        <time>2016-02-21T13:21:39Z</time>
      </trkpt>
      <trkpt lat="45.60236" lon="6.93785">
        <ele>1819.87</ele>
        <time>2016-02-21T13:22:06Z</time>
      </trkpt>
      <trkpt lat="45.60237" lon="6.93785">
        <ele>1819.03</ele>
        <time>2016-02-21T13:22:27Z</time>
      </trkpt>
      <trkpt lat="45.60237" lon="6.93784">
        <ele>1818.87</ele>
        <time>2016-02-21T13:22:47Z</time>
      </trkpt>
      <trkpt lat="45.60237" lon="6.93784">
        <ele>1818.69</ele>
        <time>2016-02-21T13:23:08Z</time>
      </trkpt>
      <trkpt lat="45.60237" lon="6.93784">
        <ele>1818.55</ele>
        <time>2016-02-21T13:23:26Z</time>
      </trkpt>
      <trkpt lat="45.60237" lon="6.93784">
        <ele>1818.88</ele>
        <time>2016-02-21T13:23:46Z</time>
      </trkpt>
      <trkpt lat="45.60237" lon="6.93782">
        <ele>1818.54</ele>
        <time>2016-02-21T13:24:00Z</time>
      </trkpt>
      <trkpt lat="45.60237" lon="6.93781">
        <ele>1818.44</ele>
        <time>2016-02-21T13:24:31Z</time>
      </trkpt>
      <trkpt lat="45.60238" lon="6.93781">
        <ele>1817.94</ele>
        <time>2016-02-21T13:24:50Z</time>
      </trkpt>
      <trkpt lat="45.60238" lon="6.93779">
        <ele>1817.68</ele>
        <time>2016-02-21T13:25:08Z</time>
      </trkpt>
      <trkpt lat="45.60238" lon="6.93779">
        <ele>1818.26</ele>
        <time>2016-02-21T13:25:29Z</time>
      </trkpt>
      <trkpt lat="45.60236" lon="6.9378">
        <ele>1817.99</ele>
        <time>2016-02-21T13:25:42Z</time>
      </trkpt>
      <trkpt lat="45.60236" lon="6.9378">
        <ele>1817.9</ele>
        <time>2016-02-21T13:26:01Z</time>
      </trkpt>
      <trkpt lat="45.60237" lon="6.93781">
        <ele>1818.04</ele>
        <time>2016-02-21T13:26:34Z</time>
      </trkpt>
      <trkpt lat="45.60237" lon="6.9378">
        <ele>1817.74</ele>
        <time>2016-02-21T13:26:53Z</time>
      </trkpt>
      <trkpt lat="45.60237" lon="6.93779">
        <ele>1817.99</ele>
        <time>2016-02-21T13:27:12Z</time>
      </trkpt>
      <trkpt lat="45.60236" lon="6.9378">
        <ele>1818.31</ele>
        <time>2016-02-21T13:27:32Z</time>
      </trkpt>
      <trkpt lat="45.60238" lon="6.9378">
        <ele>1819.12</ele>
        <time>2016-02-21T13:27:52Z</time>
      </trkpt>
      <trkpt lat="45.60238" lon="6.93782">
        <ele>1818.76</ele>
        <time>2016-02-21T13:28:17Z</time>
      </trkpt>
      <trkpt lat="45.60236" lon="6.93781">
        <ele>1818.67</ele>
        <time>2016-02-21T13:28:36Z</time>
      </trkpt>
      <trkpt lat="45.60236" lon="6.93779">
        <ele>1818.86</ele>
        <time>2016-02-21T13:28:51Z</time>
      </trkpt>
      <trkpt lat="45.60235" lon="6.93778">
        <ele>1819.28</ele>
        <time>2016-02-21T13:29:14Z</time>
      </trkpt>
      <trkpt lat="45.60235" lon="6.93775">
        <ele>1819</ele>
        <time>2016-02-21T13:29:29Z</time>
      </trkpt>
      <trkpt lat="45.60235" lon="6.93774">
        <ele>1818.84</ele>
        <time>2016-02-21T13:29:46Z</time>
      </trkpt>
      <trkpt lat="45.60235" lon="6.93772">
        <ele>1818.68</ele>
        <time>2016-02-21T13:30:04Z</time>
      </trkpt>
      <trkpt lat="45.60238" lon="6.93771">
        <ele>1817.13</ele>
        <time>2016-02-21T13:30:20Z</time>
      </trkpt>
      <trkpt lat="45.60238" lon="6.93771">
        <ele>1816.61</ele>
        <time>2016-02-21T13:30:35Z</time>
      </trkpt>
      <trkpt lat="45.60239" lon="6.93772">
        <ele>1817.04</ele>
        <time>2016-02-21T13:30:52Z</time>
      </trkpt>
      <trkpt lat="45.60238" lon="6.93772">
        <ele>1816.65</ele>
        <time>2016-02-21T13:31:13Z</time>
      </trkpt>
      <trkpt lat="45.60238" lon="6.93772">
        <ele>1816.82</ele>
        <time>2016-02-21T13:31:33Z</time>
      </trkpt>
      <trkpt lat="45.60239" lon="6.93772">
        <ele>1817.04</ele>
        <time>2016-02-21T13:32:12Z</time>
      </trkpt>
      <trkpt lat="45.60239" lon="6.93773">
        <ele>1816.69</ele>
        <time>2016-02-21T13:32:30Z</time>
      </trkpt>
      <trkpt lat="45.6024" lon="6.93772">
        <ele>1816.61</ele>
        <time>2016-02-21T13:32:45Z</time>
      </trkpt>
      <trkpt lat="45.6024" lon="6.93772">
        <ele>1816.69</ele>
        <time>2016-02-21T13:33:01Z</time>
      </trkpt>
      <trkpt lat="45.6024" lon="6.93772">
        <ele>1816.87</ele>
        <time>2016-02-21T13:33:16Z</time>
      </trkpt>
      <trkpt lat="45.6024" lon="6.93771">
        <ele>1816.7</ele>
        <time>2016-02-21T13:33:32Z</time>
      </trkpt>
      <trkpt lat="45.6024" lon="6.93771">
        <ele>1816.7</ele>
        <time>2016-02-21T13:33:49Z</time>
      </trkpt>
      <trkpt lat="45.6024" lon="6.93772">
        <ele>1816.89</ele>
        <time>2016-02-21T13:34:04Z</time>
      </trkpt>
      <trkpt lat="45.6024" lon="6.9377">
        <ele>1817.26</ele>
        <time>2016-02-21T13:34:23Z</time>
      </trkpt>
      <trkpt lat="45.60241" lon="6.93773">
        <ele>1817.7</ele>
        <time>2016-02-21T13:34:33Z</time>
      </trkpt>
      <trkpt lat="45.60242" lon="6.93772">
        <ele>1818.07</ele>
        <time>2016-02-21T13:34:47Z</time>
      </trkpt>
      <trkpt lat="45.60242" lon="6.93771">
        <ele>1817.87</ele>
        <time>2016-02-21T13:35:05Z</time>
      </trkpt>
      <trkpt lat="45.60243" lon="6.93771">
        <ele>1817.88</ele>
        <time>2016-02-21T13:35:18Z</time>
      </trkpt>
      <trkpt lat="45.60243" lon="6.93771">
        <ele>1817.75</ele>
        <time>2016-02-21T13:35:36Z</time>
      </trkpt>
      <trkpt lat="45.60243" lon="6.93771">
        <ele>1817.71</ele>
        <time>2016-02-21T13:35:56Z</time>
      </trkpt>
      <trkpt lat="45.60243" lon="6.93771">
        <ele>1816.74</ele>
        <time>2016-02-21T13:36:28Z</time>
      </trkpt>
      <trkpt lat="45.60244" lon="6.93771">
        <ele>1816.97</ele>
        <time>2016-02-21T13:36:57Z</time>
      </trkpt>
      <trkpt lat="45.60244" lon="6.93771">
        <ele>1817.63</ele>
        <time>2016-02-21T13:37:13Z</time>
      </trkpt>
      <trkpt lat="45.60242" lon="6.9377">
        <ele>1817.94</ele>
        <time>2016-02-21T13:37:34Z</time>
      </trkpt>
      <trkpt lat="45.60243" lon="6.93771">
        <ele>1817.82</ele>
        <time>2016-02-21T13:38:05Z</time>
      </trkpt>
      <trkpt lat="45.60243" lon="6.9377">
        <ele>1817.76</ele>
        <time>2016-02-21T13:38:25Z</time>
      </trkpt>
      <trkpt lat="45.60244" lon="6.93768">
        <ele>1817.88</ele>
        <time>2016-02-21T13:38:45Z</time>
      </trkpt>
      <trkpt lat="45.60243" lon="6.93762">
        <ele>1818.18</ele>
        <time>2016-02-21T13:39:00Z</time>
      </trkpt>
      <trkpt lat="45.60244" lon="6.93765">
        <ele>1818.57</ele>
        <time>2016-02-21T13:39:17Z</time>
      </trkpt>
      <trkpt lat="45.60244" lon="6.93763">
        <ele>1818.54</ele>
        <time>2016-02-21T13:39:35Z</time>
      </trkpt>
      <trkpt lat="45.60247" lon="6.93757">
        <ele>1818.52</ele>
        <time>2016-02-21T13:39:38Z</time>
      </trkpt>
      <trkpt lat="45.60249" lon="6.9375">
        <ele>1817.93</ele>
        <time>2016-02-21T13:39:42Z</time>
      </trkpt>
      <trkpt lat="45.60254" lon="6.9374">
        <ele>1817.37</ele>
        <time>2016-02-21T13:39:45Z</time>
      </trkpt>
      <trkpt lat="45.60267" lon="6.9371">
        <ele>1815.61</ele>
        <time>2016-02-21T13:39:50Z</time>
      </trkpt>
      <trkpt lat="45.60278" lon="6.93676">
        <ele>1811.62</ele>
        <time>2016-02-21T13:39:56Z</time>
      </trkpt>
      <trkpt lat="45.60279" lon="6.9367">
        <ele>1810.85</ele>
        <time>2016-02-21T13:39:57Z</time>
      </trkpt>
      <trkpt lat="45.60287" lon="6.93653">
        <ele>1806.82</ele>
        <time>2016-02-21T13:40:03Z</time>
      </trkpt>
      <trkpt lat="45.60287" lon="6.93653">
        <ele>1805</ele>
        <time>2016-02-21T13:40:07Z</time>
      </trkpt>
      <trkpt lat="45.60292" lon="6.93635">
        <ele>1803.7</ele>
        <time>2016-02-21T13:40:25Z</time>
      </trkpt>
      <trkpt lat="45.60302" lon="6.93599">
        <ele>1800.72</ele>
        <time>2016-02-21T13:40:31Z</time>
      </trkpt>
      <trkpt lat="45.60304" lon="6.93593">
        <ele>1797.51</ele>
        <time>2016-02-21T13:40:37Z</time>
      </trkpt>
      <trkpt lat="45.60311" lon="6.93573">
        <ele>1795.29</ele>
        <time>2016-02-21T13:40:45Z</time>
      </trkpt>
      <trkpt lat="45.60317" lon="6.93553">
        <ele>1794.1</ele>
        <time>2016-02-21T13:40:53Z</time>
      </trkpt>
      <trkpt lat="45.60327" lon="6.93513">
        <ele>1790.77</ele>
        <time>2016-02-21T13:41:01Z</time>
      </trkpt>
      <trkpt lat="45.60336" lon="6.93491">
        <ele>1787.76</ele>
        <time>2016-02-21T13:41:07Z</time>
      </trkpt>
      <trkpt lat="45.60341" lon="6.9348">
        <ele>1785.46</ele>
        <time>2016-02-21T13:41:15Z</time>
      </trkpt>
      <trkpt lat="45.60345" lon="6.93474">
        <ele>1784.38</ele>
        <time>2016-02-21T13:41:36Z</time>
      </trkpt>
      <trkpt lat="45.60348" lon="6.93468">
        <ele>1784.98</ele>
        <time>2016-02-21T13:41:51Z</time>
      </trkpt>
      <trkpt lat="45.60351" lon="6.93463">
        <ele>1785.38</ele>
        <time>2016-02-21T13:42:02Z</time>
      </trkpt>
      <trkpt lat="45.60355" lon="6.93458">
        <ele>1785.75</ele>
        <time>2016-02-21T13:42:16Z</time>
      </trkpt>
      <trkpt lat="45.60359" lon="6.93454">
        <ele>1785.76</ele>
        <time>2016-02-21T13:42:30Z</time>
      </trkpt>
      <trkpt lat="45.60361" lon="6.93451">
        <ele>1786.32</ele>
        <time>2016-02-21T13:42:44Z</time>
      </trkpt>
      <trkpt lat="45.60364" lon="6.93448">
        <ele>1786.84</ele>
        <time>2016-02-21T13:42:56Z</time>
      </trkpt>
      <trkpt lat="45.60365" lon="6.93444">
        <ele>1787.35</ele>
        <time>2016-02-21T13:43:08Z</time>
      </trkpt>
      <trkpt lat="45.60369" lon="6.93438">
        <ele>1787.62</ele>
        <time>2016-02-21T13:43:22Z</time>
      </trkpt>
      <trkpt lat="45.60372" lon="6.93431">
        <ele>1787.98</ele>
        <time>2016-02-21T13:43:35Z</time>
      </trkpt>
      <trkpt lat="45.6038" lon="6.93409">
        <ele>1788.01</ele>
        <time>2016-02-21T13:43:44Z</time>
      </trkpt>
      <trkpt lat="45.60391" lon="6.93389">
        <ele>1786.12</ele>
        <time>2016-02-21T13:43:52Z</time>
      </trkpt>
      <trkpt lat="45.604" lon="6.93365">
        <ele>1782.96</ele>
        <time>2016-02-21T13:44:00Z</time>
      </trkpt>
      <trkpt lat="45.60402" lon="6.9336">
        <ele>1782.65</ele>
        <time>2016-02-21T13:44:01Z</time>
      </trkpt>
      <trkpt lat="45.60406" lon="6.93333">
        <ele>1779.58</ele>
        <time>2016-02-21T13:44:09Z</time>
      </trkpt>
      <trkpt lat="45.60408" lon="6.93307">
        <ele>1778.01</ele>
        <time>2016-02-21T13:44:20Z</time>
      </trkpt>
      <trkpt lat="45.60409" lon="6.9328">
        <ele>1776.61</ele>
        <time>2016-02-21T13:44:26Z</time>
      </trkpt>
      <trkpt lat="45.60406" lon="6.93259">
        <ele>1773.23</ele>
        <time>2016-02-21T13:44:31Z</time>
      </trkpt>
      <trkpt lat="45.60402" lon="6.93253">
        <ele>1771.28</ele>
        <time>2016-02-21T13:44:46Z</time>
      </trkpt>
      <trkpt lat="45.60398" lon="6.93242">
        <ele>1771.58</ele>
        <time>2016-02-21T13:45:05Z</time>
      </trkpt>
      <trkpt lat="45.60393" lon="6.93231">
        <ele>1771.68</ele>
        <time>2016-02-21T13:45:22Z</time>
      </trkpt>
      <trkpt lat="45.60388" lon="6.93216">
        <ele>1771.19</ele>
        <time>2016-02-21T13:45:37Z</time>
      </trkpt>
      <trkpt lat="45.60381" lon="6.932">
        <ele>1770.62</ele>
        <time>2016-02-21T13:45:49Z</time>
      </trkpt>
      <trkpt lat="45.60373" lon="6.93186">
        <ele>1769.63</ele>
        <time>2016-02-21T13:45:57Z</time>
      </trkpt>
      <trkpt lat="45.60374" lon="6.93186">
        <ele>1768.91</ele>
        <time>2016-02-21T13:46:12Z</time>
      </trkpt>
      <trkpt lat="45.60374" lon="6.93182">
        <ele>1768.82</ele>
        <time>2016-02-21T13:46:26Z</time>
      </trkpt>
      <trkpt lat="45.60376" lon="6.93181">
        <ele>1768.9</ele>
        <time>2016-02-21T13:46:42Z</time>
      </trkpt>
      <trkpt lat="45.60378" lon="6.93176">
        <ele>1769.35</ele>
        <time>2016-02-21T13:46:54Z</time>
      </trkpt>
      <trkpt lat="45.60379" lon="6.93168">
        <ele>1770.32</ele>
        <time>2016-02-21T13:47:08Z</time>
      </trkpt>
      <trkpt lat="45.60379" lon="6.93164">
        <ele>1771.16</ele>
        <time>2016-02-21T13:47:18Z</time>
      </trkpt>
      <trkpt lat="45.60378" lon="6.93157">
        <ele>1771.75</ele>
        <time>2016-02-21T13:47:34Z</time>
      </trkpt>
      <trkpt lat="45.60378" lon="6.93153">
        <ele>1772.24</ele>
        <time>2016-02-21T13:47:45Z</time>
      </trkpt>
      <trkpt lat="45.60377" lon="6.9315">
        <ele>1772.62</ele>
        <time>2016-02-21T13:47:56Z</time>
      </trkpt>
      <trkpt lat="45.60378" lon="6.9315">
        <ele>1773.17</ele>
        <time>2016-02-21T13:48:10Z</time>
      </trkpt>
      <trkpt lat="45.60378" lon="6.93149">
        <ele>1773.53</ele>
        <time>2016-02-21T13:48:31Z</time>
      </trkpt>
      <trkpt lat="45.60379" lon="6.93145">
        <ele>1773.69</ele>
        <time>2016-02-21T13:48:44Z</time>
      </trkpt>
      <trkpt lat="45.6038" lon="6.93142">
        <ele>1774.21</ele>
        <time>2016-02-21T13:48:58Z</time>
      </trkpt>
      <trkpt lat="45.60381" lon="6.93137">
        <ele>1774.85</ele>
        <time>2016-02-21T13:49:09Z</time>
      </trkpt>
      <trkpt lat="45.60382" lon="6.93133">
        <ele>1775.32</ele>
        <time>2016-02-21T13:49:20Z</time>
      </trkpt>
      <trkpt lat="45.60382" lon="6.93131">
        <ele>1775.89</ele>
        <time>2016-02-21T13:49:33Z</time>
      </trkpt>
      <trkpt lat="45.60383" lon="6.93129">
        <ele>1776.17</ele>
        <time>2016-02-21T13:49:46Z</time>
      </trkpt>
      <trkpt lat="45.60387" lon="6.93122">
        <ele>1776.57</ele>
        <time>2016-02-21T13:50:00Z</time>
      </trkpt>
      <trkpt lat="45.60388" lon="6.93121">
        <ele>1776.92</ele>
        <time>2016-02-21T13:50:16Z</time>
      </trkpt>
      <trkpt lat="45.60388" lon="6.93123">
        <ele>1777.39</ele>
        <time>2016-02-21T13:50:39Z</time>
      </trkpt>
      <trkpt lat="45.60386" lon="6.93123">
        <ele>1777.43</ele>
        <time>2016-02-21T13:51:08Z</time>
      </trkpt>
      <trkpt lat="45.60388" lon="6.93116">
        <ele>1777.17</ele>
        <time>2016-02-21T13:51:14Z</time>
      </trkpt>
      <trkpt lat="45.60388" lon="6.93114">
        <ele>1777.13</ele>
        <time>2016-02-21T13:51:15Z</time>
      </trkpt>
      <trkpt lat="45.60388" lon="6.93112">
        <ele>1777.08</ele>
        <time>2016-02-21T13:51:16Z</time>
      </trkpt>
      <trkpt lat="45.60389" lon="6.93109">
        <ele>1777.03</ele>
        <time>2016-02-21T13:51:17Z</time>
      </trkpt>
      <trkpt lat="45.60389" lon="6.93105">
        <ele>1777</ele>
        <time>2016-02-21T13:51:18Z</time>
      </trkpt>
      <trkpt lat="45.60389" lon="6.93101">
        <ele>1776.93</ele>
        <time>2016-02-21T13:51:19Z</time>
      </trkpt>
      <trkpt lat="45.60392" lon="6.93069">
        <ele>1775.33</ele>
        <time>2016-02-21T13:51:25Z</time>
      </trkpt>
      <trkpt lat="45.60393" lon="6.93062">
        <ele>1774.96</ele>
        <time>2016-02-21T13:51:26Z</time>
      </trkpt>
      <trkpt lat="45.60395" lon="6.93055">
        <ele>1774.55</ele>
        <time>2016-02-21T13:51:27Z</time>
      </trkpt>
      <trkpt lat="45.60401" lon="6.93034">
        <ele>1771.23</ele>
        <time>2016-02-21T13:51:31Z</time>
      </trkpt>
      <trkpt lat="45.60405" lon="6.93025">
        <ele>1769.72</ele>
        <time>2016-02-21T13:51:33Z</time>
      </trkpt>
      <trkpt lat="45.60408" lon="6.9302">
        <ele>1768.93</ele>
        <time>2016-02-21T13:51:34Z</time>
      </trkpt>
      <trkpt lat="45.60413" lon="6.93009">
        <ele>1767.43</ele>
        <time>2016-02-21T13:51:36Z</time>
      </trkpt>
      <trkpt lat="45.60417" lon="6.93003">
        <ele>1766.67</ele>
        <time>2016-02-21T13:51:37Z</time>
      </trkpt>
      <trkpt lat="45.60422" lon="6.92992">
        <ele>1765.03</ele>
        <time>2016-02-21T13:51:39Z</time>
      </trkpt>
      <trkpt lat="45.60424" lon="6.92986">
        <ele>1764.17</ele>
        <time>2016-02-21T13:51:40Z</time>
      </trkpt>
      <trkpt lat="45.60424" lon="6.92982">
        <ele>1763.36</ele>
        <time>2016-02-21T13:51:41Z</time>
      </trkpt>
      <trkpt lat="45.60425" lon="6.92978">
        <ele>1762.6</ele>
        <time>2016-02-21T13:51:42Z</time>
      </trkpt>
      <trkpt lat="45.60428" lon="6.92973">
        <ele>1761.83</ele>
        <time>2016-02-21T13:51:43Z</time>
      </trkpt>
      <trkpt lat="45.60431" lon="6.92967">
        <ele>1761.02</ele>
        <time>2016-02-21T13:51:44Z</time>
      </trkpt>
      <trkpt lat="45.60434" lon="6.92962">
        <ele>1760.28</ele>
        <time>2016-02-21T13:51:45Z</time>
      </trkpt>
      <trkpt lat="45.60437" lon="6.92956">
        <ele>1759.59</ele>
        <time>2016-02-21T13:51:46Z</time>
      </trkpt>
      <trkpt lat="45.6044" lon="6.92951">
        <ele>1758.85</ele>
        <time>2016-02-21T13:51:47Z</time>
      </trkpt>
      <trkpt lat="45.60443" lon="6.92946">
        <ele>1758</ele>
        <time>2016-02-21T13:51:48Z</time>
      </trkpt>
      <trkpt lat="45.60446" lon="6.92942">
        <ele>1757.04</ele>
        <time>2016-02-21T13:51:49Z</time>
      </trkpt>
      <trkpt lat="45.60448" lon="6.92937">
        <ele>1756.03</ele>
        <time>2016-02-21T13:51:50Z</time>
      </trkpt>
      <trkpt lat="45.6045" lon="6.92931">
        <ele>1755</ele>
        <time>2016-02-21T13:51:51Z</time>
      </trkpt>
      <trkpt lat="45.60453" lon="6.92925">
        <ele>1754.01</ele>
        <time>2016-02-21T13:51:52Z</time>
      </trkpt>
      <trkpt lat="45.60454" lon="6.92918">
        <ele>1753.04</ele>
        <time>2016-02-21T13:51:53Z</time>
      </trkpt>
      <trkpt lat="45.60455" lon="6.92911">
        <ele>1752.08</ele>
        <time>2016-02-21T13:51:54Z</time>
      </trkpt>
      <trkpt lat="45.60456" lon="6.92905">
        <ele>1751.17</ele>
        <time>2016-02-21T13:51:55Z</time>
      </trkpt>
      <trkpt lat="45.60459" lon="6.92894">
        <ele>1749.43</ele>
        <time>2016-02-21T13:51:57Z</time>
      </trkpt>
      <trkpt lat="45.6046" lon="6.92888">
        <ele>1747.62</ele>
        <time>2016-02-21T13:51:58Z</time>
      </trkpt>
      <trkpt lat="45.60467" lon="6.92868">
        <ele>1745.35</ele>
        <time>2016-02-21T13:52:01Z</time>
      </trkpt>
      <trkpt lat="45.6047" lon="6.92854">
        <ele>1743.92</ele>
        <time>2016-02-21T13:52:03Z</time>
      </trkpt>
      <trkpt lat="45.60473" lon="6.92838">
        <ele>1742.22</ele>
        <time>2016-02-21T13:52:05Z</time>
      </trkpt>
      <trkpt lat="45.60474" lon="6.9283">
        <ele>1741.29</ele>
        <time>2016-02-21T13:52:06Z</time>
      </trkpt>
      <trkpt lat="45.60475" lon="6.92822">
        <ele>1740.38</ele>
        <time>2016-02-21T13:52:07Z</time>
      </trkpt>
      <trkpt lat="45.60476" lon="6.92804">
        <ele>1736.36</ele>
        <time>2016-02-21T13:52:11Z</time>
      </trkpt>
      <trkpt lat="45.60474" lon="6.9278">
        <ele>1733.14</ele>
        <time>2016-02-21T13:52:15Z</time>
      </trkpt>
      <trkpt lat="45.60473" lon="6.92774">
        <ele>1732.5</ele>
        <time>2016-02-21T13:52:16Z</time>
      </trkpt>
      <trkpt lat="45.60473" lon="6.92767">
        <ele>1731.92</ele>
        <time>2016-02-21T13:52:17Z</time>
      </trkpt>
      <trkpt lat="45.60472" lon="6.92763">
        <ele>1731.3</ele>
        <time>2016-02-21T13:52:18Z</time>
      </trkpt>
      <trkpt lat="45.60472" lon="6.9276">
        <ele>1729.81</ele>
        <time>2016-02-21T13:52:20Z</time>
      </trkpt>
      <trkpt lat="45.60471" lon="6.92758">
        <ele>1727.81</ele>
        <time>2016-02-21T13:52:23Z</time>
      </trkpt>
      <trkpt lat="45.6047" lon="6.92754">
        <ele>1725.62</ele>
        <time>2016-02-21T13:52:33Z</time>
      </trkpt>
      <trkpt lat="45.60471" lon="6.92751">
        <ele>1725.56</ele>
        <time>2016-02-21T13:52:34Z</time>
      </trkpt>
      <trkpt lat="45.60472" lon="6.92746">
        <ele>1725.49</ele>
        <time>2016-02-21T13:52:35Z</time>
      </trkpt>
      <trkpt lat="45.60472" lon="6.92739">
        <ele>1725.42</ele>
        <time>2016-02-21T13:52:36Z</time>
      </trkpt>
      <trkpt lat="45.60472" lon="6.92732">
        <ele>1725.3</ele>
        <time>2016-02-21T13:52:37Z</time>
      </trkpt>
      <trkpt lat="45.60473" lon="6.92726">
        <ele>1725.11</ele>
        <time>2016-02-21T13:52:38Z</time>
      </trkpt>
      <trkpt lat="45.60474" lon="6.9272">
        <ele>1724.79</ele>
        <time>2016-02-21T13:52:39Z</time>
      </trkpt>
      <trkpt lat="45.60475" lon="6.92715">
        <ele>1724.22</ele>
        <time>2016-02-21T13:52:40Z</time>
      </trkpt>
      <trkpt lat="45.60477" lon="6.92709">
        <ele>1723.5</ele>
        <time>2016-02-21T13:52:41Z</time>
      </trkpt>
      <trkpt lat="45.60481" lon="6.92694">
        <ele>1722.18</ele>
        <time>2016-02-21T13:52:43Z</time>
      </trkpt>
      <trkpt lat="45.60484" lon="6.92655">
        <ele>1718.92</ele>
        <time>2016-02-21T13:52:47Z</time>
      </trkpt>
      <trkpt lat="45.60483" lon="6.92646">
        <ele>1717.74</ele>
        <time>2016-02-21T13:52:48Z</time>
      </trkpt>
      <trkpt lat="45.60481" lon="6.92638">
        <ele>1716.5</ele>
        <time>2016-02-21T13:52:49Z</time>
      </trkpt>
      <trkpt lat="45.60476" lon="6.92623">
        <ele>1712.98</ele>
        <time>2016-02-21T13:52:51Z</time>
      </trkpt>
      <trkpt lat="45.60466" lon="6.92597">
        <ele>1709.98</ele>
        <time>2016-02-21T13:52:54Z</time>
      </trkpt>
      <trkpt lat="45.60463" lon="6.92587">
        <ele>1709.01</ele>
        <time>2016-02-21T13:52:55Z</time>
      </trkpt>
      <trkpt lat="45.60452" lon="6.92561">
        <ele>1705.71</ele>
        <time>2016-02-21T13:52:58Z</time>
      </trkpt>
      <trkpt lat="45.60448" lon="6.92551">
        <ele>1704.54</ele>
        <time>2016-02-21T13:52:59Z</time>
      </trkpt>
      <trkpt lat="45.60445" lon="6.92542">
        <ele>1703.33</ele>
        <time>2016-02-21T13:53:00Z</time>
      </trkpt>
      <trkpt lat="45.60444" lon="6.92536">
        <ele>1702.15</ele>
        <time>2016-02-21T13:53:01Z</time>
      </trkpt>
      <trkpt lat="45.60443" lon="6.92533">
        <ele>1701.03</ele>
        <time>2016-02-21T13:53:02Z</time>
      </trkpt>
      <trkpt lat="45.60441" lon="6.92531">
        <ele>1698</ele>
        <time>2016-02-21T13:53:05Z</time>
      </trkpt>
      <trkpt lat="45.6044" lon="6.92528">
        <ele>1694.76</ele>
        <time>2016-02-21T13:53:11Z</time>
      </trkpt>
      <trkpt lat="45.60438" lon="6.92529">
        <ele>1693.15</ele>
        <time>2016-02-21T13:53:32Z</time>
      </trkpt>
      <trkpt lat="45.60436" lon="6.92525">
        <ele>1693.09</ele>
        <time>2016-02-21T13:53:39Z</time>
      </trkpt>
      <trkpt lat="45.60436" lon="6.92523">
        <ele>1693.05</ele>
        <time>2016-02-21T13:53:40Z</time>
      </trkpt>
      <trkpt lat="45.60431" lon="6.92499">
        <ele>1691.11</ele>
        <time>2016-02-21T13:53:47Z</time>
      </trkpt>
      <trkpt lat="45.60429" lon="6.92481">
        <ele>1689.67</ele>
        <time>2016-02-21T13:53:50Z</time>
      </trkpt>
      <trkpt lat="45.60427" lon="6.92473">
        <ele>1689.13</ele>
        <time>2016-02-21T13:53:51Z</time>
      </trkpt>
      <trkpt lat="45.60427" lon="6.92465">
        <ele>1688.52</ele>
        <time>2016-02-21T13:53:52Z</time>
      </trkpt>
      <trkpt lat="45.60428" lon="6.92457">
        <ele>1687.86</ele>
        <time>2016-02-21T13:53:53Z</time>
      </trkpt>
      <trkpt lat="45.60431" lon="6.9245">
        <ele>1687.06</ele>
        <time>2016-02-21T13:53:54Z</time>
      </trkpt>
      <trkpt lat="45.60433" lon="6.92441">
        <ele>1686.14</ele>
        <time>2016-02-21T13:53:55Z</time>
      </trkpt>
      <trkpt lat="45.60435" lon="6.92431">
        <ele>1685.28</ele>
        <time>2016-02-21T13:53:56Z</time>
      </trkpt>
      <trkpt lat="45.60437" lon="6.92422">
        <ele>1684.52</ele>
        <time>2016-02-21T13:53:57Z</time>
      </trkpt>
      <trkpt lat="45.60439" lon="6.92413">
        <ele>1683.83</ele>
        <time>2016-02-21T13:53:58Z</time>
      </trkpt>
      <trkpt lat="45.6044" lon="6.92404">
        <ele>1683.1</ele>
        <time>2016-02-21T13:53:59Z</time>
      </trkpt>
      <trkpt lat="45.6044" lon="6.92396">
        <ele>1682.23</ele>
        <time>2016-02-21T13:54:00Z</time>
      </trkpt>
      <trkpt lat="45.60441" lon="6.92387">
        <ele>1681.29</ele>
        <time>2016-02-21T13:54:01Z</time>
      </trkpt>
      <trkpt lat="45.60442" lon="6.9238">
        <ele>1680.32</ele>
        <time>2016-02-21T13:54:02Z</time>
      </trkpt>
      <trkpt lat="45.60442" lon="6.92374">
        <ele>1679.35</ele>
        <time>2016-02-21T13:54:03Z</time>
      </trkpt>
      <trkpt lat="45.60442" lon="6.92367">
        <ele>1678.4</ele>
        <time>2016-02-21T13:54:04Z</time>
      </trkpt>
      <trkpt lat="45.60441" lon="6.92348">
        <ele>1675.68</ele>
        <time>2016-02-21T13:54:07Z</time>
      </trkpt>
      <trkpt lat="45.60441" lon="6.92342">
        <ele>1674.93</ele>
        <time>2016-02-21T13:54:08Z</time>
      </trkpt>
      <trkpt lat="45.60442" lon="6.92337">
        <ele>1674.21</ele>
        <time>2016-02-21T13:54:09Z</time>
      </trkpt>
      <trkpt lat="45.60443" lon="6.92331">
        <ele>1672.78</ele>
        <time>2016-02-21T13:54:10Z</time>
      </trkpt>
      <trkpt lat="45.60444" lon="6.92325">
        <ele>1672.78</ele>
        <time>2016-02-21T13:54:11Z</time>
      </trkpt>
      <trkpt lat="45.60449" lon="6.92292">
        <ele>1669.5</ele>
        <time>2016-02-21T13:54:15Z</time>
      </trkpt>
      <trkpt lat="45.6045" lon="6.92282">
        <ele>1668.77</ele>
        <time>2016-02-21T13:54:16Z</time>
      </trkpt>
      <trkpt lat="45.6045" lon="6.92263">
        <ele>1665.12</ele>
        <time>2016-02-21T13:54:20Z</time>
      </trkpt>
      <trkpt lat="45.60448" lon="6.92242">
        <ele>1661.39</ele>
        <time>2016-02-21T13:54:24Z</time>
      </trkpt>
      <trkpt lat="45.60448" lon="6.92245">
        <ele>1657.95</ele>
        <time>2016-02-21T13:54:29Z</time>
      </trkpt>
      <trkpt lat="45.60454" lon="6.92229">
        <ele>1656.36</ele>
        <time>2016-02-21T13:54:39Z</time>
      </trkpt>
      <trkpt lat="45.60459" lon="6.92215">
        <ele>1655.92</ele>
        <time>2016-02-21T13:54:41Z</time>
      </trkpt>
      <trkpt lat="45.6046" lon="6.92207">
        <ele>1655.65</ele>
        <time>2016-02-21T13:54:42Z</time>
      </trkpt>
      <trkpt lat="45.6047" lon="6.92159">
        <ele>1652.61</ele>
        <time>2016-02-21T13:54:47Z</time>
      </trkpt>
      <trkpt lat="45.60476" lon="6.92144">
        <ele>1649.08</ele>
        <time>2016-02-21T13:54:50Z</time>
      </trkpt>
      <trkpt lat="45.60478" lon="6.92138">
        <ele>1648</ele>
        <time>2016-02-21T13:54:51Z</time>
      </trkpt>
      <trkpt lat="45.60484" lon="6.92124">
        <ele>1646.01</ele>
        <time>2016-02-21T13:54:53Z</time>
      </trkpt>
      <trkpt lat="45.60491" lon="6.92109">
        <ele>1643.98</ele>
        <time>2016-02-21T13:54:55Z</time>
      </trkpt>
      <trkpt lat="45.60493" lon="6.92099">
        <ele>1642.97</ele>
        <time>2016-02-21T13:54:56Z</time>
      </trkpt>
      <trkpt lat="45.60495" lon="6.92088">
        <ele>1642.05</ele>
        <time>2016-02-21T13:54:57Z</time>
      </trkpt>
      <trkpt lat="45.60496" lon="6.92079">
        <ele>1639.96</ele>
        <time>2016-02-21T13:54:59Z</time>
      </trkpt>
      <trkpt lat="45.60495" lon="6.92078">
        <ele>1636.76</ele>
        <time>2016-02-21T13:55:01Z</time>
      </trkpt>
      <trkpt lat="45.60494" lon="6.92078">
        <ele>1633.56</ele>
        <time>2016-02-21T13:55:08Z</time>
      </trkpt>
      <trkpt lat="45.60495" lon="6.92076">
        <ele>1632.52</ele>
        <time>2016-02-21T13:55:24Z</time>
      </trkpt>
      <trkpt lat="45.60496" lon="6.92074">
        <ele>1632.46</ele>
        <time>2016-02-21T13:55:25Z</time>
      </trkpt>
      <trkpt lat="45.60497" lon="6.92059">
        <ele>1632.04</ele>
        <time>2016-02-21T13:55:28Z</time>
      </trkpt>
      <trkpt lat="45.60498" lon="6.92044">
        <ele>1631.36</ele>
        <time>2016-02-21T13:55:30Z</time>
      </trkpt>
      <trkpt lat="45.60498" lon="6.92034">
        <ele>1630.86</ele>
        <time>2016-02-21T13:55:31Z</time>
      </trkpt>
      <trkpt lat="45.60501" lon="6.92026">
        <ele>1630.25</ele>
        <time>2016-02-21T13:55:32Z</time>
      </trkpt>
      <trkpt lat="45.60503" lon="6.92017">
        <ele>1629.63</ele>
        <time>2016-02-21T13:55:33Z</time>
      </trkpt>
      <trkpt lat="45.60506" lon="6.92008">
        <ele>1628.86</ele>
        <time>2016-02-21T13:55:34Z</time>
      </trkpt>
      <trkpt lat="45.60508" lon="6.92">
        <ele>1627.88</ele>
        <time>2016-02-21T13:55:35Z</time>
      </trkpt>
      <trkpt lat="45.6051" lon="6.91995">
        <ele>1626.93</ele>
        <time>2016-02-21T13:55:36Z</time>
      </trkpt>
      <trkpt lat="45.60512" lon="6.91991">
        <ele>1626.1</ele>
        <time>2016-02-21T13:55:37Z</time>
      </trkpt>
      <trkpt lat="45.60515" lon="6.91987">
        <ele>1625.25</ele>
        <time>2016-02-21T13:55:38Z</time>
      </trkpt>
      <trkpt lat="45.60518" lon="6.91983">
        <ele>1624.31</ele>
        <time>2016-02-21T13:55:39Z</time>
      </trkpt>
      <trkpt lat="45.60521" lon="6.91979">
        <ele>1623.35</ele>
        <time>2016-02-21T13:55:40Z</time>
      </trkpt>
      <trkpt lat="45.60528" lon="6.91968">
        <ele>1621.61</ele>
        <time>2016-02-21T13:55:42Z</time>
      </trkpt>
      <trkpt lat="45.60531" lon="6.91959">
        <ele>1620.81</ele>
        <time>2016-02-21T13:55:43Z</time>
      </trkpt>
      <trkpt lat="45.60543" lon="6.91935">
        <ele>1617.83</ele>
        <time>2016-02-21T13:55:46Z</time>
      </trkpt>
      <trkpt lat="45.60551" lon="6.91927">
        <ele>1615.28</ele>
        <time>2016-02-21T13:55:48Z</time>
      </trkpt>
      <trkpt lat="45.60554" lon="6.9192">
        <ele>1613.87</ele>
        <time>2016-02-21T13:55:49Z</time>
      </trkpt>
      <trkpt lat="45.60557" lon="6.91913">
        <ele>1611.02</ele>
        <time>2016-02-21T13:55:50Z</time>
      </trkpt>
      <trkpt lat="45.60559" lon="6.91905">
        <ele>1609.51</ele>
        <time>2016-02-21T13:55:51Z</time>
      </trkpt>
      <trkpt lat="45.60562" lon="6.91898">
        <ele>1608.08</ele>
        <time>2016-02-21T13:55:52Z</time>
      </trkpt>
      <trkpt lat="45.60565" lon="6.9189">
        <ele>1606.74</ele>
        <time>2016-02-21T13:55:53Z</time>
      </trkpt>
      <trkpt lat="45.60567" lon="6.91883">
        <ele>1605.48</ele>
        <time>2016-02-21T13:55:54Z</time>
      </trkpt>
      <trkpt lat="45.60571" lon="6.91878">
        <ele>1604.25</ele>
        <time>2016-02-21T13:55:55Z</time>
      </trkpt>
      <trkpt lat="45.60575" lon="6.91873">
        <ele>1602.96</ele>
        <time>2016-02-21T13:55:56Z</time>
      </trkpt>
      <trkpt lat="45.60579" lon="6.9187">
        <ele>1601.69</ele>
        <time>2016-02-21T13:55:57Z</time>
      </trkpt>
      <trkpt lat="45.60588" lon="6.91856">
        <ele>1597.81</ele>
        <time>2016-02-21T13:56:01Z</time>
      </trkpt>
      <trkpt lat="45.60587" lon="6.91854">
        <ele>1594.73</ele>
        <time>2016-02-21T13:56:06Z</time>
      </trkpt>
      <trkpt lat="45.60588" lon="6.91851">
        <ele>1593.85</ele>
        <time>2016-02-21T13:56:13Z</time>
      </trkpt>
      <trkpt lat="45.606" lon="6.91829">
        <ele>1592.6</ele>
        <time>2016-02-21T13:56:18Z</time>
      </trkpt>
      <trkpt lat="45.60604" lon="6.91828">
        <ele>1592.18</ele>
        <time>2016-02-21T13:56:19Z</time>
      </trkpt>
      <trkpt lat="45.60608" lon="6.91828">
        <ele>1591.64</ele>
        <time>2016-02-21T13:56:20Z</time>
      </trkpt>
      <trkpt lat="45.60612" lon="6.91825">
        <ele>1591.08</ele>
        <time>2016-02-21T13:56:21Z</time>
      </trkpt>
      <trkpt lat="45.60616" lon="6.91824">
        <ele>1590.57</ele>
        <time>2016-02-21T13:56:22Z</time>
      </trkpt>
      <trkpt lat="45.6062" lon="6.91822">
        <ele>1590.04</ele>
        <time>2016-02-21T13:56:23Z</time>
      </trkpt>
      <trkpt lat="45.60623" lon="6.91819">
        <ele>1589.41</ele>
        <time>2016-02-21T13:56:24Z</time>
      </trkpt>
      <trkpt lat="45.60625" lon="6.91814">
        <ele>1588.77</ele>
        <time>2016-02-21T13:56:25Z</time>
      </trkpt>
      <trkpt lat="45.60626" lon="6.9181">
        <ele>1588.15</ele>
        <time>2016-02-21T13:56:26Z</time>
      </trkpt>
      <trkpt lat="45.60628" lon="6.91804">
        <ele>1587.45</ele>
        <time>2016-02-21T13:56:27Z</time>
      </trkpt>
      <trkpt lat="45.6063" lon="6.91798">
        <ele>1586.63</ele>
        <time>2016-02-21T13:56:28Z</time>
      </trkpt>
      <trkpt lat="45.60631" lon="6.91791">
        <ele>1585.79</ele>
        <time>2016-02-21T13:56:29Z</time>
      </trkpt>
      <trkpt lat="45.60629" lon="6.91784">
        <ele>1584.98</ele>
        <time>2016-02-21T13:56:30Z</time>
      </trkpt>
      <trkpt lat="45.60627" lon="6.91778">
        <ele>1584.1</ele>
        <time>2016-02-21T13:56:31Z</time>
      </trkpt>
      <trkpt lat="45.60625" lon="6.91771">
        <ele>1583.04</ele>
        <time>2016-02-21T13:56:32Z</time>
      </trkpt>
      <trkpt lat="45.60628" lon="6.91765">
        <ele>1581.88</ele>
        <time>2016-02-21T13:56:33Z</time>
      </trkpt>
      <trkpt lat="45.60634" lon="6.91753">
        <ele>1579.96</ele>
        <time>2016-02-21T13:56:35Z</time>
      </trkpt>
      <trkpt lat="45.60638" lon="6.91747">
        <ele>1579.17</ele>
        <time>2016-02-21T13:56:36Z</time>
      </trkpt>
      <trkpt lat="45.60641" lon="6.91742">
        <ele>1578.39</ele>
        <time>2016-02-21T13:56:37Z</time>
      </trkpt>
      <trkpt lat="45.60643" lon="6.91736">
        <ele>1577</ele>
        <time>2016-02-21T13:56:38Z</time>
      </trkpt>
      <trkpt lat="45.60646" lon="6.91732">
        <ele>1577</ele>
        <time>2016-02-21T13:56:39Z</time>
      </trkpt>
      <trkpt lat="45.6065" lon="6.91727">
        <ele>1575.57</ele>
        <time>2016-02-21T13:56:40Z</time>
      </trkpt>
      <trkpt lat="45.60657" lon="6.9172">
        <ele>1574.18</ele>
        <time>2016-02-21T13:56:42Z</time>
      </trkpt>
      <trkpt lat="45.60659" lon="6.91718">
        <ele>1573.51</ele>
        <time>2016-02-21T13:56:43Z</time>
      </trkpt>
      <trkpt lat="45.6066" lon="6.91716">
        <ele>1572.87</ele>
        <time>2016-02-21T13:56:44Z</time>
      </trkpt>
      <trkpt lat="45.60659" lon="6.91711">
        <ele>1569.82</ele>
        <time>2016-02-21T13:56:52Z</time>
      </trkpt>
      <trkpt lat="45.60666" lon="6.91697">
        <ele>1568.9</ele>
        <time>2016-02-21T13:57:04Z</time>
      </trkpt>
      <trkpt lat="45.6067" lon="6.91693">
        <ele>1568.79</ele>
        <time>2016-02-21T13:57:05Z</time>
      </trkpt>
      <trkpt lat="45.60674" lon="6.91688">
        <ele>1568.59</ele>
        <time>2016-02-21T13:57:06Z</time>
      </trkpt>
      <trkpt lat="45.60683" lon="6.91676">
        <ele>1567.81</ele>
        <time>2016-02-21T13:57:08Z</time>
      </trkpt>
      <trkpt lat="45.60713" lon="6.91649">
        <ele>1563.74</ele>
        <time>2016-02-21T13:57:13Z</time>
      </trkpt>
      <trkpt lat="45.60724" lon="6.9164">
        <ele>1560.87</ele>
        <time>2016-02-21T13:57:15Z</time>
      </trkpt>
      <trkpt lat="45.6073" lon="6.91634">
        <ele>1559.47</ele>
        <time>2016-02-21T13:57:16Z</time>
      </trkpt>
      <trkpt lat="45.60735" lon="6.91628">
        <ele>1558.15</ele>
        <time>2016-02-21T13:57:17Z</time>
      </trkpt>
      <trkpt lat="45.60736" lon="6.91619">
        <ele>1556.87</ele>
        <time>2016-02-21T13:57:18Z</time>
      </trkpt>
      <trkpt lat="45.60734" lon="6.91612">
        <ele>1555.61</ele>
        <time>2016-02-21T13:57:19Z</time>
      </trkpt>
      <trkpt lat="45.60733" lon="6.91606">
        <ele>1554.26</ele>
        <time>2016-02-21T13:57:20Z</time>
      </trkpt>
      <trkpt lat="45.60733" lon="6.91599">
        <ele>1552.66</ele>
        <time>2016-02-21T13:57:21Z</time>
      </trkpt>
      <trkpt lat="45.60733" lon="6.91593">
        <ele>1550.96</ele>
        <time>2016-02-21T13:57:22Z</time>
      </trkpt>
      <trkpt lat="45.60733" lon="6.91586">
        <ele>1549.45</ele>
        <time>2016-02-21T13:57:23Z</time>
      </trkpt>
      <trkpt lat="45.60732" lon="6.91559">
        <ele>1546.26</ele>
        <time>2016-02-21T13:57:26Z</time>
      </trkpt>
      <trkpt lat="45.60732" lon="6.91537">
        <ele>1543.6</ele>
        <time>2016-02-21T13:57:29Z</time>
      </trkpt>
      <trkpt lat="45.6073" lon="6.91531">
        <ele>1542.02</ele>
        <time>2016-02-21T13:57:30Z</time>
      </trkpt>
      <trkpt lat="45.60728" lon="6.91525">
        <ele>1541.35</ele>
        <time>2016-02-21T13:57:31Z</time>
      </trkpt>
      <trkpt lat="45.60726" lon="6.91519">
        <ele>1540.69</ele>
        <time>2016-02-21T13:57:32Z</time>
      </trkpt>
      <trkpt lat="45.60726" lon="6.91512">
        <ele>1539.96</ele>
        <time>2016-02-21T13:57:33Z</time>
      </trkpt>
      <trkpt lat="45.60726" lon="6.91503">
        <ele>1539.19</ele>
        <time>2016-02-21T13:57:34Z</time>
      </trkpt>
      <trkpt lat="45.60725" lon="6.91493">
        <ele>1538.37</ele>
        <time>2016-02-21T13:57:35Z</time>
      </trkpt>
      <trkpt lat="45.60725" lon="6.91483">
        <ele>1537.47</ele>
        <time>2016-02-21T13:57:36Z</time>
      </trkpt>
      <trkpt lat="45.60725" lon="6.91474">
        <ele>1536.35</ele>
        <time>2016-02-21T13:57:37Z</time>
      </trkpt>
      <trkpt lat="45.60726" lon="6.91458">
        <ele>1533.74</ele>
        <time>2016-02-21T13:57:39Z</time>
      </trkpt>
      <trkpt lat="45.60727" lon="6.91451">
        <ele>1532.51</ele>
        <time>2016-02-21T13:57:40Z</time>
      </trkpt>
      <trkpt lat="45.60727" lon="6.91444">
        <ele>1531.3</ele>
        <time>2016-02-21T13:57:41Z</time>
      </trkpt>
      <trkpt lat="45.60728" lon="6.91427">
        <ele>1529.2</ele>
        <time>2016-02-21T13:57:43Z</time>
      </trkpt>
      <trkpt lat="45.60729" lon="6.91419">
        <ele>1528.23</ele>
        <time>2016-02-21T13:57:44Z</time>
      </trkpt>
      <trkpt lat="45.60731" lon="6.91404">
        <ele>1526.14</ele>
        <time>2016-02-21T13:57:46Z</time>
      </trkpt>
      <trkpt lat="45.60731" lon="6.91397">
        <ele>1524.98</ele>
        <time>2016-02-21T13:57:47Z</time>
      </trkpt>
      <trkpt lat="45.60731" lon="6.9139">
        <ele>1523.85</ele>
        <time>2016-02-21T13:57:48Z</time>
      </trkpt>
      <trkpt lat="45.6073" lon="6.91384">
        <ele>1522.79</ele>
        <time>2016-02-21T13:57:49Z</time>
      </trkpt>
      <trkpt lat="45.60728" lon="6.91378">
        <ele>1521.83</ele>
        <time>2016-02-21T13:57:50Z</time>
      </trkpt>
      <trkpt lat="45.60724" lon="6.91356">
        <ele>1518.67</ele>
        <time>2016-02-21T13:57:55Z</time>
      </trkpt>
      <trkpt lat="45.60723" lon="6.91349">
        <ele>1517.64</ele>
        <time>2016-02-21T13:57:57Z</time>
      </trkpt>
      <trkpt lat="45.6072" lon="6.91324">
        <ele>1516.25</ele>
        <time>2016-02-21T13:58:07Z</time>
      </trkpt>
      <trkpt lat="45.6072" lon="6.91296">
        <ele>1515.52</ele>
        <time>2016-02-21T13:58:18Z</time>
      </trkpt>
      <trkpt lat="45.60716" lon="6.91254">
        <ele>1514.07</ele>
        <time>2016-02-21T13:58:27Z</time>
      </trkpt>
      <trkpt lat="45.60712" lon="6.9124">
        <ele>1513.3</ele>
        <time>2016-02-21T13:58:30Z</time>
      </trkpt>
      <trkpt lat="45.60706" lon="6.91231">
        <ele>1512.71</ele>
        <time>2016-02-21T13:58:32Z</time>
      </trkpt>
      <trkpt lat="45.60698" lon="6.91214">
        <ele>1511.36</ele>
        <time>2016-02-21T13:58:35Z</time>
      </trkpt>
      <trkpt lat="45.60692" lon="6.91194">
        <ele>1509.66</ele>
        <time>2016-02-21T13:58:38Z</time>
      </trkpt>
      <trkpt lat="45.60685" lon="6.91179">
        <ele>1506.3</ele>
        <time>2016-02-21T13:58:43Z</time>
      </trkpt>
      <trkpt lat="45.60684" lon="6.91176">
        <ele>1505.2</ele>
        <time>2016-02-21T13:58:44Z</time>
      </trkpt>
      <trkpt lat="45.60682" lon="6.91172">
        <ele>1505.2</ele>
        <time>2016-02-21T13:58:45Z</time>
      </trkpt>
      <trkpt lat="45.60676" lon="6.91152">
        <ele>1503.07</ele>
        <time>2016-02-21T13:58:49Z</time>
      </trkpt>
      <trkpt lat="45.60675" lon="6.91145">
        <ele>1502.63</ele>
        <time>2016-02-21T13:58:50Z</time>
      </trkpt>
      <trkpt lat="45.60673" lon="6.91139">
        <ele>1502.19</ele>
        <time>2016-02-21T13:58:51Z</time>
      </trkpt>
      <trkpt lat="45.60671" lon="6.91133">
        <ele>1501.75</ele>
        <time>2016-02-21T13:58:52Z</time>
      </trkpt>
      <trkpt lat="45.60669" lon="6.91128">
        <ele>1501.28</ele>
        <time>2016-02-21T13:58:53Z</time>
      </trkpt>
      <trkpt lat="45.60668" lon="6.91122">
        <ele>1500.72</ele>
        <time>2016-02-21T13:58:54Z</time>
      </trkpt>
      <trkpt lat="45.60666" lon="6.91116">
        <ele>1500.1</ele>
        <time>2016-02-21T13:58:55Z</time>
      </trkpt>
      <trkpt lat="45.60664" lon="6.91109">
        <ele>1499.47</ele>
        <time>2016-02-21T13:58:56Z</time>
      </trkpt>
      <trkpt lat="45.6065" lon="6.91071">
        <ele>1496.18</ele>
        <time>2016-02-21T13:59:02Z</time>
      </trkpt>
      <trkpt lat="45.60641" lon="6.91044">
        <ele>1493.53</ele>
        <time>2016-02-21T13:59:06Z</time>
      </trkpt>
      <trkpt lat="45.60633" lon="6.91013">
        <ele>1491.16</ele>
        <time>2016-02-21T13:59:10Z</time>
      </trkpt>
      <trkpt lat="45.60621" lon="6.90983">
        <ele>1487.42</ele>
        <time>2016-02-21T13:59:14Z</time>
      </trkpt>
      <trkpt lat="45.60612" lon="6.90959">
        <ele>1484.38</ele>
        <time>2016-02-21T13:59:17Z</time>
      </trkpt>
      <trkpt lat="45.60609" lon="6.90953">
        <ele>1483.32</ele>
        <time>2016-02-21T13:59:18Z</time>
      </trkpt>
      <trkpt lat="45.60597" lon="6.90935">
        <ele>1480.49</ele>
        <time>2016-02-21T13:59:21Z</time>
      </trkpt>
      <trkpt lat="45.60593" lon="6.90928">
        <ele>1479.65</ele>
        <time>2016-02-21T13:59:22Z</time>
      </trkpt>
      <trkpt lat="45.60586" lon="6.90915">
        <ele>1477.79</ele>
        <time>2016-02-21T13:59:24Z</time>
      </trkpt>
      <trkpt lat="45.60581" lon="6.9091">
        <ele>1476.77</ele>
        <time>2016-02-21T13:59:25Z</time>
      </trkpt>
      <trkpt lat="45.60577" lon="6.90906">
        <ele>1475.67</ele>
        <time>2016-02-21T13:59:26Z</time>
      </trkpt>
      <trkpt lat="45.60556" lon="6.90884">
        <ele>1471.9</ele>
        <time>2016-02-21T13:59:30Z</time>
      </trkpt>
      <trkpt lat="45.60536" lon="6.90865">
        <ele>1468.59</ele>
        <time>2016-02-21T13:59:34Z</time>
      </trkpt>
      <trkpt lat="45.60525" lon="6.90851">
        <ele>1465.42</ele>
        <time>2016-02-21T13:59:38Z</time>
      </trkpt>
      <trkpt lat="45.60509" lon="6.90833">
        <ele>1462.18</ele>
        <time>2016-02-21T13:59:44Z</time>
      </trkpt>
      <trkpt lat="45.60479" lon="6.90797">
        <ele>1459.32</ele>
        <time>2016-02-21T13:59:54Z</time>
      </trkpt>
      <trkpt lat="45.60459" lon="6.90769">
        <ele>1456.23</ele>
        <time>2016-02-21T14:00:02Z</time>
      </trkpt>
      <trkpt lat="45.60451" lon="6.90749">
        <ele>1454.38</ele>
        <time>2016-02-21T14:00:07Z</time>
      </trkpt>
      <trkpt lat="45.60441" lon="6.90701">
        <ele>1452.58</ele>
        <time>2016-02-21T14:00:17Z</time>
      </trkpt>
      <trkpt lat="45.60438" lon="6.90657">
        <ele>1450.04</ele>
        <time>2016-02-21T14:00:27Z</time>
      </trkpt>
      <trkpt lat="45.60442" lon="6.90616">
        <ele>1447.95</ele>
        <time>2016-02-21T14:00:39Z</time>
      </trkpt>
      <trkpt lat="45.60441" lon="6.90584">
        <ele>1446.96</ele>
        <time>2016-02-21T14:00:48Z</time>
      </trkpt>
      <trkpt lat="45.60436" lon="6.90555">
        <ele>1446.23</ele>
        <time>2016-02-21T14:00:58Z</time>
      </trkpt>
      <trkpt lat="45.60435" lon="6.90553">
        <ele>1446.14</ele>
        <time>2016-02-21T14:01:00Z</time>
      </trkpt>
      <trkpt lat="45.60435" lon="6.90551">
        <ele>1446.08</ele>
        <time>2016-02-21T14:01:01Z</time>
      </trkpt>
      <trkpt lat="45.60434" lon="6.90548">
        <ele>1446.01</ele>
        <time>2016-02-21T14:01:02Z</time>
      </trkpt>
      <trkpt lat="45.60434" lon="6.90545">
        <ele>1445.96</ele>
        <time>2016-02-21T14:01:03Z</time>
      </trkpt>
      <trkpt lat="45.60433" lon="6.90542">
        <ele>1445.92</ele>
        <time>2016-02-21T14:01:04Z</time>
      </trkpt>
      <trkpt lat="45.60433" lon="6.90538">
        <ele>1445.86</ele>
        <time>2016-02-21T14:01:05Z</time>
      </trkpt>
      <trkpt lat="45.60432" lon="6.90534">
        <ele>1445.83</ele>
        <time>2016-02-21T14:01:06Z</time>
      </trkpt>
      <trkpt lat="45.60432" lon="6.90532">
        <ele>1445.8</ele>
        <time>2016-02-21T14:01:07Z</time>
      </trkpt>
      <trkpt lat="45.6043" lon="6.905">
        <ele>1445.01</ele>
        <time>2016-02-21T14:01:17Z</time>
      </trkpt>
      <trkpt lat="45.60421" lon="6.90448">
        <ele>1442.82</ele>
        <time>2016-02-21T14:01:26Z</time>
      </trkpt>
      <trkpt lat="45.60417" lon="6.90409">
        <ele>1440.87</ele>
        <time>2016-02-21T14:01:31Z</time>
      </trkpt>
      <trkpt lat="45.60417" lon="6.90401">
        <ele>1440.36</ele>
        <time>2016-02-21T14:01:32Z</time>
      </trkpt>
      <trkpt lat="45.60418" lon="6.90361">
        <ele>1438.2</ele>
        <time>2016-02-21T14:01:38Z</time>
      </trkpt>
      <trkpt lat="45.60419" lon="6.90341">
        <ele>1437.29</ele>
        <time>2016-02-21T14:01:41Z</time>
      </trkpt>
      <trkpt lat="45.60418" lon="6.90335">
        <ele>1436.95</ele>
        <time>2016-02-21T14:01:42Z</time>
      </trkpt>
      <trkpt lat="45.60418" lon="6.90328">
        <ele>1436.62</ele>
        <time>2016-02-21T14:01:43Z</time>
      </trkpt>
      <trkpt lat="45.60417" lon="6.90322">
        <ele>1436.03</ele>
        <time>2016-02-21T14:01:44Z</time>
      </trkpt>
      <trkpt lat="45.60417" lon="6.90316">
        <ele>1436.03</ele>
        <time>2016-02-21T14:01:45Z</time>
      </trkpt>
      <trkpt lat="45.60417" lon="6.9031">
        <ele>1435.59</ele>
        <time>2016-02-21T14:01:46Z</time>
      </trkpt>
      <trkpt lat="45.60418" lon="6.90304">
        <ele>1435.37</ele>
        <time>2016-02-21T14:01:47Z</time>
      </trkpt>
      <trkpt lat="45.60419" lon="6.90298">
        <ele>1435.11</ele>
        <time>2016-02-21T14:01:48Z</time>
      </trkpt>
      <trkpt lat="45.6042" lon="6.90292">
        <ele>1434.82</ele>
        <time>2016-02-21T14:01:49Z</time>
      </trkpt>
      <trkpt lat="45.60421" lon="6.90286">
        <ele>1434.5</ele>
        <time>2016-02-21T14:01:50Z</time>
      </trkpt>
      <trkpt lat="45.60422" lon="6.9028">
        <ele>1434.18</ele>
        <time>2016-02-21T14:01:51Z</time>
      </trkpt>
      <trkpt lat="45.60426" lon="6.90255">
        <ele>1433</ele>
        <time>2016-02-21T14:01:55Z</time>
      </trkpt>
      <trkpt lat="45.60426" lon="6.90249">
        <ele>1432.69</ele>
        <time>2016-02-21T14:01:56Z</time>
      </trkpt>
      <trkpt lat="45.60423" lon="6.90216">
        <ele>1431.29</ele>
        <time>2016-02-21T14:02:01Z</time>
      </trkpt>
      <trkpt lat="45.60421" lon="6.90208">
        <ele>1430.94</ele>
        <time>2016-02-21T14:02:02Z</time>
      </trkpt>
      <trkpt lat="45.6042" lon="6.90201">
        <ele>1430.56</ele>
        <time>2016-02-21T14:02:03Z</time>
      </trkpt>
      <trkpt lat="45.60411" lon="6.90169">
        <ele>1428.86</ele>
        <time>2016-02-21T14:02:07Z</time>
      </trkpt>
      <trkpt lat="45.60409" lon="6.9016">
        <ele>1428.11</ele>
        <time>2016-02-21T14:02:08Z</time>
      </trkpt>
      <trkpt lat="45.60407" lon="6.90151">
        <ele>1428.11</ele>
        <time>2016-02-21T14:02:09Z</time>
      </trkpt>
      <trkpt lat="45.60405" lon="6.90141">
        <ele>1427.7</ele>
        <time>2016-02-21T14:02:10Z</time>
      </trkpt>
      <trkpt lat="45.60403" lon="6.90131">
        <ele>1426.62</ele>
        <time>2016-02-21T14:02:11Z</time>
      </trkpt>
      <trkpt lat="45.60401" lon="6.90111">
        <ele>1425.41</ele>
        <time>2016-02-21T14:02:13Z</time>
      </trkpt>
      <trkpt lat="45.604" lon="6.901">
        <ele>1424.82</ele>
        <time>2016-02-21T14:02:14Z</time>
      </trkpt>
      <trkpt lat="45.60388" lon="6.90047">
        <ele>1421.41</ele>
        <time>2016-02-21T14:02:19Z</time>
      </trkpt>
      <trkpt lat="45.60385" lon="6.90036">
        <ele>1420.49</ele>
        <time>2016-02-21T14:02:20Z</time>
      </trkpt>
      <trkpt lat="45.60382" lon="6.90025">
        <ele>1419.65</ele>
        <time>2016-02-21T14:02:21Z</time>
      </trkpt>
      <trkpt lat="45.6038" lon="6.90014">
        <ele>1418.91</ele>
        <time>2016-02-21T14:02:22Z</time>
      </trkpt>
      <trkpt lat="45.60371" lon="6.89968">
        <ele>1415.78</ele>
        <time>2016-02-21T14:02:26Z</time>
      </trkpt>
      <trkpt lat="45.60368" lon="6.89957">
        <ele>1414.99</ele>
        <time>2016-02-21T14:02:27Z</time>
      </trkpt>
      <trkpt lat="45.60354" lon="6.89916">
        <ele>1410.78</ele>
        <time>2016-02-21T14:02:31Z</time>
      </trkpt>
      <trkpt lat="45.60347" lon="6.89896">
        <ele>1408.26</ele>
        <time>2016-02-21T14:02:33Z</time>
      </trkpt>
      <trkpt lat="45.60343" lon="6.89886">
        <ele>1405.9</ele>
        <time>2016-02-21T14:02:34Z</time>
      </trkpt>
      <trkpt lat="45.60338" lon="6.89878">
        <ele>1404.76</ele>
        <time>2016-02-21T14:02:35Z</time>
      </trkpt>
      <trkpt lat="45.60326" lon="6.89849">
        <ele>1401.48</ele>
        <time>2016-02-21T14:02:38Z</time>
      </trkpt>
      <trkpt lat="45.60322" lon="6.89839">
        <ele>1400.46</ele>
        <time>2016-02-21T14:02:39Z</time>
      </trkpt>
      <trkpt lat="45.60318" lon="6.8983">
        <ele>1399.44</ele>
        <time>2016-02-21T14:02:40Z</time>
      </trkpt>
      <trkpt lat="45.60312" lon="6.89809">
        <ele>1397.33</ele>
        <time>2016-02-21T14:02:42Z</time>
      </trkpt>
      <trkpt lat="45.60308" lon="6.89798">
        <ele>1396.26</ele>
        <time>2016-02-21T14:02:43Z</time>
      </trkpt>
      <trkpt lat="45.60305" lon="6.89788">
        <ele>1395.15</ele>
        <time>2016-02-21T14:02:44Z</time>
      </trkpt>
      <trkpt lat="45.60301" lon="6.89777">
        <ele>1394.03</ele>
        <time>2016-02-21T14:02:45Z</time>
      </trkpt>
      <trkpt lat="45.60295" lon="6.89769">
        <ele>1392.99</ele>
        <time>2016-02-21T14:02:46Z</time>
      </trkpt>
      <trkpt lat="45.60289" lon="6.89762">
        <ele>1392.04</ele>
        <time>2016-02-21T14:02:47Z</time>
      </trkpt>
      <trkpt lat="45.60283" lon="6.89757">
        <ele>1391.04</ele>
        <time>2016-02-21T14:02:48Z</time>
      </trkpt>
      <trkpt lat="45.60276" lon="6.89754">
        <ele>1389.91</ele>
        <time>2016-02-21T14:02:49Z</time>
      </trkpt>
      <trkpt lat="45.6027" lon="6.89751">
        <ele>1388.73</ele>
        <time>2016-02-21T14:02:50Z</time>
      </trkpt>
      <trkpt lat="45.60266" lon="6.89746">
        <ele>1387.62</ele>
        <time>2016-02-21T14:02:51Z</time>
      </trkpt>
      <trkpt lat="45.60267" lon="6.8974">
        <ele>1386.55</ele>
        <time>2016-02-21T14:02:52Z</time>
      </trkpt>
      <trkpt lat="45.60271" lon="6.89735">
        <ele>1385.48</ele>
        <time>2016-02-21T14:02:53Z</time>
      </trkpt>
      <trkpt lat="45.60276" lon="6.89733">
        <ele>1384.45</ele>
        <time>2016-02-21T14:02:54Z</time>
      </trkpt>
      <trkpt lat="45.60281" lon="6.89733">
        <ele>1383.4</ele>
        <time>2016-02-21T14:02:55Z</time>
      </trkpt>
      <trkpt lat="45.60286" lon="6.89735">
        <ele>1381.19</ele>
        <time>2016-02-21T14:02:56Z</time>
      </trkpt>
      <trkpt lat="45.60293" lon="6.89737">
        <ele>1381.19</ele>
        <time>2016-02-21T14:02:57Z</time>
      </trkpt>
      <trkpt lat="45.60299" lon="6.89738">
        <ele>1379.43</ele>
        <time>2016-02-21T14:02:58Z</time>
      </trkpt>
      <trkpt lat="45.60305" lon="6.89742">
        <ele>1378.63</ele>
        <time>2016-02-21T14:02:59Z</time>
      </trkpt>
      <trkpt lat="45.6031" lon="6.89746">
        <ele>1377.84</ele>
        <time>2016-02-21T14:03:00Z</time>
      </trkpt>
      <trkpt lat="45.6032" lon="6.89756">
        <ele>1376.25</ele>
        <time>2016-02-21T14:03:02Z</time>
      </trkpt>
      <trkpt lat="45.60324" lon="6.89761">
        <ele>1375.52</ele>
        <time>2016-02-21T14:03:03Z</time>
      </trkpt>
      <trkpt lat="45.60328" lon="6.89768">
        <ele>1374.86</ele>
        <time>2016-02-21T14:03:04Z</time>
      </trkpt>
      <trkpt lat="45.60331" lon="6.89774">
        <ele>1374.25</ele>
        <time>2016-02-21T14:03:05Z</time>
      </trkpt>
      <trkpt lat="45.60335" lon="6.89777">
        <ele>1373.63</ele>
        <time>2016-02-21T14:03:06Z</time>
      </trkpt>
      <trkpt lat="45.60339" lon="6.89778">
        <ele>1373.03</ele>
        <time>2016-02-21T14:03:07Z</time>
      </trkpt>
      <trkpt lat="45.6034" lon="6.89773">
        <ele>1372.46</ele>
        <time>2016-02-21T14:03:08Z</time>
      </trkpt>
      <trkpt lat="45.6034" lon="6.89767">
        <ele>1371.89</ele>
        <time>2016-02-21T14:03:09Z</time>
      </trkpt>
      <trkpt lat="45.60338" lon="6.89761">
        <ele>1371.32</ele>
        <time>2016-02-21T14:03:10Z</time>
      </trkpt>
      <trkpt lat="45.60336" lon="6.89754">
        <ele>1370.69</ele>
        <time>2016-02-21T14:03:11Z</time>
      </trkpt>
      <trkpt lat="45.60333" lon="6.89747">
        <ele>1369.96</ele>
        <time>2016-02-21T14:03:12Z</time>
      </trkpt>
      <trkpt lat="45.6032" lon="6.89714">
        <ele>1366.15</ele>
        <time>2016-02-21T14:03:16Z</time>
      </trkpt>
      <trkpt lat="45.60318" lon="6.89704">
        <ele>1365.03</ele>
        <time>2016-02-21T14:03:17Z</time>
      </trkpt>
      <trkpt lat="45.60314" lon="6.89694">
        <ele>1363.96</ele>
        <time>2016-02-21T14:03:18Z</time>
      </trkpt>
      <trkpt lat="45.6031" lon="6.89685">
        <ele>1362.92</ele>
        <time>2016-02-21T14:03:19Z</time>
      </trkpt>
      <trkpt lat="45.60306" lon="6.89678">
        <ele>1361.92</ele>
        <time>2016-02-21T14:03:20Z</time>
      </trkpt>
      <trkpt lat="45.60301" lon="6.89672">
        <ele>1360.99</ele>
        <time>2016-02-21T14:03:21Z</time>
      </trkpt>
      <trkpt lat="45.60295" lon="6.89668">
        <ele>1360.13</ele>
        <time>2016-02-21T14:03:22Z</time>
      </trkpt>
      <trkpt lat="45.6029" lon="6.89663">
        <ele>1359.26</ele>
        <time>2016-02-21T14:03:23Z</time>
      </trkpt>
      <trkpt lat="45.60277" lon="6.89657">
        <ele>1356</ele>
        <time>2016-02-21T14:03:25Z</time>
      </trkpt>
      <trkpt lat="45.6027" lon="6.89654">
        <ele>1354.91</ele>
        <time>2016-02-21T14:03:26Z</time>
      </trkpt>
      <trkpt lat="45.60241" lon="6.89641">
        <ele>1351.39</ele>
        <time>2016-02-21T14:03:30Z</time>
      </trkpt>
      <trkpt lat="45.60235" lon="6.89635">
        <ele>1350.31</ele>
        <time>2016-02-21T14:03:31Z</time>
      </trkpt>
      <trkpt lat="45.6023" lon="6.89631">
        <ele>1349.05</ele>
        <time>2016-02-21T14:03:32Z</time>
      </trkpt>
      <trkpt lat="45.60227" lon="6.89628">
        <ele>1347.79</ele>
        <time>2016-02-21T14:03:33Z</time>
      </trkpt>
      <trkpt lat="45.60225" lon="6.89626">
        <ele>1344.75</ele>
        <time>2016-02-21T14:03:36Z</time>
      </trkpt>
      <trkpt lat="45.60223" lon="6.89626">
        <ele>1341.67</ele>
        <time>2016-02-21T14:03:41Z</time>
      </trkpt>
      <trkpt lat="45.6022" lon="6.89623">
        <ele>1339.8</ele>
        <time>2016-02-21T14:03:57Z</time>
      </trkpt>
      <trkpt lat="45.60217" lon="6.89621">
        <ele>1339.71</ele>
        <time>2016-02-21T14:04:20Z</time>
      </trkpt>
      <trkpt lat="45.60212" lon="6.89618">
        <ele>1339.67</ele>
        <time>2016-02-21T14:04:28Z</time>
      </trkpt>
      <trkpt lat="45.60188" lon="6.89609">
        <ele>1338.47</ele>
        <time>2016-02-21T14:04:34Z</time>
      </trkpt>
      <trkpt lat="45.60183" lon="6.89607">
        <ele>1338.13</ele>
        <time>2016-02-21T14:04:35Z</time>
      </trkpt>
      <trkpt lat="45.60178" lon="6.89605">
        <ele>1337.7</ele>
        <time>2016-02-21T14:04:36Z</time>
      </trkpt>
      <trkpt lat="45.60173" lon="6.89601">
        <ele>1337.22</ele>
        <time>2016-02-21T14:04:37Z</time>
      </trkpt>
      <trkpt lat="45.60168" lon="6.89596">
        <ele>1336.74</ele>
        <time>2016-02-21T14:04:38Z</time>
      </trkpt>
      <trkpt lat="45.60163" lon="6.8959">
        <ele>1336.22</ele>
        <time>2016-02-21T14:04:39Z</time>
      </trkpt>
      <trkpt lat="45.60159" lon="6.89583">
        <ele>1335.64</ele>
        <time>2016-02-21T14:04:40Z</time>
      </trkpt>
      <trkpt lat="45.60154" lon="6.89575">
        <ele>1334.26</ele>
        <time>2016-02-21T14:04:41Z</time>
      </trkpt>
      <trkpt lat="45.60151" lon="6.89567">
        <ele>1333.58</ele>
        <time>2016-02-21T14:04:42Z</time>
      </trkpt>
      <trkpt lat="45.60147" lon="6.89558">
        <ele>1332.82</ele>
        <time>2016-02-21T14:04:43Z</time>
      </trkpt>
      <trkpt lat="45.6013" lon="6.89519">
        <ele>1329.79</ele>
        <time>2016-02-21T14:04:47Z</time>
      </trkpt>
      <trkpt lat="45.60116" lon="6.89473">
        <ele>1325.81</ele>
        <time>2016-02-21T14:04:51Z</time>
      </trkpt>
      <trkpt lat="45.60113" lon="6.89461">
        <ele>1324.71</ele>
        <time>2016-02-21T14:04:52Z</time>
      </trkpt>
      <trkpt lat="45.60104" lon="6.89422">
        <ele>1321.46</ele>
        <time>2016-02-21T14:04:55Z</time>
      </trkpt>
      <trkpt lat="45.60101" lon="6.8941">
        <ele>1320.29</ele>
        <time>2016-02-21T14:04:56Z</time>
      </trkpt>
      <trkpt lat="45.60098" lon="6.89398">
        <ele>1319.12</ele>
        <time>2016-02-21T14:04:57Z</time>
      </trkpt>
      <trkpt lat="45.60093" lon="6.89373">
        <ele>1316.98</ele>
        <time>2016-02-21T14:04:59Z</time>
      </trkpt>
      <trkpt lat="45.6009" lon="6.89361">
        <ele>1315.88</ele>
        <time>2016-02-21T14:05:00Z</time>
      </trkpt>
      <trkpt lat="45.60082" lon="6.89325">
        <ele>1311.97</ele>
        <time>2016-02-21T14:05:03Z</time>
      </trkpt>
      <trkpt lat="45.60075" lon="6.89288">
        <ele>1308.74</ele>
        <time>2016-02-21T14:05:06Z</time>
      </trkpt>
      <trkpt lat="45.60067" lon="6.8925">
        <ele>1306.2</ele>
        <time>2016-02-21T14:05:09Z</time>
      </trkpt>
      <trkpt lat="45.60057" lon="6.89212">
        <ele>1303.11</ele>
        <time>2016-02-21T14:05:12Z</time>
      </trkpt>
      <trkpt lat="45.60043" lon="6.89161">
        <ele>1299.15</ele>
        <time>2016-02-21T14:05:16Z</time>
      </trkpt>
      <trkpt lat="45.60041" lon="6.89134">
        <ele>1297.38</ele>
        <time>2016-02-21T14:05:18Z</time>
      </trkpt>
      <trkpt lat="45.6004" lon="6.89121">
        <ele>1296.33</ele>
        <time>2016-02-21T14:05:19Z</time>
      </trkpt>
      <trkpt lat="45.60038" lon="6.8911">
        <ele>1295.12</ele>
        <time>2016-02-21T14:05:20Z</time>
      </trkpt>
      <trkpt lat="45.60034" lon="6.891">
        <ele>1294.02</ele>
        <time>2016-02-21T14:05:21Z</time>
      </trkpt>
      <trkpt lat="45.60031" lon="6.89091">
        <ele>1293.12</ele>
        <time>2016-02-21T14:05:22Z</time>
      </trkpt>
      <trkpt lat="45.60032" lon="6.89082">
        <ele>1292.31</ele>
        <time>2016-02-21T14:05:23Z</time>
      </trkpt>
      <trkpt lat="45.60034" lon="6.89077">
        <ele>1291.37</ele>
        <time>2016-02-21T14:05:24Z</time>
      </trkpt>
      <trkpt lat="45.60037" lon="6.89078">
        <ele>1290.21</ele>
        <time>2016-02-21T14:05:25Z</time>
      </trkpt>
      <trkpt lat="45.6004" lon="6.89085">
        <ele>1288.97</ele>
        <time>2016-02-21T14:05:26Z</time>
      </trkpt>
      <trkpt lat="45.60043" lon="6.89093">
        <ele>1287.85</ele>
        <time>2016-02-21T14:05:27Z</time>
      </trkpt>
      <trkpt lat="45.60046" lon="6.89103">
        <ele>1286.87</ele>
        <time>2016-02-21T14:05:28Z</time>
      </trkpt>
      <trkpt lat="45.60059" lon="6.89144">
        <ele>1283.79</ele>
        <time>2016-02-21T14:05:32Z</time>
      </trkpt>
      <trkpt lat="45.60068" lon="6.89163">
        <ele>1281.99</ele>
        <time>2016-02-21T14:05:34Z</time>
      </trkpt>
      <trkpt lat="45.60071" lon="6.8917">
        <ele>1281.04</ele>
        <time>2016-02-21T14:05:35Z</time>
      </trkpt>
      <trkpt lat="45.60074" lon="6.89177">
        <ele>1280</ele>
        <time>2016-02-21T14:05:36Z</time>
      </trkpt>
      <trkpt lat="45.60077" lon="6.89182">
        <ele>1278.94</ele>
        <time>2016-02-21T14:05:37Z</time>
      </trkpt>
      <trkpt lat="45.60079" lon="6.89187">
        <ele>1277</ele>
        <time>2016-02-21T14:05:38Z</time>
      </trkpt>
      <trkpt lat="45.60081" lon="6.89191">
        <ele>1276.13</ele>
        <time>2016-02-21T14:05:39Z</time>
      </trkpt>
      <trkpt lat="45.60083" lon="6.89196">
        <ele>1275.39</ele>
        <time>2016-02-21T14:05:40Z</time>
      </trkpt>
      <trkpt lat="45.60087" lon="6.89207">
        <ele>1274.22</ele>
        <time>2016-02-21T14:05:42Z</time>
      </trkpt>
      <trkpt lat="45.6009" lon="6.8921">
        <ele>1273.63</ele>
        <time>2016-02-21T14:05:43Z</time>
      </trkpt>
      <trkpt lat="45.60094" lon="6.89214">
        <ele>1272.98</ele>
        <time>2016-02-21T14:05:44Z</time>
      </trkpt>
      <trkpt lat="45.60099" lon="6.89216">
        <ele>1272.32</ele>
        <time>2016-02-21T14:05:45Z</time>
      </trkpt>
      <trkpt lat="45.60103" lon="6.89217">
        <ele>1271.69</ele>
        <time>2016-02-21T14:05:46Z</time>
      </trkpt>
      <trkpt lat="45.60105" lon="6.89218">
        <ele>1271.13</ele>
        <time>2016-02-21T14:05:47Z</time>
      </trkpt>
      <trkpt lat="45.60106" lon="6.89219">
        <ele>1270.61</ele>
        <time>2016-02-21T14:05:48Z</time>
      </trkpt>
      <trkpt lat="45.60106" lon="6.89222">
        <ele>1268.69</ele>
        <time>2016-02-21T14:05:58Z</time>
      </trkpt>
      <trkpt lat="45.60104" lon="6.89225">
        <ele>1268.34</ele>
        <time>2016-02-21T14:06:17Z</time>
      </trkpt>
      <trkpt lat="45.60103" lon="6.89226">
        <ele>1267.91</ele>
        <time>2016-02-21T14:06:41Z</time>
      </trkpt>
      <trkpt lat="45.60102" lon="6.89225">
        <ele>1227.38</ele>
        <time>2016-02-21T14:06:50Z</time>
      </trkpt>
    </trkseg>
  </trk>
</gpx>